GFSSW_925_rhum_000.txt.gz
RH
85 91 92 92 93 93 91 92 86 80 87 90 94 99 96 92 95 99 92 59 59 65 60 55 43 46 51 50 54 55 80 83 66 57 45 34 31 24 22 27 25 23 25 22 24
85 89 92 92 93 93 91 88 93 78 80 89 84 99 99 97 100 97 69 63 74 76 70 59 65 64 67 65 58 80 92 76 56 49 46 39 32 29 27 30 29 28 25 27 39
91 94 94 94 94 93 93 90 85 82 76 84 83 88 88 93 90 81 59 75 80 76 75 71 72 65 68 63 73 78 84 61 51 43 42 42 37 30 31 35 31 28 28 26 43
97 97 94 94 94 93 91 81 89 85 88 80 81 73 84 93 89 65 63 70 80 82 78 77 75 75 74 80 64 83 68 61 57 50 52 50 34 37 34 32 27 30 30 30 31
96 97 95 94 95 93 90 82 83 92 83 80 80 77 84 98 90 53 59 52 60 75 79 82 87 78 78 69 69 79 66 61 58 55 51 47 50 43 39 33 33 32 30 33 34
93 98 97 95 96 93 80 86 80 90 89 78 81 81 84 92 52 51 56 56 55 63 71 78 84 72 76 73 71 60 63 63 56 52 50 52 48 42 38 34 36 34 35 35 34
87 96 94 86 95 93 85 90 91 87 88 85 82 80 96 81 51 48 50 55 52 57 70 72 72 80 73 77 61 62 69 61 59 60 54 46 56 53 37 36 37 36 36 36 35
83 84 93 89 82 88 85 91 79 93 90 84 78 88 91 58 54 46 45 50 48 49 47 46 44 71 69 63 70 75 73 86 60 59 58 53 70 47 37 41 41 40 41 40 33
80 82 88 86 82 79 87 84 82 80 87 82 79 85 90 60 62 52 56 57 46 44 44 44 44 58 61 83 86 85 94 80 70 57 59 61 61 46 37 44 42 43 43 39 42
79 84 83 82 83 80 86 86 86 91 83 87 88 92 77 67 56 55 55 55 49 50 51 55 64 78 87 88 89 71 84 72 69 65 64 65 64 53 42 44 44 41 42 43 47
80 85 86 84 84 81 89 81 86 91 93 85 76 73 51 56 55 57 57 54 55 60 79 64 89 88 80 83 78 82 84 78 69 55 66 65 64 54 50 47 46 46 40 47 51
78 86 88 85 87 83 82 92 76 69 93 80 76 70 59 57 65 62 56 69 71 89 78 84 87 69 69 72 78 83 84 85 67 54 62 72 75 61 47 45 42 42 43 53 52
78 85 91 86 87 94 91 85 75 72 95 81 79 79 67 60 67 72 59 68 70 74 70 87 65 55 68 76 81 81 82 76 80 64 53 53 61 67 55 46 40 43 38 49 51
81 87 92 92 93 97 95 83 78 76 97 76 83 79 72 63 78 54 53 62 73 81 74 76 66 68 67 75 72 86 65 67 68 81 91 71 90 66 54 54 45 44 45 52 55
80 88 93 82 72 94 75 82 86 81 74 66 83 59 66 76 68 70 54 59 85 84 81 81 81 81 75 69 60 74 55 60 66 74 84 73 89 74 52 57 48 43 46 52 51
97 94 93 82 79 77 70 81 86 96 92 93 79 86 86 78 69 64 67 60 65 76 75 74 60 66 66 56 53 60 66 65 69 80 91 69 82 76 69 50 46 43 47 54 52
98 97 94 82 95 80 83 87 97 95 62 88 89 88 82 86 80 75 92 95 99 99 99 98 93 74 71 80 65 62 74 94 97 96 82 60 82 63 56 50 36 41 53 54 52
97 98 95 78 73 87 79 94 94 65 83 78 79 86 91 73 86 76 90 95 88 97 100 94 98 86 75 73 77 74 70 86 91 97 78 73 79 73 53 42 39 41 45 51 56
95 100 98 82 79 78 84 98 82 72 77 86 83 93 92 87 77 86 92 88 69 95 95 97 92 75 72 65 61 78 84 59 78 74 90 87 82 70 60 48 45 51 53 55 59
99 96 94 79 83 79 90 76 80 67 81 78 94 89 93 82 91 90 88 70 81 74 70 78 97 80 72 70 68 71 60 82 81 100 92 82 84 66 59 43 53 54 54 55 60
98 97 96 91 81 92 96 88 76 76 75 83 94 96 86 81 86 83 83 70 72 65 74 83 92 98 91 90 84 86 82 70 61 77 98 92 78 55 47 43 53 52 51 57 63
95 100 100 100 98 97 97 76 62 77 76 79 84 93 90 76 89 85 82 59 58 59 89 75 94 97 80 68 74 65 67 63 68 66 73 98 74 40 44 38 45 50 49 55 58
95 98 99 92 97 97 82 73 67 79 80 78 91 83 78 70 78 71 62 46 53 63 76 78 99 98 97 90 88 95 63 61 55 67 99 97 72 42 40 44 45 49 52 55 58
97 98 98 98 87 80 81 82 82 73 69 71 84 80 86 79 64 64 65 53 48 52 63 69 95 100 92 100 86 90 82 69 82 77 71 76 76 60 52 41 50 54 52 57 59
97 94 83 97 98 85 78 78 82 83 78 80 90 91 88 88 75 76 60 48 58 71 79 83 100 100 94 94 99 88 80 78 94 74 76 59 68 56 48 40 46 52 55 58 60
97 95 82 82 77 91 84 88 82 79 84 92 95 78 81 88 60 56 57 62 61 77 89 92 99 100 99 85 87 94 85 81 82 88 88 85 90 38 39 44 55 57 56 56 58
95 90 77 83 82 92 88 82 85 76 80 73 83 84 81 81 64 67 63 56 56 77 84 92 99 100 100 88 84 95 79 84 92 89 88 97 66 46 44 44 56 63 53 54 56

GFSSW_925_rhum_003.txt.gz
RH
87 91 90 91 92 94 95 93 95 92 87 86 89 90 90 86 88 99 97 64 58 57 64 60 50 59 55 56 57 60 83 87 67 62 47 35 33 28 23 24 26 25 28 25 23
81 87 91 90 91 94 95 93 91 93 80 89 98 98 100 97 100 97 82 67 79 82 78 63 64 68 70 68 62 82 93 74 60 52 49 38 36 35 28 30 30 29 26 33 42
89 84 92 90 92 94 95 96 94 90 88 83 80 86 97 93 90 79 64 84 82 80 79 73 73 69 71 69 75 82 84 64 55 49 45 46 39 33 35 38 32 30 27 36 52
95 87 96 95 91 93 95 96 96 90 86 82 78 73 86 95 87 63 64 75 79 83 82 78 76 77 78 82 69 84 71 64 56 52 54 54 42 38 34 33 28 31 28 30 48
87 90 95 97 90 94 95 97 96 91 80 78 80 78 92 94 89 56 68 71 79 83 85 84 88 79 82 73 69 80 73 62 62 62 59 56 59 56 46 37 32 32 33 34 36
81 88 86 95 96 90 93 95 94 96 88 75 82 86 85 90 50 56 60 62 60 69 81 82 84 78 83 78 74 67 66 65 63 60 58 61 58 53 44 38 38 37 36 35 36
78 88 89 90 95 87 86 89 88 87 87 80 79 82 94 78 55 51 51 55 54 60 73 74 76 83 79 79 66 67 77 67 63 58 64 50 62 59 45 42 41 40 40 37 38
77 80 88 92 92 83 81 84 89 85 88 83 81 90 90 60 58 50 53 50 54 55 50 47 51 75 75 62 70 74 76 87 60 61 59 57 70 49 45 46 44 41 43 41 40
79 75 80 89 95 84 80 77 83 80 87 86 78 82 87 62 68 50 53 53 49 48 49 48 45 57 58 80 85 85 86 84 73 58 61 67 65 52 43 43 47 45 44 41 42
88 79 80 80 93 82 76 88 84 92 87 86 88 92 78 68 60 57 58 55 52 55 53 56 67 77 82 87 87 83 94 80 82 59 65 64 59 58 52 49 46 45 42 48 44
99 82 83 81 86 79 91 89 86 88 92 86 80 76 57 57 56 61 59 58 58 65 80 66 90 94 75 83 80 86 87 81 68 60 70 64 63 54 58 57 54 53 44 48 43
94 89 87 89 87 84 88 89 78 68 91 82 80 74 63 60 68 63 56 71 78 91 81 83 95 77 68 72 79 83 85 82 66 57 58 64 69 62 56 52 53 52 46 47 47
87 95 88 91 88 96 92 83 70 69 89 79 83 82 74 63 67 72 61 70 82 94 93 88 68 62 68 78 88 87 91 73 70 65 58 62 61 50 44 49 51 47 44 42 46
93 98 88 99 98 98 94 84 75 72 97 76 93 82 75 65 77 56 56 68 79 92 80 79 63 69 73 77 78 92 72 72 71 78 84 67 74 62 57 54 51 47 54 45 53
87 94 92 98 90 96 76 86 76 67 80 68 87 59 69 74 67 74 55 62 80 90 80 82 88 81 78 76 66 74 62 67 76 86 88 77 87 70 49 50 52 56 54 48 52
94 85 99 99 76 79 74 84 77 85 90 91 83 86 90 78 68 68 70 58 68 76 78 75 65 75 75 63 60 58 71 72 71 82 95 68 79 58 53 62 51 49 52 49 54
96 85 96 87 89 72 81 86 94 96 67 92 78 86 71 86 77 74 86 93 94 99 97 98 88 76 72 77 68 63 75 97 97 95 82 61 70 57 52 54 50 45 47 56 58
93 88 91 88 71 83 81 92 96 64 88 74 75 92 84 81 83 84 91 94 86 99 100 96 97 92 78 78 81 79 73 86 84 96 79 49 64 58 52 37 34 41 46 62 60
97 98 91 92 70 81 79 98 79 68 78 88 80 87 89 78 76 86 88 73 76 81 94 99 94 77 71 60 61 96 97 66 67 64 97 82 76 70 66 63 57 53 53 62 60
94 95 98 98 86 77 84 80 71 69 80 74 86 73 77 80 90 86 72 71 73 69 67 85 94 80 74 68 64 69 63 95 96 95 94 76 85 72 62 49 41 53 49 56 59
95 96 98 98 80 88 97 80 73 74 75 85 84 82 75 84 87 73 70 71 73 75 76 87 93 90 89 88 82 82 88 76 66 80 93 91 60 66 57 50 52 55 58 60 65
96 100 100 88 96 97 92 77 65 85 82 81 73 75 78 85 92 89 91 72 69 73 93 84 96 96 80 71 59 62 69 73 91 84 63 92 74 59 58 46 51 54 56 64 70
96 97 100 75 98 97 78 70 70 87 93 86 87 76 68 80 88 84 69 52 68 70 81 79 100 94 100 94 94 100 78 64 62 68 72 66 46 58 47 50 56 58 62 70 74
96 100 98 96 87 78 77 85 80 66 66 67 72 73 84 88 72 71 71 54 60 61 66 79 100 98 84 94 89 96 94 67 64 79 74 72 62 50 50 51 52 57 61 68 73
96 95 89 97 98 79 75 74 80 89 71 68 86 82 88 87 80 80 71 58 60 66 83 95 100 100 93 85 97 95 81 76 74 62 66 54 68 60 52 46 45 54 62 68 73
99 95 84 84 79 76 78 78 83 74 84 85 94 78 85 92 70 61 62 59 60 84 86 92 100 100 100 96 96 94 92 85 64 64 60 73 68 52 46 48 54 58 60 64 68
93 95 77 80 84 83 78 80 81 74 84 74 82 80 84 79 69 63 71 69 63 83 95 99 100 100 95 93 96 100 86 84 70 66 70 93 68 51 57 45 53 60 55 59 62

GFSSW_925_rhum_006.txt.gz
RH
97 84 69 90 90 91 94 93 92 94 95 91 88 85 85 85 90 99 98 68 61 56 69 64 53 56 55 60 62 63 85 91 74 66 53 37 37 30 26 26 28 26 27 27 25
92 98 82 75 91 90 92 94 94 94 92 82 93 91 93 93 97 98 74 69 86 83 78 64 64 65 72 68 65 83 96 78 64 56 48 43 43 39 32 34 32 31 26 31 41
82 97 97 76 90 84 91 95 96 90 83 80 79 94 99 96 91 79 64 79 88 86 83 72 70 67 72 72 76 80 84 67 61 54 50 51 45 37 38 46 37 32 31 32 53
96 88 98 98 90 84 91 94 88 83 80 79 82 77 87 98 93 67 77 80 84 88 79 79 76 75 81 84 74 88 79 73 61 56 60 60 54 50 42 41 30 32 31 31 45
92 90 94 95 88 88 90 94 93 88 79 82 81 80 95 95 87 61 70 75 81 86 80 72 87 79 81 77 72 83 79 68 63 65 67 64 67 69 61 47 41 41 35 37 37
94 81 84 89 90 87 89 88 96 89 89 76 82 87 86 96 54 61 64 63 84 86 89 84 86 82 83 82 76 70 72 71 64 68 65 66 64 61 53 48 46 44 41 39 40
98 86 84 88 87 82 83 82 88 73 79 76 79 87 92 79 56 56 53 57 59 66 84 85 78 82 82 86 70 72 81 73 68 63 66 62 69 66 50 51 51 48 45 42 40
95 96 86 85 86 89 77 76 87 90 87 81 80 88 93 61 63 59 55 50 53 56 54 62 68 78 81 69 68 75 77 92 63 65 63 62 74 51 44 45 48 47 50 46 42
95 97 94 86 91 91 78 74 84 80 83 89 82 80 88 61 68 53 56 52 54 54 51 49 47 62 65 81 83 82 92 88 70 57 62 70 65 54 48 47 51 53 51 47 45
92 95 98 89 95 94 77 84 88 85 90 84 86 89 76 68 61 60 61 51 54 56 54 56 68 81 83 87 94 86 90 77 72 60 66 77 75 61 54 57 61 58 55 52 49
88 94 86 97 91 94 87 93 88 95 92 85 79 75 61 61 58 63 63 57 60 64 84 69 93 90 74 79 74 86 92 92 76 61 69 74 70 60 56 60 65 56 60 54 53
88 94 91 99 96 97 84 84 76 64 92 84 84 79 68 63 70 66 61 71 75 90 79 81 91 76 71 77 82 85 89 86 76 61 65 65 62 53 52 55 62 62 56 58 53
88 94 94 96 100 100 85 75 66 67 82 75 81 82 76 66 72 76 65 74 84 95 88 87 67 65 74 82 88 90 92 86 83 63 56 62 60 47 39 39 40 42 42 47 49
91 93 96 89 100 99 90 73 70 61 90 69 97 85 80 68 79 60 60 70 80 89 85 93 73 73 78 82 82 92 77 78 79 84 94 62 76 49 45 51 41 39 42 54 53
92 93 96 93 100 94 82 77 69 54 87 71 93 66 74 71 66 78 59 64 91 89 81 78 82 84 84 76 72 71 68 78 80 90 92 82 89 66 48 48 46 53 60 58 51
98 97 99 95 100 87 82 77 67 83 85 91 86 91 90 78 71 76 68 58 62 74 77 74 69 72 75 65 64 61 75 75 77 79 92 73 86 61 49 41 54 46 52 55 55
98 98 96 90 99 86 84 78 93 89 68 94 83 86 78 85 79 78 82 91 93 99 98 94 89 73 74 79 72 72 89 97 98 97 88 64 76 54 45 41 45 47 48 45 56
100 95 88 89 92 92 82 85 86 66 82 73 68 76 84 78 72 82 88 94 84 92 100 97 94 89 76 76 82 80 78 91 88 92 86 58 76 64 48 37 33 32 47 48 61
87 97 98 77 98 85 78 82 76 67 79 87 77 82 85 79 79 86 89 81 68 91 98 97 93 80 79 67 67 98 97 69 74 62 90 80 71 55 57 58 53 50 42 54 64
99 98 99 77 100 85 77 80 65 66 78 75 87 78 86 84 91 96 84 68 72 74 68 84 96 76 80 73 69 88 77 98 97 96 94 79 68 69 51 58 54 49 37 60 66
95 98 94 70 93 95 97 80 67 76 71 77 80 84 65 69 81 84 69 65 72 70 73 88 96 86 90 93 80 92 96 98 78 88 91 86 59 57 52 58 56 52 49 56 65
98 97 100 94 99 98 92 68 62 92 81 78 71 64 72 80 94 86 84 72 68 76 87 79 98 96 82 71 63 64 72 76 86 84 82 87 56 46 71 64 55 59 61 65 72
97 97 100 83 100 99 80 73 72 94 93 86 83 71 68 78 85 87 78 59 70 79 86 80 99 98 94 88 85 93 76 65 66 76 81 82 50 29 40 52 56 68 75 86 86
96 100 98 97 91 76 78 78 78 68 81 75 76 74 81 84 78 79 81 59 68 70 66 69 99 97 84 94 97 99 90 79 74 95 74 69 53 39 52 54 57 74 78 88 87
96 98 91 99 97 73 68 74 78 83 75 74 84 79 92 98 83 89 75 66 68 63 76 92 99 99 93 80 99 100 97 89 95 78 77 55 51 50 51 62 62 69 81 85 85
99 95 89 86 76 74 78 85 85 75 80 83 86 77 86 94 77 69 74 73 81 72 82 93 98 100 98 98 97 100 96 96 95 75 67 59 58 48 60 52 57 59 73 80 81
91 94 76 80 81 82 81 82 76 74 68 76 80 86 90 80 73 70 64 71 72 78 96 98 100 100 94 96 97 99 91 81 78 81 63 74 58 46 62 62 57 62 65 70 76

GFSSW_925_rhum_009.txt.gz
RH
88 92 93 96 82 80 90 85 92 94 96 78 90 90 81 82 96 99 96 69 65 69 79 64 53 55 56 62 65 63 78 78 63 60 47 39 38 34 29 28 29 27 26 28 33
94 96 93 97 92 87 90 85 91 94 95 71 83 96 90 93 93 98 69 69 84 82 76 64 65 62 66 68 66 75 87 76 62 53 49 42 42 40 37 36 34 31 28 28 44
96 96 95 95 92 94 88 92 93 88 90 79 80 85 97 92 96 82 69 88 87 88 81 68 67 64 69 74 72 77 75 67 61 52 50 54 51 42 40 45 38 35 30 30 43
99 95 96 90 99 98 88 82 90 81 87 80 76 78 93 98 88 72 84 82 87 90 79 78 72 72 78 82 73 84 77 74 64 56 60 62 56 59 48 44 36 32 34 33 31
98 99 98 93 92 88 86 88 90 81 91 74 75 79 90 95 84 65 69 74 80 92 80 72 80 74 77 78 74 84 78 70 64 66 65 63 66 62 64 47 42 44 44 40 35
93 98 99 91 87 87 84 81 81 86 92 83 79 87 84 96 62 66 64 70 87 89 81 74 82 77 78 80 76 70 73 70 65 63 64 65 61 63 49 50 52 49 42 37 37
87 99 95 95 88 93 88 78 73 79 88 86 77 87 88 79 59 57 58 60 82 78 87 82 76 78 80 88 73 71 81 70 68 64 62 62 72 74 50 47 48 48 45 42 39
81 91 97 98 88 95 85 83 69 88 89 82 83 82 90 64 67 61 56 53 56 64 67 79 78 79 83 72 68 76 75 84 62 64 61 57 62 54 46 48 51 49 48 45 41
80 83 96 91 100 93 94 83 77 90 84 93 81 73 83 63 71 62 56 51 55 56 52 55 54 64 75 84 84 82 84 86 70 59 58 67 69 52 47 52 52 48 46 47 43
75 81 94 95 98 100 99 84 88 87 91 90 86 85 77 67 65 65 57 50 54 57 56 59 69 80 80 82 84 83 94 81 74 59 63 68 70 58 53 52 48 49 49 50 46
84 89 92 94 96 99 100 99 96 95 88 84 80 75 66 63 62 67 61 56 59 65 87 72 88 85 75 75 71 84 88 88 76 61 69 65 61 52 48 51 49 48 44 44 48
84 92 89 93 95 99 97 91 75 61 93 85 84 80 72 65 73 70 62 70 72 88 80 84 90 71 70 76 79 82 86 82 62 63 65 64 64 51 46 46 44 43 47 48 50
92 96 92 91 96 99 97 80 56 47 74 71 82 84 75 67 72 79 65 75 83 93 88 88 72 66 72 80 84 71 77 69 66 65 60 61 55 36 28 28 36 38 38 38 38
95 89 91 85 89 92 94 80 59 42 82 65 90 86 78 67 73 61 62 70 82 87 74 74 66 75 85 87 81 83 72 75 79 84 82 60 69 39 38 36 34 36 35 37 40
92 93 92 89 92 99 91 72 55 48 68 72 94 68 76 72 66 78 62 63 92 90 86 76 83 92 87 75 74 74 67 73 79 89 93 74 86 54 47 46 41 37 42 40 39
84 96 95 89 95 94 97 81 49 78 80 92 92 92 87 78 76 75 72 59 62 77 78 75 68 69 73 68 67 63 79 76 78 86 95 67 76 56 42 38 37 36 35 43 43
95 99 94 90 83 77 100 87 94 82 66 97 91 89 75 89 81 78 84 89 91 98 96 77 80 75 70 77 73 72 99 91 96 96 83 61 78 53 39 35 34 33 36 41 43
97 100 98 96 75 92 91 97 94 65 79 69 64 82 84 72 75 81 82 91 79 90 92 97 85 76 75 73 78 83 83 88 89 81 73 67 79 58 45 37 35 34 33 34 45
92 99 100 100 83 88 96 98 75 70 80 75 72 84 88 72 72 74 84 84 74 81 95 97 85 76 82 73 64 97 95 66 94 86 95 72 62 49 42 42 52 49 46 45 42
100 94 99 88 81 95 100 88 63 75 71 71 88 74 83 81 89 85 89 74 73 72 66 79 93 76 78 75 74 84 79 94 97 95 90 68 67 62 42 42 56 56 51 48 47
88 96 89 88 88 98 100 79 69 75 67 74 80 86 76 84 83 93 76 62 73 82 73 81 94 84 86 91 77 90 99 100 98 96 86 71 46 42 37 52 60 58 53 56 58
96 100 92 94 98 100 99 67 71 85 79 80 68 69 71 72 83 76 80 67 67 78 95 77 88 97 85 70 64 63 72 73 90 86 88 81 61 33 48 69 57 57 58 71 77
98 98 97 81 100 100 89 79 82 93 87 78 79 70 67 76 88 84 78 62 75 76 85 81 97 98 86 85 74 92 77 72 72 74 90 84 58 32 34 55 56 59 62 78 84
97 100 99 95 93 88 81 80 83 75 87 78 80 75 80 80 69 81 84 64 70 71 66 69 90 91 74 72 99 100 87 88 96 92 74 72 60 44 38 48 57 51 61 78 84
98 99 88 100 98 77 71 72 84 87 73 75 82 74 80 94 86 92 81 70 75 69 73 84 99 98 90 77 91 100 97 95 98 82 82 56 56 46 40 46 58 59 55 73 86
98 97 90 92 79 71 78 78 78 80 80 85 80 75 80 90 72 77 73 76 73 77 83 86 98 100 96 92 97 98 98 96 90 81 74 64 65 44 42 47 67 80 63 68 86
91 93 98 78 76 78 83 77 82 74 71 71 76 76 86 78 69 66 71 69 71 76 86 98 100 100 91 74 100 99 94 95 91 82 80 86 64 52 56 78 84 72 66 70 84

GFSSW_925_rhum_012.txt.gz
RH
98 95 95 93 96 95 88 90 81 89 94 95 92 98 91 80 88 99 78 63 67 72 73 59 51 48 47 43 46 46 42 37 34 34 27 27 29 24 21 22 22 20 20 23 34
98 100 96 92 92 91 90 90 87 90 96 94 90 93 91 88 86 80 70 67 68 83 65 52 46 44 41 44 45 46 44 34 28 29 31 27 30 26 29 25 24 24 21 24 32
96 99 98 97 91 95 92 84 89 94 92 93 86 87 94 97 88 74 81 87 78 84 65 56 50 44 46 47 47 46 48 32 42 38 34 33 36 31 31 31 26 25 23 24 26
85 96 99 98 98 90 94 88 86 92 83 84 80 80 91 99 92 73 88 85 90 84 72 61 50 50 50 54 46 55 44 42 40 43 48 46 39 42 33 27 21 26 25 30 29
80 84 97 98 98 92 94 89 88 92 81 80 76 78 87 79 72 67 68 75 84 86 74 63 57 50 56 50 53 58 44 46 44 49 47 42 44 43 38 31 30 31 32 33 30
72 82 88 98 98 94 92 83 90 95 80 88 75 82 69 81 63 67 64 72 77 84 69 66 66 55 55 53 55 49 55 52 48 46 43 48 42 39 37 31 31 31 30 30 28
67 82 81 92 99 99 91 92 94 93 82 89 78 86 72 51 58 56 60 76 81 76 75 74 66 58 56 61 56 54 61 46 42 41 45 45 50 45 32 29 30 29 27 26 25
57 80 77 84 99 97 98 99 83 87 89 90 80 78 64 67 71 56 57 57 69 71 73 74 71 59 55 55 51 57 56 56 40 46 41 43 44 30 35 34 35 31 27 25 24
70 68 80 83 95 92 100 100 87 89 86 94 75 62 64 65 66 61 54 53 57 52 66 68 52 51 57 55 55 52 48 56 48 41 44 48 46 36 30 37 36 30 29 28 28
71 77 82 89 94 90 97 100 97 97 96 88 82 75 66 60 64 65 60 52 51 51 54 55 57 58 57 61 54 47 60 50 47 41 49 49 46 37 35 35 34 32 31 31 32
80 81 90 94 91 96 90 100 99 96 78 63 64 60 61 62 64 62 54 50 49 56 70 64 78 76 55 52 47 55 56 54 47 48 52 47 43 37 33 32 33 32 30 29 29
90 88 95 88 94 94 95 96 66 58 83 68 63 63 66 61 65 62 56 53 55 62 60 73 84 53 50 52 58 59 61 56 45 42 49 45 45 36 34 32 29 29 27 27 26
76 88 92 90 89 87 92 95 62 59 58 81 68 66 62 60 59 66 53 55 59 70 67 63 58 54 60 63 68 61 62 56 55 47 46 50 48 28 21 21 21 22 23 21 22
84 90 87 87 83 83 92 82 77 75 94 74 84 72 63 57 64 55 50 53 67 64 64 63 50 63 64 66 59 64 47 52 60 64 66 45 52 29 24 24 23 22 23 23 24
84 94 91 93 87 77 97 88 82 82 94 66 83 66 60 55 59 73 57 56 66 66 65 64 70 73 78 66 57 61 53 54 56 62 64 54 86 35 29 30 27 22 20 19 20
81 95 96 95 87 81 87 100 86 93 88 85 84 92 87 65 68 69 67 51 51 63 65 56 54 55 54 55 56 53 59 61 58 66 89 51 50 42 28 24 23 23 20 19 21
91 98 100 99 78 88 90 95 98 92 60 93 84 82 69 72 78 70 79 86 76 95 92 64 63 56 54 63 58 60 74 72 80 90 64 30 41 39 26 25 24 20 19 21 22
96 99 87 96 82 90 93 99 95 57 62 62 71 66 69 65 77 71 79 88 67 67 76 78 71 62 58 62 56 67 63 63 62 43 41 31 54 33 21 23 23 22 26 31 32
98 93 93 93 91 84 98 98 89 54 61 66 75 77 81 61 61 71 76 70 62 66 83 89 76 59 60 54 56 71 90 55 72 56 79 48 38 29 25 28 24 25 35 35 34
98 95 90 98 88 86 100 99 62 62 55 55 70 58 69 71 67 67 70 56 58 54 47 60 83 56 56 64 62 65 55 86 90 79 66 38 42 38 22 24 26 36 35 32 32
96 92 99 88 80 96 100 89 76 56 53 60 67 65 57 67 62 64 60 55 54 60 54 58 64 69 75 81 61 80 89 94 73 72 70 64 36 19 23 23 21 32 33 33 40
96 100 98 85 99 99 100 69 67 69 69 63 53 55 58 62 69 64 65 54 47 61 76 59 68 85 70 46 46 44 54 61 92 78 88 74 56 22 23 28 44 36 30 38 48
97 97 99 88 99 100 90 73 76 75 74 66 66 56 53 63 73 58 60 50 54 58 60 62 91 90 72 68 58 70 56 54 81 84 88 84 48 24 23 28 31 37 33 35 46
97 100 95 88 78 75 71 72 81 71 75 65 68 60 60 62 58 68 67 58 52 53 58 58 66 85 66 66 61 100 78 77 96 92 68 68 55 37 30 29 26 25 25 35 41
97 96 85 100 86 60 59 68 76 76 69 63 68 61 62 70 69 69 64 62 61 62 62 65 100 92 77 66 77 89 85 93 99 79 80 55 47 38 33 33 31 32 40 55 50
96 97 76 84 69 58 70 68 68 76 67 72 68 64 63 66 65 69 66 66 62 62 66 71 89 97 96 79 78 97 88 94 97 94 69 60 60 42 41 47 53 58 72 64 56
94 92 91 84 74 63 67 63 63 63 68 65 63 68 77 69 59 59 57 60 62 65 72 89 100 100 88 63 72 96 96 96 95 92 75 82 59 47 78 83 84 85 70 62 56

GFSSW_925_rhum_015.txt.gz
RH
92 96 100 99 94 91 98 92 93 83 84 94 95 93 96 90 86 93 68 58 57 72 64 51 45 40 38 35 31 36 41 36 30 23 20 16 19 18 15 17 15 15 15 21 28
81 90 94 100 100 95 94 88 94 89 87 96 96 82 93 82 71 66 63 64 67 71 63 47 39 36 36 36 37 42 40 31 19 18 20 19 23 20 22 21 17 18 17 20 25
68 77 88 96 100 100 95 98 96 90 94 96 90 78 90 93 74 58 59 70 81 79 61 45 37 35 36 34 37 38 41 24 22 29 28 27 23 21 24 27 19 18 18 18 21
65 68 81 88 96 100 98 96 97 95 95 96 82 74 81 100 89 64 81 82 87 77 56 48 41 44 42 42 34 41 31 29 27 28 36 35 26 25 25 24 18 17 17 20 22
63 62 71 80 89 98 98 96 100 91 96 95 74 72 82 92 78 65 66 73 81 78 58 49 47 42 46 38 37 44 37 26 29 34 35 34 36 33 32 26 22 21 22 25 24
64 62 65 80 81 92 99 98 99 92 96 92 70 76 73 84 63 59 56 61 60 73 66 54 49 41 46 43 45 36 39 37 35 36 35 41 36 32 29 25 25 25 25 24 25
66 66 63 72 74 85 97 100 98 97 96 92 73 81 60 54 49 53 58 56 64 66 64 61 59 59 54 56 44 46 53 41 37 35 38 35 43 39 29 25 24 23 22 22 22
67 68 70 73 81 83 95 99 99 99 97 93 71 68 59 57 55 51 50 60 63 63 70 71 62 56 47 46 46 50 44 49 31 34 30 35 43 24 23 25 27 24 21 20 19
66 74 77 75 80 87 94 96 98 99 93 94 75 60 55 62 57 50 47 51 55 55 60 67 67 56 50 54 46 43 46 40 35 29 34 40 41 26 26 25 26 26 23 23 22
78 81 85 86 89 94 96 91 88 98 93 88 71 67 52 52 54 52 48 49 46 47 54 51 48 53 51 49 51 42 48 40 36 28 37 40 37 28 25 27 29 27 24 24 22
83 83 86 87 83 90 93 86 100 99 98 70 62 50 52 54 57 53 47 48 45 48 61 55 70 67 47 42 40 42 42 39 32 29 39 38 35 28 24 24 26 25 24 24 22
86 90 89 92 90 91 90 88 92 85 92 58 51 52 51 50 61 52 45 53 60 72 58 76 82 49 40 41 45 47 49 46 36 31 37 38 37 30 26 24 22 23 23 22 21
84 84 84 92 92 83 72 84 87 98 82 74 53 55 59 53 52 61 46 44 58 62 58 66 51 46 48 51 56 49 51 47 44 37 38 42 41 27 21 21 19 19 20 20 20
77 77 85 94 82 77 70 82 81 95 100 94 80 59 58 51 60 48 44 46 55 58 55 58 43 50 50 56 49 55 37 40 46 51 54 39 46 24 16 16 17 18 17 18 17
73 82 92 96 96 77 76 100 84 94 96 73 74 52 50 50 57 62 44 53 56 52 53 58 56 57 61 52 45 51 46 48 49 55 56 44 57 33 16 16 15 15 18 18 17
77 84 84 94 86 80 76 96 93 99 95 87 79 82 69 50 58 58 60 48 42 49 50 45 44 48 47 46 46 47 51 53 53 64 83 45 40 34 20 14 15 14 16 17 16
83 98 98 98 85 70 82 90 99 97 60 95 75 76 65 64 65 67 73 74 69 91 84 58 54 48 44 56 50 54 67 69 80 90 64 24 31 30 18 16 16 17 16 16 16
94 90 92 99 82 91 92 87 98 61 60 56 74 67 73 60 59 61 69 74 52 52 62 77 74 54 52 55 52 61 60 59 52 38 34 26 34 26 18 14 16 16 17 17 19
93 92 88 82 84 80 90 86 98 53 57 71 69 77 75 63 64 61 61 64 50 50 75 70 70 46 48 46 47 60 81 50 67 50 61 39 28 20 17 17 17 18 19 18 23
99 91 80 92 88 81 90 98 77 48 50 52 67 59 72 63 71 62 60 47 53 44 41 53 75 48 47 51 49 54 46 81 86 80 54 33 28 28 20 19 17 18 19 19 25
97 95 96 92 82 85 97 99 64 48 48 53 53 55 53 58 52 57 56 48 42 46 45 48 56 67 63 68 50 67 74 85 59 70 74 63 39 20 22 21 22 19 18 26 26
92 100 98 80 95 87 98 95 57 61 61 52 44 43 46 47 51 49 49 45 40 44 56 48 60 80 63 40 39 42 56 55 89 67 77 75 62 25 22 21 21 22 29 23 22
95 95 96 100 89 78 95 80 58 70 64 56 54 45 43 48 58 48 47 43 41 50 50 51 74 82 79 56 43 52 48 48 61 78 92 90 56 20 20 23 20 23 24 24 24
95 100 94 78 76 66 93 68 73 65 61 54 53 44 48 50 48 52 56 53 44 46 62 50 61 83 63 68 54 95 71 62 82 97 71 62 55 40 33 33 37 28 24 22 24
90 90 78 94 69 74 69 62 71 63 58 50 54 48 45 53 53 55 52 54 52 54 52 55 99 78 65 59 66 74 72 71 98 94 97 65 56 42 38 40 50 41 35 30 35
96 97 73 64 51 52 58 56 59 63 55 56 52 50 50 51 52 57 54 52 53 56 58 62 90 92 93 68 68 82 64 72 95 94 95 94 93 59 46 54 53 58 57 67 60
94 89 96 66 53 48 51 51 56 53 61 54 53 58 60 56 54 52 49 47 51 59 66 77 97 98 80 55 62 84 95 96 95 88 93 97 80 55 60 74 78 76 70 78 71

GFSSW_925_rhum_018.txt.gz
RH
73 74 83 93 97 100 97 94 98 96 91 85 93 95 97 95 92 96 90 66 69 68 52 63 48 42 37 41 35 33 54 52 41 33 28 18 19 17 16 19 18 16 17 28 36
69 71 72 83 91 97 100 98 98 98 95 88 95 93 94 94 89 74 73 61 63 73 58 51 45 39 45 44 41 48 62 52 32 26 25 26 20 20 21 23 21 19 17 23 27
67 67 67 71 80 92 97 100 99 99 97 93 96 93 84 93 84 53 52 65 73 65 65 51 38 36 48 40 41 46 54 35 27 22 26 34 33 22 24 29 24 21 20 23 23
67 67 65 65 75 79 91 100 99 99 94 96 87 84 80 94 84 70 64 75 73 76 68 50 43 46 48 46 36 46 36 34 33 28 32 37 33 33 29 26 23 23 22 20 26
70 68 67 68 68 74 84 96 100 98 98 96 82 78 85 95 79 72 65 73 80 80 65 49 48 46 51 40 36 41 37 30 28 31 32 34 40 40 37 30 25 25 24 27 25
74 71 70 70 69 72 76 90 100 99 95 98 86 76 86 88 61 56 55 60 68 77 71 52 44 41 48 39 40 36 39 38 36 33 35 39 38 38 34 29 30 29 29 28 28
75 73 69 68 75 72 76 86 99 98 97 95 90 86 65 62 50 60 56 52 56 66 64 60 53 53 52 56 45 44 57 48 43 40 40 37 46 45 34 31 30 28 28 27 27
78 82 80 74 75 76 80 86 98 99 100 87 91 80 63 48 50 49 50 54 58 62 65 67 59 57 55 49 46 55 55 68 35 37 36 40 54 34 28 32 34 30 27 25 25
82 82 82 78 82 84 89 93 96 98 100 82 85 75 64 58 56 51 44 50 56 56 73 73 63 61 52 58 59 53 62 55 43 35 34 39 47 35 28 28 31 32 29 27 25
82 84 85 84 88 88 80 93 68 86 99 96 72 75 54 56 49 48 44 47 55 63 68 70 65 63 60 64 73 54 56 47 44 36 36 44 45 35 30 29 32 33 32 31 29
85 85 88 84 91 93 79 76 95 100 96 83 68 52 46 51 53 49 45 48 46 66 68 59 70 78 58 54 49 46 50 52 39 30 37 39 37 33 29 29 28 29 29 29 28
86 87 87 87 89 90 92 83 83 100 98 84 54 49 50 51 60 51 45 58 60 73 58 70 82 54 44 40 46 49 56 56 42 34 37 43 44 37 33 30 27 26 25 25 26
83 80 75 82 92 86 80 78 79 95 98 84 60 56 55 49 57 59 46 51 63 68 73 64 53 46 51 52 55 55 57 54 50 42 40 43 47 38 28 29 27 26 24 23 24
80 74 82 96 84 82 74 90 86 92 100 99 87 58 56 52 59 46 43 46 59 71 65 64 46 46 52 57 50 62 42 44 46 56 68 44 75 39 28 21 25 24 26 23 22
76 75 84 79 95 79 72 88 95 92 100 95 83 49 52 56 61 60 45 47 58 56 59 66 56 59 60 50 45 51 49 50 52 62 73 58 74 47 28 27 19 19 22 24 24
85 91 95 98 97 84 76 88 88 99 98 99 83 74 74 56 58 57 56 48 43 46 51 51 44 47 50 44 46 47 49 53 56 66 96 69 55 40 31 24 19 16 18 17 18
93 98 96 97 91 84 83 92 99 98 78 96 88 72 62 63 70 67 76 78 76 90 86 60 58 48 45 54 51 53 65 93 96 96 89 38 47 36 23 21 19 20 18 18 19
98 90 86 99 88 80 85 96 95 92 73 58 70 68 64 60 70 71 76 79 61 60 78 87 84 58 49 58 61 64 66 89 77 83 68 40 60 38 20 18 17 17 19 19 21
92 85 83 92 89 71 93 84 98 89 58 71 70 77 72 61 63 69 76 71 55 51 81 81 71 47 50 48 52 67 83 55 78 62 86 58 34 26 22 21 20 20 19 23 22
96 82 88 86 78 80 98 87 100 53 54 52 68 57 73 67 66 67 64 51 50 46 45 56 74 50 52 47 50 57 49 85 88 95 81 50 41 40 29 24 23 27 22 23 24
81 92 88 77 74 88 99 100 90 50 48 52 56 56 53 66 60 60 55 46 44 45 43 46 60 68 66 70 67 68 74 72 72 83 94 80 52 27 32 30 28 26 27 32 35
84 97 92 84 95 95 98 97 69 64 58 48 41 42 50 51 55 54 52 46 40 44 57 46 62 92 80 50 49 54 64 62 86 79 80 86 68 32 32 28 30 27 24 26 30
94 92 81 97 95 91 94 84 59 68 62 54 49 43 40 48 56 48 48 42 40 48 53 51 82 94 88 62 48 57 53 53 59 71 90 94 64 27 32 32 32 32 47 43 28
95 96 89 93 82 81 96 77 91 69 55 48 47 42 44 48 45 54 56 51 43 48 56 50 63 85 91 78 72 98 79 63 68 98 80 77 66 49 43 40 51 54 45 42 44
88 86 70 90 69 73 74 79 68 58 54 47 50 45 46 54 51 54 53 57 50 59 51 55 98 83 75 64 65 72 74 71 94 94 98 79 79 66 61 68 67 58 57 52 65
93 98 87 61 55 65 61 67 65 58 57 53 51 44 45 49 57 52 51 53 60 57 59 60 97 98 89 75 75 82 72 71 75 95 96 95 94 68 63 61 62 64 67 72 71
90 88 95 56 53 55 49 53 58 57 60 53 50 54 56 64 57 52 51 50 54 60 66 86 99 98 90 66 73 87 75 85 84 78 88 98 86 77 65 66 71 78 74 72 72

GFSSW_925_rhum_021.txt.gz
RH
70 70 70 72 75 88 98 99 99 98 99 95 89 92 96 93 95 97 90 84 60 79 65 68 56 49 45 45 42 38 67 72 57 48 38 27 30 19 18 20 19 18 21 40 43
69 68 68 68 69 72 87 98 99 100 99 98 92 93 95 89 99 94 75 73 77 65 76 58 60 50 56 50 49 54 74 64 44 39 35 30 36 34 22 22 21 20 30 37 40
71 70 69 68 70 68 70 90 98 100 98 98 94 96 89 90 92 79 68 75 78 71 70 54 56 48 58 52 52 51 68 50 46 35 31 36 38 34 32 29 25 23 24 35 38
76 76 67 77 66 67 66 68 91 98 98 99 95 94 84 94 88 73 62 72 68 74 68 66 60 58 59 61 47 58 47 44 40 37 35 38 38 44 36 31 32 27 24 24 28
81 75 73 73 71 74 66 72 72 95 99 99 89 90 86 96 84 64 67 67 75 76 73 75 69 57 59 52 46 48 44 40 38 38 36 33 41 43 43 37 35 33 32 30 28
74 74 74 79 81 74 75 66 72 90 99 100 91 88 95 94 60 60 64 74 78 74 82 74 59 50 52 54 49 41 43 44 43 44 43 42 42 39 38 34 35 32 32 34 32
80 82 81 81 82 74 73 77 75 86 97 100 85 91 79 71 59 55 54 61 62 70 77 71 58 57 54 56 49 48 58 56 53 49 48 40 52 51 41 40 41 40 36 32 33
84 83 83 81 80 78 83 83 84 90 97 100 86 89 89 53 53 58 56 56 56 63 63 71 58 58 56 50 49 57 58 79 54 47 47 46 60 45 39 41 42 38 36 35 31
82 83 84 84 87 88 88 88 88 93 86 99 98 88 78 55 54 49 47 54 56 70 77 80 79 67 56 63 66 61 78 73 61 39 43 50 54 42 36 37 40 40 38 35 31
80 87 87 87 88 91 92 92 69 86 79 100 90 87 70 64 56 49 43 47 64 72 81 85 90 84 72 69 88 70 73 56 54 40 38 46 52 44 38 36 39 38 42 41 36
84 87 85 85 86 89 92 86 84 97 97 89 80 68 55 51 49 54 45 52 62 72 85 89 88 91 76 69 59 61 56 62 53 40 42 44 47 41 34 37 34 32 37 33 34
85 87 81 77 92 93 93 92 92 95 98 86 67 58 54 51 63 55 45 64 68 85 65 75 88 70 59 56 60 60 61 65 53 40 43 48 47 40 37 35 33 32 34 36 34
74 77 80 85 78 82 81 82 88 82 99 91 82 63 61 54 65 64 54 58 68 74 68 81 59 54 57 58 57 58 63 63 60 50 47 51 55 44 38 35 32 31 28 30 30
72 78 80 82 80 87 79 99 98 81 99 99 90 64 58 58 70 49 48 53 63 74 72 69 47 51 61 64 56 67 51 52 57 63 75 55 86 62 39 32 28 36 33 30 28
88 93 95 95 86 90 84 98 88 89 97 98 90 54 61 69 64 60 46 49 68 70 74 85 64 59 58 56 48 60 52 56 59 69 73 69 78 64 44 36 28 23 28 32 33
95 98 99 95 100 80 79 92 90 97 96 100 82 78 79 65 65 63 58 51 47 57 62 57 46 51 58 48 48 48 56 57 63 76 96 75 65 56 38 30 21 18 17 18 23
99 98 90 94 88 84 90 97 96 97 95 100 93 77 74 79 75 69 74 77 79 91 97 68 62 49 47 60 52 59 69 95 91 94 89 58 71 52 29 25 22 22 21 20 22
94 81 88 99 84 82 94 91 97 99 96 75 72 72 79 70 79 70 80 83 69 65 89 89 86 67 55 62 71 73 66 90 91 96 81 51 68 47 29 24 23 21 21 21 21
67 77 85 87 82 85 95 97 98 99 71 80 68 70 78 65 78 74 75 68 64 64 80 90 78 56 54 50 56 70 85 60 81 72 93 70 50 33 26 25 24 24 26 27 25
73 78 92 81 82 81 99 94 100 70 67 57 89 68 83 72 80 74 79 62 56 54 53 60 79 57 58 50 51 61 58 86 92 100 95 72 57 46 33 30 34 32 31 40 36
75 95 80 83 82 91 100 100 87 52 61 65 66 65 61 69 72 70 74 54 52 56 55 49 64 74 62 73 75 72 83 73 76 91 98 99 71 37 36 35 37 34 31 34 39
84 89 76 81 92 95 100 100 89 70 63 54 46 53 58 66 69 63 66 53 46 45 60 50 71 97 80 62 58 62 70 69 86 78 91 94 69 33 33 35 35 33 34 32 38
94 92 73 80 98 100 93 78 74 83 66 56 56 47 50 56 63 54 56 44 48 45 61 54 78 93 81 71 58 69 64 63 63 76 84 91 65 31 36 36 38 52 59 61 46
89 97 89 96 92 88 87 91 83 68 61 55 50 45 50 51 50 58 68 50 48 54 55 50 74 80 86 79 79 86 75 67 71 97 78 76 65 51 47 50 57 61 64 69 66
95 92 77 95 88 84 87 81 68 68 56 53 53 48 51 58 57 65 65 60 52 58 53 61 88 92 80 75 77 77 76 73 84 78 97 68 71 65 62 69 68 64 63 65 73
95 96 87 94 70 77 68 71 70 66 70 59 56 54 63 70 65 64 63 66 67 64 62 66 98 96 98 76 81 91 78 72 72 71 78 81 83 64 64 73 68 64 66 69 68
88 89 96 88 67 66 65 70 64 64 62 62 54 60 80 76 68 63 56 56 55 69 71 81 96 98 96 74 85 93 79 70 78 80 82 97 77 64 75 85 94 93 87 82 73

GFSSW_925_rhum_024.txt.gz
RH
77 69 70 68 70 71 69 73 94 98 99 100 96 94 93 97 91 98 85 79 64 76 66 70 62 58 53 50 44 48 74 78 59 53 43 31 33 29 21 21 20 20 38 48 45
74 75 70 69 77 64 73 64 81 95 99 99 98 97 95 89 97 88 84 79 77 69 86 76 70 59 62 55 52 60 80 69 51 43 41 33 35 34 29 25 22 25 40 48 51
86 85 82 78 77 72 74 64 68 72 91 100 100 96 91 87 93 82 54 83 84 76 73 77 62 54 64 54 56 58 72 54 50 45 36 40 40 38 34 31 27 27 47 46 48
91 90 81 75 78 79 70 69 72 72 79 96 99 98 83 93 91 71 70 84 79 72 69 69 67 71 68 68 55 60 52 46 43 40 41 38 37 43 39 36 32 35 29 27 37
82 80 76 78 79 82 82 73 69 64 73 91 99 99 90 94 84 63 69 81 78 74 75 73 76 66 67 62 57 54 49 44 43 45 42 39 43 43 46 40 38 36 34 32 32
85 85 84 82 82 86 82 73 72 73 70 86 99 100 89 93 58 57 66 74 75 76 76 76 76 62 57 56 57 46 46 44 45 46 46 47 47 43 40 38 39 38 37 39 35
85 87 84 82 83 83 78 79 80 77 77 90 95 99 82 72 58 62 66 71 74 78 86 78 72 60 57 60 51 50 55 54 51 49 50 43 50 56 41 40 43 44 44 39 38
81 81 85 88 86 87 88 84 82 84 85 91 96 99 78 52 55 61 59 67 67 70 67 69 70 59 61 52 52 59 62 72 52 46 47 49 57 44 43 47 48 46 45 44 37
80 81 86 87 86 87 90 89 86 90 87 90 99 90 66 54 59 57 57 58 60 75 79 70 64 67 58 70 72 67 78 77 66 49 47 57 60 45 38 43 46 45 43 41 39
81 83 87 85 87 86 88 90 64 86 84 93 99 93 68 69 55 52 51 55 66 86 85 84 91 86 78 73 93 74 81 66 62 44 44 48 62 50 44 43 44 42 41 44 43
74 80 87 87 82 92 93 82 79 91 90 84 87 71 61 55 54 53 47 62 80 80 95 88 91 96 83 72 59 60 60 64 58 46 48 49 49 45 40 39 39 34 36 37 35
71 73 75 79 89 88 89 94 90 87 97 82 74 71 55 52 67 59 49 75 83 88 76 85 94 74 72 72 68 65 69 72 58 47 45 52 52 42 39 37 36 33 30 32 33
78 86 84 85 86 73 81 80 80 81 98 88 87 67 61 54 67 71 54 61 78 77 73 80 69 62 70 61 61 61 65 64 64 56 48 56 41 40 38 35 32 30 31 30 30
88 94 96 94 98 78 82 96 96 75 98 99 95 79 59 60 73 52 51 56 65 76 68 68 48 66 72 66 60 69 53 55 58 63 79 57 79 64 47 38 32 33 40 38 35
94 97 98 96 91 89 85 85 83 79 96 98 94 63 63 70 68 66 47 52 71 73 72 81 67 61 70 64 54 63 52 56 58 71 71 70 83 65 52 43 35 31 27 36 39
99 97 96 85 99 94 87 83 93 95 96 99 86 80 78 66 70 64 59 50 51 70 67 60 47 53 56 51 51 54 56 67 75 76 92 69 73 60 41 32 25 21 20 21 24
71 82 94 89 92 92 84 90 93 96 98 99 94 76 76 82 76 73 72 70 83 98 100 74 64 50 50 64 57 58 67 85 83 97 82 63 77 68 42 34 27 26 24 26 24
78 86 96 87 83 81 91 96 91 100 100 79 77 71 89 75 79 75 75 82 68 73 85 90 85 65 53 62 71 66 65 80 70 96 86 61 77 48 36 33 25 26 26 29 30
69 84 95 93 80 85 97 94 98 99 92 90 65 80 81 80 86 73 72 77 69 64 78 89 76 58 55 53 57 72 84 62 81 76 94 76 58 37 30 28 34 34 34 42 44
66 77 89 81 83 84 96 98 100 92 64 60 93 74 86 84 84 76 72 58 57 58 54 65 83 64 59 51 53 60 61 86 92 98 91 76 67 48 35 32 37 35 34 35 39
72 90 69 77 81 92 100 100 92 58 63 61 70 64 59 69 79 75 77 59 54 55 54 53 72 74 65 73 76 76 85 78 78 88 98 95 73 44 34 34 38 41 39 46 51
84 92 67 75 93 97 100 98 89 78 66 61 53 57 58 72 75 71 79 62 52 55 67 52 76 94 83 61 59 65 73 74 90 77 94 92 81 41 41 35 40 37 40 51 58
94 96 77 80 93 97 89 87 80 78 70 56 56 50 56 71 72 60 57 48 53 54 62 54 77 94 80 72 68 73 69 67 68 77 92 93 71 38 43 38 38 48 58 59 58
91 90 87 93 91 86 89 88 74 60 60 54 55 50 52 54 51 66 64 53 51 53 57 55 79 77 86 76 79 85 75 72 76 98 86 80 61 50 47 45 52 65 67 64 68
95 94 91 98 82 79 89 81 74 72 62 53 51 49 54 63 64 74 64 59 59 56 59 62 86 90 82 77 79 80 78 77 88 74 93 66 68 60 56 55 60 77 76 64 65
92 90 82 96 83 78 72 72 78 70 70 64 66 63 54 70 66 74 68 66 64 63 65 67 96 94 95 82 87 92 81 77 73 67 68 68 73 52 56 58 69 84 86 83 79
87 88 96 85 82 73 67 66 64 64 59 62 60 75 81 76 69 61 53 58 61 69 75 78 93 99 97 77 86 96 86 79 73 70 74 91 72 67 75 67 89 94 77 76 75

GFSSW_925_rhum_027.txt.gz
RH
91 86 85 82 78 76 75 73 67 73 86 94 99 100 97 94 84 89 89 80 71 77 78 72 73 67 56 55 50 54 75 81 54 50 41 33 34 29 26 26 22 21 49 46 50
88 90 90 88 83 81 78 67 77 65 75 79 92 95 98 84 90 80 77 83 82 74 85 74 73 63 69 60 56 63 84 72 53 48 42 38 40 41 34 34 24 27 44 58 56
83 84 88 85 84 82 81 84 67 66 72 79 84 99 100 85 89 72 64 78 81 80 83 81 64 61 67 59 59 64 74 57 52 46 41 42 43 38 39 39 29 30 40 48 64
79 83 83 79 79 88 87 84 78 68 65 70 82 95 99 86 89 65 68 81 84 80 77 78 70 70 74 72 58 62 57 51 48 42 42 41 38 42 41 40 35 38 37 32 40
83 85 86 87 84 86 85 83 80 72 72 73 74 92 99 95 80 59 73 80 84 83 85 78 78 72 73 68 59 59 53 48 45 46 46 41 45 46 47 42 39 37 37 38 36
81 82 83 84 81 84 84 80 75 75 77 75 80 96 99 90 53 48 56 84 85 81 79 73 75 62 62 58 67 52 52 48 45 45 46 48 50 47 42 42 43 40 40 40 38
82 84 81 83 86 88 84 84 80 79 79 78 83 100 98 73 56 62 63 73 84 80 85 69 68 60 60 62 51 52 57 54 54 50 51 46 53 61 44 42 44 43 45 43 40
79 77 79 86 86 86 88 86 84 86 83 81 87 100 92 68 50 64 73 73 69 74 71 70 69 65 60 53 56 64 63 73 52 50 48 47 58 46 45 47 49 48 46 48 46
80 83 84 86 86 87 87 86 84 86 86 83 90 98 81 55 59 49 62 74 80 81 72 72 71 71 58 72 74 69 84 77 64 49 50 58 66 46 42 43 47 46 45 46 43
82 78 79 83 83 88 91 88 82 89 81 88 93 92 84 71 53 56 55 66 74 90 88 82 88 87 81 82 86 80 75 71 66 46 52 54 62 50 46 49 51 51 48 45 41
86 74 73 76 80 90 78 77 77 79 89 81 88 83 75 62 53 61 53 68 84 89 94 90 98 94 85 74 62 63 66 67 58 49 50 54 54 47 41 42 45 45 41 38 35
78 81 89 86 88 89 78 91 85 81 89 70 78 82 60 58 67 68 54 79 90 94 89 96 95 81 72 78 74 69 73 75 62 52 49 56 56 45 40 37 35 35 33 32 34
84 92 96 93 97 85 80 79 79 81 95 69 81 85 63 57 71 72 58 67 91 86 79 90 79 86 83 88 84 69 71 67 66 58 51 60 53 43 36 37 35 34 33 31 33
99 97 85 94 97 88 87 84 82 84 93 97 90 78 60 63 76 54 52 59 75 84 72 70 57 84 84 76 63 74 54 57 60 64 78 60 81 64 44 44 40 37 36 40 38
91 93 86 90 90 85 84 89 90 83 95 99 94 74 62 68 70 65 51 54 75 81 71 86 64 79 82 69 54 64 53 57 61 72 68 68 81 65 44 39 31 29 27 28 34
97 97 92 88 91 89 89 90 88 96 97 99 93 88 78 71 72 67 62 50 58 73 61 62 49 53 56 56 52 55 58 67 78 75 90 65 72 58 39 32 32 32 32 29 30
98 82 85 84 95 85 83 87 94 95 98 100 93 76 72 80 78 75 71 74 88 98 99 77 66 52 54 64 57 57 66 80 71 90 76 66 78 58 44 39 34 35 32 37 42
86 72 74 79 75 81 85 88 94 98 100 87 74 74 89 76 78 78 75 81 68 76 99 94 94 64 52 61 70 64 63 77 54 86 83 67 79 48 38 33 30 32 34 40 43
70 82 91 92 83 86 94 96 97 99 88 88 68 93 100 83 87 94 78 77 69 63 79 82 78 59 55 56 57 74 84 62 82 80 93 74 58 38 33 36 36 37 38 40 42
67 77 81 84 86 87 92 97 99 93 67 65 94 79 85 92 88 90 69 59 59 59 56 68 86 65 60 52 59 61 64 84 92 70 85 69 73 53 36 35 39 38 45 44 43
70 84 67 72 81 93 99 99 86 62 66 60 78 68 74 78 79 73 76 59 53 59 54 58 72 75 65 73 79 76 87 82 79 84 89 95 63 52 37 36 41 46 40 43 56
82 88 65 71 92 98 100 98 84 85 69 66 55 56 67 71 74 71 76 65 54 58 64 55 78 96 79 63 61 66 75 77 85 77 96 94 80 47 45 40 42 40 47 53 64
90 93 67 78 95 88 84 91 87 76 65 58 56 51 59 68 72 65 65 50 57 58 64 58 79 92 85 73 70 72 72 69 70 79 90 92 73 41 46 41 41 45 49 66 67
90 91 90 92 91 84 95 87 76 62 61 53 56 54 59 61 56 71 63 60 56 55 57 56 75 76 84 74 82 88 78 74 77 99 87 83 71 47 45 45 45 49 74 74 74
94 96 95 98 85 84 88 81 76 82 67 51 53 54 55 68 67 75 65 61 60 63 62 60 85 89 80 75 77 78 74 80 88 76 87 63 67 54 48 47 49 63 77 76 73
91 87 81 92 92 82 75 73 77 72 70 65 56 54 52 65 62 78 68 65 63 62 66 68 96 90 93 80 88 92 82 81 78 74 74 70 74 50 49 64 68 82 82 74 75
90 85 91 83 88 77 70 69 67 67 61 66 65 77 79 75 68 56 53 56 56 70 76 76 92 94 97 79 88 94 86 80 79 73 70 84 63 63 73 70 80 90 74 76 72

GFSSW_925_rhum_030.txt.gz
RH
81 80 83 85 93 85 82 83 65 69 75 74 84 87 90 99 91 86 91 81 77 75 90 64 86 80 58 57 53 56 76 80 54 53 41 34 35 34 29 29 27 22 34 46 65
78 74 80 82 84 86 85 86 78 70 67 70 78 87 97 98 95 97 74 77 80 73 84 81 86 67 74 63 60 66 82 73 50 44 41 41 39 39 37 41 30 25 55 69 95
80 82 85 86 85 86 93 81 86 81 71 69 70 78 89 98 94 75 59 71 77 81 84 75 71 66 73 64 63 66 72 58 54 46 44 45 46 38 39 38 34 33 39 46 79
82 82 83 83 85 86 88 86 86 85 75 73 74 77 88 98 93 62 65 74 77 81 82 82 70 76 77 75 61 66 59 54 49 46 45 44 39 43 42 39 33 37 38 35 43
68 82 84 83 83 84 85 82 81 84 76 74 74 79 96 98 82 61 73 84 77 82 84 82 79 73 72 69 61 62 56 54 49 48 47 43 46 46 46 43 42 41 38 37 36
68 81 77 84 82 84 87 83 81 76 75 70 81 79 96 98 60 59 50 77 79 90 89 77 75 62 64 67 61 59 54 51 47 46 45 49 50 49 45 43 45 45 42 41 40
79 82 81 82 87 85 84 82 83 78 75 80 84 84 94 84 60 65 62 84 82 92 91 75 64 62 61 64 57 54 56 55 56 52 51 51 57 64 48 44 46 47 47 43 41
84 85 85 83 84 85 88 86 85 84 79 76 80 87 91 70 64 59 66 75 84 82 77 69 65 65 60 55 60 67 62 76 54 57 51 49 57 45 43 50 51 50 51 52 46
86 88 86 80 81 86 89 88 86 86 85 82 79 89 83 77 78 64 57 82 80 76 67 66 71 72 60 74 76 72 90 82 64 52 50 60 68 49 46 47 53 52 50 47 47
84 89 80 76 77 81 90 77 75 86 86 84 79 94 86 81 84 57 70 73 75 77 80 78 79 89 84 74 85 77 76 73 72 48 58 62 65 49 42 45 54 53 53 53 49
81 82 84 87 84 86 74 65 76 77 85 82 84 76 79 71 66 68 72 86 94 89 90 84 94 87 77 77 64 68 71 70 60 50 52 60 59 51 43 44 46 44 41 38 36
95 96 84 91 88 90 76 85 84 81 90 64 82 82 79 75 78 78 66 89 89 97 91 94 91 77 74 68 72 71 76 76 66 54 52 59 60 47 41 43 41 38 37 35 35
94 95 87 88 98 92 83 78 77 84 90 81 80 89 80 75 78 81 71 80 87 92 87 89 80 83 70 75 78 71 78 71 69 59 54 65 57 48 37 36 34 35 37 38 39
98 97 95 76 93 87 80 91 91 85 92 92 96 88 80 65 79 62 72 78 89 91 81 89 85 82 89 84 70 76 55 58 59 64 77 61 74 60 47 43 36 31 33 34 32
95 89 80 90 88 84 84 87 89 82 95 96 92 78 64 67 73 73 66 66 88 85 87 89 95 94 93 89 67 68 55 59 63 72 65 65 78 55 40 31 29 31 36 39 38
99 98 88 86 86 86 81 86 83 86 97 99 91 78 80 73 76 69 68 64 72 79 72 66 54 65 76 71 59 56 59 67 75 75 83 63 69 47 35 33 35 37 36 45 48
86 76 85 91 88 84 83 86 87 94 99 99 96 76 79 83 77 69 74 77 92 99 99 76 67 53 54 65 55 57 67 86 68 80 74 71 73 52 43 42 37 37 37 44 46
67 77 79 78 83 84 85 85 90 97 95 83 75 78 92 84 82 75 73 81 69 84 94 93 93 62 54 61 69 65 63 79 54 76 75 70 80 46 41 33 33 33 39 43 41
60 66 74 83 82 93 96 96 97 99 84 84 70 88 96 85 87 90 86 77 68 63 81 86 82 60 56 58 56 73 84 62 85 83 88 70 57 33 38 40 37 37 44 46 47
66 74 75 76 91 94 96 95 99 90 61 68 91 82 92 92 86 90 78 63 67 58 56 67 89 67 61 56 63 61 64 81 89 68 70 61 69 51 37 35 42 46 51 46 45
67 82 63 73 87 91 99 100 81 69 69 62 78 71 81 84 80 83 74 58 53 63 57 62 74 80 63 71 78 74 86 81 77 83 82 78 48 50 43 37 42 48 46 48 52
81 85 64 73 94 97 99 98 84 83 70 61 55 61 72 71 74 71 79 62 54 58 64 56 79 97 77 66 63 66 75 74 82 77 96 94 73 44 45 47 44 40 48 55 68
90 88 61 71 96 95 85 86 86 79 68 59 56 51 61 67 72 64 64 54 58 54 61 62 79 93 84 71 68 74 75 69 70 80 95 88 60 45 48 48 42 43 49 71 69
89 89 89 92 91 80 88 85 76 67 63 55 58 55 59 59 62 69 64 62 60 55 57 56 74 76 80 70 82 91 81 75 76 96 85 83 71 49 46 49 44 45 70 77 71
95 95 90 97 87 90 86 84 80 83 70 52 54 57 58 69 71 74 66 63 63 61 65 61 87 86 78 72 79 77 75 84 84 78 86 69 74 57 52 51 46 54 75 74 76
89 89 80 86 94 77 75 75 79 74 76 62 61 56 56 67 64 79 69 66 64 62 67 68 95 89 93 77 87 94 84 79 80 73 74 70 74 50 49 51 67 73 86 75 71
86 86 95 82 91 78 76 74 74 74 63 71 60 73 75 76 72 59 54 58 57 71 77 75 96 93 91 81 88 94 88 82 74 75 69 82 57 51 65 69 75 89 84 74 74

GFSSW_925_rhum_033.txt.gz
RH
84 84 86 80 84 86 83 81 90 77 70 72 71 80 87 90 91 98 88 80 75 89 93 64 90 89 59 58 55 55 62 66 57 49 40 35 34 34 31 30 28 24 34 54 69
76 82 84 82 85 83 91 92 82 78 78 74 73 73 78 90 95 98 82 76 78 78 81 75 91 73 71 64 60 60 67 63 46 41 39 40 39 38 36 39 32 29 36 86 98
76 76 81 85 87 84 90 88 83 80 86 80 76 75 78 88 94 84 75 79 76 81 76 79 80 68 75 66 65 67 61 55 51 42 42 45 46 39 39 38 35 35 38 60 91
83 73 82 83 84 86 88 84 82 80 84 81 77 74 79 87 92 78 81 80 76 78 83 78 73 77 80 75 62 67 60 54 48 50 48 49 42 42 42 37 32 39 37 35 69
85 82 85 78 83 83 83 85 81 77 84 79 71 76 79 89 83 63 76 74 78 77 85 77 80 74 74 68 62 62 60 53 49 49 47 44 46 43 44 40 38 40 39 37 34
87 88 87 86 84 86 85 82 80 82 84 75 79 73 82 97 74 74 79 64 76 84 85 75 71 62 65 65 62 58 53 51 48 47 45 50 49 48 44 41 41 43 40 37 37
87 87 91 84 89 84 86 83 82 83 83 74 78 70 78 72 76 74 77 66 75 87 81 76 57 60 60 69 57 56 62 55 54 51 49 50 51 60 44 41 41 40 41 39 38
84 86 88 75 90 87 88 90 86 84 86 78 77 77 78 59 68 83 66 74 80 87 80 74 59 62 59 56 62 66 61 74 55 57 50 41 48 43 43 48 47 44 44 46 42
91 92 89 90 83 82 82 89 88 84 83 85 76 79 89 74 77 66 64 85 90 89 79 74 64 72 62 73 80 73 81 80 62 57 54 55 64 49 46 46 45 44 43 44 42
87 92 92 87 83 79 82 82 73 84 86 84 78 89 79 82 80 61 61 83 83 93 79 75 82 88 82 77 80 88 79 77 64 51 60 65 68 53 42 42 45 42 40 41 42
94 94 96 73 82 82 82 65 71 74 86 76 75 78 79 81 74 75 76 85 75 81 96 86 91 84 71 66 64 67 72 70 63 53 54 60 60 51 43 45 44 40 37 34 34
91 95 97 80 84 88 80 82 83 83 86 62 69 75 85 79 81 86 93 84 89 93 86 89 89 73 70 67 65 69 74 74 64 54 52 58 55 45 42 43 42 40 38 37 36
96 97 89 75 91 89 84 84 78 78 89 76 73 89 80 79 82 90 91 90 83 88 75 76 77 70 69 77 77 76 77 75 69 58 54 60 55 45 38 36 34 30 31 32 33
98 96 85 74 89 83 79 93 88 82 94 96 89 86 76 73 89 73 95 91 95 94 87 87 84 77 76 78 68 82 59 61 60 64 72 59 61 48 44 32 32 38 40 40 38
92 94 90 79 76 87 88 93 86 82 95 98 92 89 75 72 83 78 85 64 84 92 94 96 93 95 84 81 65 75 57 61 63 69 63 63 63 41 35 32 33 36 41 43 43
66 70 69 75 86 100 90 87 78 82 97 99 91 86 85 76 84 85 83 75 76 83 73 82 79 87 92 86 77 56 58 65 70 69 76 60 61 39 33 34 34 36 37 41 42
67 62 59 67 89 82 82 86 87 94 96 98 93 77 81 84 84 75 89 91 94 99 100 94 67 58 82 87 63 57 70 88 68 80 74 70 70 45 39 40 38 35 35 40 43
62 63 70 68 72 82 96 91 88 99 98 83 80 78 93 87 84 73 73 83 70 80 97 91 96 66 55 64 78 66 68 79 61 57 58 70 73 40 42 38 34 34 38 43 44
62 61 65 78 85 91 93 91 96 96 79 76 68 78 87 86 84 83 81 78 67 64 80 84 90 61 61 59 59 70 81 58 83 82 78 56 51 34 36 39 38 36 43 44 44
65 67 68 73 87 90 94 98 99 88 62 66 84 76 92 91 88 84 78 65 69 59 58 68 96 69 63 57 62 61 64 78 83 72 60 49 55 38 38 34 39 43 44 44 47
66 75 61 74 85 92 99 100 85 75 68 62 78 76 85 89 85 91 77 59 58 63 58 62 74 82 64 70 76 73 80 77 71 75 66 56 36 43 40 37 41 44 43 46 56
81 83 62 70 90 94 100 96 84 81 69 57 55 65 74 73 76 73 75 64 53 56 64 61 79 95 79 67 63 65 72 65 72 74 88 82 53 41 44 46 45 44 44 52 70
91 86 57 71 90 95 84 79 85 79 73 58 55 53 61 67 72 64 64 56 57 54 64 61 77 93 82 71 70 75 75 67 68 77 97 75 44 44 47 44 42 46 49 68 74
88 84 88 92 91 81 85 83 79 72 68 55 57 57 57 62 66 70 65 67 58 52 60 56 71 73 72 67 81 91 82 71 73 88 78 75 60 46 43 48 47 49 56 74 69
95 92 87 98 89 89 88 85 80 79 70 53 56 56 59 70 72 73 68 67 62 63 64 62 86 86 75 67 80 77 77 82 84 75 79 61 71 53 50 51 50 49 78 75 70
93 85 70 80 93 87 75 78 78 75 78 63 60 59 59 67 62 77 70 68 68 63 67 69 95 89 92 77 85 92 82 79 78 71 72 70 71 47 46 53 65 78 84 78 73
81 87 89 78 92 86 79 79 73 76 68 73 64 71 73 74 73 64 58 61 60 73 77 74 94 92 87 76 85 94 88 80 76 76 68 82 61 52 54 63 73 85 83 79 77

GFSSW_925_rhum_036.txt.gz
RH
76 74 77 81 86 89 89 90 87 78 75 74 74 74 76 80 91 84 97 70 71 82 83 67 84 76 54 46 42 39 44 44 41 40 31 26 25 22 22 18 19 18 22 42 53
82 80 79 81 83 83 84 87 84 74 74 78 77 76 77 83 73 75 88 78 76 79 87 60 80 67 52 46 44 38 44 36 29 30 30 26 22 23 25 25 23 22 27 64 76
86 86 88 83 83 83 81 86 86 81 79 82 77 78 77 78 55 53 72 84 83 73 77 64 69 61 58 51 45 38 36 30 35 30 26 27 26 27 25 28 21 22 28 49 79
89 89 90 90 82 83 74 82 85 80 83 84 84 78 74 75 59 81 86 88 81 72 68 69 68 76 61 58 44 46 33 30 33 37 35 31 26 28 26 19 23 27 28 28 56
83 88 90 90 83 83 86 83 82 79 78 83 80 72 66 65 51 82 80 80 88 72 66 62 63 70 63 53 52 46 44 37 34 42 39 36 34 28 31 26 26 28 30 27 27
77 88 89 89 83 85 87 79 82 79 82 82 78 71 64 80 43 67 85 72 80 66 65 63 51 53 55 55 50 43 44 38 38 39 40 42 38 38 29 26 26 26 25 23 24
90 91 93 90 84 81 87 87 84 84 85 85 74 71 66 56 73 87 86 76 80 62 64 64 48 51 49 60 45 48 50 46 44 39 39 38 43 44 29 24 26 22 20 23 24
88 87 92 92 86 75 80 89 90 86 86 78 78 75 66 50 52 79 82 73 73 64 64 68 55 50 48 44 50 51 47 61 37 40 40 38 34 32 29 28 27 24 23 24 25
86 91 93 86 85 81 84 82 86 85 84 86 76 69 59 67 71 71 77 79 70 72 72 70 51 49 52 51 58 49 44 43 44 42 36 39 32 27 26 33 30 26 24 24 27
86 89 93 87 88 86 85 79 79 86 84 80 73 72 57 62 72 78 78 84 70 80 75 72 69 64 49 46 46 49 42 45 38 44 49 48 37 36 35 35 32 27 24 22 24
94 96 87 94 73 74 72 70 62 65 68 50 49 75 64 64 70 91 80 91 72 73 84 78 75 77 55 43 36 42 43 44 42 44 45 41 42 37 34 31 30 27 23 22 23
98 96 98 79 77 78 72 67 74 80 64 54 62 72 71 72 68 77 80 92 75 83 70 88 86 49 47 50 48 45 45 46 53 46 44 42 44 35 32 32 32 31 28 26 24
96 94 75 77 74 76 79 88 82 90 73 76 84 85 83 58 64 83 73 94 75 85 81 82 66 49 54 57 54 53 51 58 49 49 44 44 38 37 34 29 25 27 24 23 24
85 88 76 81 76 82 82 98 86 87 99 94 92 90 76 66 90 80 91 83 89 90 75 81 69 52 55 56 46 62 56 55 54 53 46 45 31 35 31 28 32 31 30 31 32
64 66 70 65 82 78 99 93 91 82 87 98 92 79 66 80 84 92 88 92 90 92 84 97 84 67 60 57 48 51 50 51 52 54 55 48 46 31 25 30 33 31 34 33 34
80 61 59 60 83 82 82 79 84 95 95 99 90 84 75 88 85 84 83 76 79 87 82 94 80 88 81 77 54 47 50 51 52 55 77 49 47 28 26 25 30 30 31 35 34
98 69 65 66 66 72 87 79 98 91 97 97 94 78 81 88 83 77 84 88 93 100 100 98 94 93 83 87 66 55 60 85 81 89 64 51 51 28 26 27 26 28 29 34 36
90 68 66 72 75 86 90 83 87 87 79 74 67 62 86 83 87 84 91 87 65 71 94 86 96 90 88 91 95 71 62 64 62 50 41 53 44 28 29 28 27 26 29 32 36
66 66 71 72 84 98 82 95 98 96 65 62 57 64 71 69 64 65 66 65 62 58 70 74 90 56 59 60 73 86 82 46 60 57 56 33 34 28 30 30 28 29 33 35 37
71 72 71 72 90 90 86 96 90 79 63 54 64 62 66 71 64 59 60 57 59 52 48 60 92 63 57 53 51 55 48 68 74 71 53 31 29 25 34 33 31 32 35 37 40
73 64 67 71 86 71 99 99 79 66 62 53 61 63 67 67 68 64 60 57 51 52 45 50 59 78 60 64 59 60 62 57 51 54 43 29 23 23 27 27 31 31 36 39 49
76 83 63 71 80 81 92 85 79 68 61 49 50 57 62 63 66 63 54 54 47 44 51 52 62 83 73 59 55 53 53 43 50 68 62 55 28 28 27 29 32 34 37 42 54
82 75 56 79 73 72 70 68 70 62 60 53 50 50 53 57 63 56 59 51 49 47 50 49 65 89 86 67 62 66 56 51 50 58 77 45 29 33 32 31 31 39 42 52 56
80 81 68 69 72 65 68 68 66 65 62 51 50 51 49 52 51 57 55 59 51 49 58 45 57 68 52 69 64 83 66 57 55 72 54 44 36 33 32 33 38 42 50 55 56
82 89 78 85 73 73 76 74 70 67 64 51 52 49 46 55 56 57 57 59 55 61 53 50 89 81 60 59 70 68 65 66 80 56 62 41 44 31 32 36 38 44 55 60 59
85 82 66 75 80 72 70 70 72 69 69 56 54 50 49 52 44 56 55 55 54 60 54 57 92 86 83 68 70 79 65 62 63 58 55 49 50 34 31 35 39 48 61 64 62
85 82 82 69 76 71 67 70 69 69 62 65 48 56 60 55 54 48 43 43 47 54 59 61 90 84 76 65 67 73 66 62 59 58 54 63 44 36 42 42 46 57 67 65 65

GFSSW_925_rhum_039.txt.gz
RH
90 83 87 85 85 80 82 84 75 84 77 78 81 76 76 79 83 89 81 82 66 64 83 49 72 74 56 46 35 34 57 59 42 31 26 21 24 18 16 15 14 12 17 35 48
85 89 88 87 87 85 80 82 83 72 70 78 80 79 78 79 61 56 73 79 70 69 69 44 65 63 56 47 42 45 50 43 28 24 27 24 24 18 22 18 15 16 22 42 53
84 84 84 89 88 86 84 85 82 72 68 80 85 82 79 66 53 36 49 76 81 74 78 43 54 59 54 40 42 38 40 31 25 26 25 25 23 17 22 20 16 16 18 34 48
77 75 85 87 89 86 85 79 72 76 78 75 81 72 76 58 47 37 62 81 86 72 69 55 44 66 53 49 39 40 30 24 23 28 30 28 21 22 22 17 15 17 23 24 40
90 91 91 89 87 88 87 83 83 82 78 81 85 80 63 56 43 72 88 87 90 70 56 53 44 54 56 42 36 43 29 26 26 34 32 24 23 21 20 19 22 23 25 24 23
88 87 91 95 88 90 84 68 68 81 80 83 81 81 57 63 35 61 76 74 91 73 53 43 39 44 46 42 39 38 33 33 28 36 35 33 26 24 22 19 22 22 22 21 20
76 85 91 92 90 82 81 71 82 86 85 84 75 62 55 50 42 82 73 73 74 78 44 40 36 44 42 55 36 39 39 38 32 34 35 34 34 33 24 21 23 20 19 19 18
84 86 89 87 81 78 77 84 86 87 86 82 83 63 61 42 42 56 93 75 71 73 43 42 41 38 43 40 46 48 43 50 37 38 34 37 37 26 24 24 24 19 18 16 16
92 92 92 83 84 81 84 83 84 85 84 85 69 62 49 49 45 45 78 79 73 72 44 57 60 45 44 50 56 47 47 45 37 34 36 41 35 24 22 23 23 20 18 17 17
93 95 96 90 78 74 78 68 73 74 79 73 61 62 44 48 51 70 81 87 84 58 71 80 75 57 51 44 52 43 46 31 34 41 37 39 38 24 24 23 24 20 18 17 17
97 97 93 68 66 69 74 65 63 64 53 49 53 53 61 46 70 77 74 90 62 75 81 87 80 72 49 34 26 24 35 28 26 36 41 39 31 26 24 26 25 22 19 18 16
95 89 86 95 72 68 65 55 73 81 59 44 55 60 65 69 78 73 83 94 67 87 50 93 92 45 35 31 30 35 32 33 33 34 40 28 33 28 27 25 23 21 21 20 19
95 88 77 71 74 66 72 78 82 78 96 77 78 84 70 81 84 89 81 87 63 73 65 75 74 43 44 41 42 35 37 34 40 44 38 40 36 33 25 28 26 24 22 20 20
97 91 67 71 74 68 74 91 92 89 100 99 94 78 72 81 90 81 87 92 83 68 61 76 57 49 54 51 36 39 34 41 50 47 36 36 21 30 31 27 27 26 25 25 27
97 95 69 63 67 65 80 88 82 80 93 97 92 71 61 68 78 86 89 83 89 92 90 94 80 59 51 45 34 45 44 46 49 50 50 44 42 28 26 30 30 28 29 30 30
100 87 72 73 72 70 88 84 79 97 95 98 79 76 72 67 79 83 86 74 86 84 80 89 80 71 52 55 39 43 47 48 49 51 74 44 36 28 26 24 28 29 28 30 29
100 99 81 76 62 82 89 74 99 88 89 91 83 79 80 84 88 86 88 94 98 100 100 96 97 89 76 63 49 46 52 75 77 88 60 41 48 26 20 18 23 25 26 29 31
99 76 80 72 77 88 81 88 90 86 68 64 59 70 90 85 86 83 87 95 86 81 100 99 98 97 86 75 70 57 52 69 62 59 49 44 45 27 20 21 22 22 26 29 31
73 72 72 73 89 93 87 94 98 97 58 54 48 63 67 60 79 73 59 79 74 60 89 88 98 92 91 81 64 86 85 43 49 38 44 34 28 29 25 26 24 25 30 32 34
82 60 58 78 93 88 75 89 87 62 51 46 53 51 55 54 56 55 50 50 54 45 43 53 90 67 76 80 83 88 51 72 70 76 45 33 24 22 31 28 27 30 32 34 36
72 57 72 79 93 67 94 97 62 54 51 47 49 50 46 52 49 48 49 51 44 44 38 43 54 74 57 70 75 82 94 62 50 50 54 29 24 19 26 29 31 29 33 36 42
72 85 76 80 72 56 70 63 69 53 48 42 43 47 44 46 49 47 45 46 41 39 43 46 57 77 69 53 48 48 47 46 54 65 48 51 35 21 24 26 28 32 35 37 48
69 57 68 74 67 62 56 54 56 52 48 45 43 44 45 48 54 49 47 45 43 42 43 41 64 85 78 60 54 60 51 46 42 52 71 50 34 23 25 28 28 37 39 44 48
64 83 53 51 52 50 50 50 55 57 52 46 43 42 43 46 41 51 52 51 45 43 55 39 48 67 56 72 53 72 56 51 55 73 50 39 32 31 30 28 35 38 43 46 49
60 72 70 78 57 58 60 57 55 56 55 46 48 44 40 46 44 45 46 53 49 60 46 45 90 78 50 49 61 64 57 55 72 59 57 36 29 29 26 30 34 35 42 50 52
80 90 68 59 66 61 65 58 59 56 58 50 51 43 40 42 38 44 44 45 47 50 48 50 86 79 85 56 58 68 56 51 56 53 49 41 40 27 25 26 33 38 49 55 55
64 65 80 59 61 59 53 58 60 61 55 54 44 43 48 44 45 38 34 34 38 47 50 54 85 89 71 56 60 70 58 53 50 47 46 52 39 32 38 37 40 45 55 57 58

GFSSW_925_rhum_042.txt.gz
RH
84 81 83 85 85 84 86 82 78 82 87 85 74 83 78 78 82 85 83 81 76 68 52 56 67 75 70 58 47 65 83 86 69 54 38 21 23 19 16 18 14 14 41 51 73
72 74 76 80 81 86 87 85 81 85 87 82 68 78 91 80 73 57 63 73 85 68 66 47 67 73 68 62 55 63 83 75 64 44 38 28 24 22 21 22 20 18 38 52 71
81 89 90 92 88 86 88 87 86 83 78 76 84 83 87 76 60 47 42 80 83 84 65 44 56 66 72 54 54 50 61 51 46 40 38 29 27 22 25 28 20 19 32 46 61
89 86 86 88 94 88 88 88 84 77 77 74 70 82 85 83 68 55 34 65 75 82 71 53 41 65 66 64 46 50 45 40 38 38 33 33 25 25 23 23 20 28 26 32 47
81 76 85 89 90 92 89 86 81 82 79 82 81 76 79 67 54 53 49 66 72 87 61 63 48 56 62 53 42 51 38 30 29 36 33 30 30 26 26 22 24 27 28 26 24
79 83 87 92 93 90 81 78 80 70 79 83 81 81 65 67 34 47 73 83 74 89 55 64 41 44 49 42 45 39 39 35 28 36 34 33 28 25 23 24 25 25 27 26 25
86 88 91 92 77 80 78 82 75 73 83 85 84 72 62 52 40 64 65 76 85 77 53 45 36 40 47 52 41 38 45 40 36 39 38 35 40 35 24 22 24 26 26 24 22
89 90 92 83 82 73 78 77 86 79 86 85 82 67 63 41 41 43 64 68 68 77 61 49 38 39 44 46 46 46 46 58 40 38 36 40 48 33 26 28 30 26 24 23 23
94 92 92 87 83 80 80 80 80 84 85 82 68 57 56 44 41 38 50 74 66 79 67 50 53 49 47 63 67 59 63 57 47 36 39 44 44 31 24 29 31 28 26 22 20
86 91 90 86 82 80 70 62 67 73 76 66 55 63 48 41 41 38 64 83 78 79 82 60 68 70 64 68 84 70 64 45 47 43 43 48 49 34 26 26 28 26 23 21 20
91 94 95 87 66 65 77 68 72 63 56 61 67 55 52 57 48 67 85 88 87 96 84 78 86 82 68 51 47 42 45 45 38 38 45 47 44 38 32 28 31 30 26 23 21
99 92 93 90 72 75 72 58 70 73 73 44 49 50 52 62 71 84 89 99 90 89 73 92 89 57 47 41 39 34 38 42 31 40 42 40 41 33 29 29 31 30 27 24 22
100 96 92 86 70 75 81 89 88 81 97 73 68 81 72 84 78 84 91 87 79 72 75 74 65 47 44 46 42 36 42 38 41 43 40 43 46 35 31 28 28 26 25 25 23
97 99 94 82 87 64 69 84 87 83 100 93 84 78 76 78 92 82 85 89 79 76 60 70 61 62 55 48 35 44 32 33 44 56 61 41 40 34 33 35 29 28 28 26 29
95 99 96 73 86 61 74 82 79 84 97 98 89 86 75 90 89 96 85 84 74 70 80 91 81 84 76 54 39 42 45 49 51 59 60 50 57 33 37 36 34 32 33 35 34
95 99 97 78 76 67 81 81 78 99 95 97 86 88 96 79 76 85 84 80 72 83 78 90 81 82 72 58 44 44 52 52 50 56 92 58 49 44 41 33 34 34 36 36 36
94 99 96 80 69 79 83 89 100 93 86 82 91 74 73 83 84 84 91 95 97 99 100 98 97 86 82 74 55 50 61 92 94 95 87 46 53 40 26 27 31 35 37 37 37
57 75 73 81 72 82 90 99 89 86 68 61 67 69 81 74 88 85 95 98 90 85 100 100 99 96 88 77 85 62 58 85 72 91 74 45 66 40 25 26 28 28 32 33 35
65 71 72 74 84 87 97 87 95 96 52 53 58 67 70 72 75 90 95 96 89 82 97 100 99 92 90 78 72 72 88 46 68 39 78 58 37 30 28 29 27 30 32 36 37
96 64 58 75 87 91 99 88 85 58 48 44 55 53 55 56 61 67 78 76 63 61 54 63 98 96 94 85 79 83 61 78 91 88 63 46 39 40 37 34 30 32 37 39 40
89 66 78 71 92 92 92 94 56 49 49 50 47 46 46 51 50 48 52 50 42 44 41 47 66 97 97 98 98 92 96 78 61 73 87 58 39 26 33 31 31 35 37 39 45
85 86 73 80 90 79 87 61 56 48 46 41 43 47 43 44 46 47 49 50 39 38 49 48 68 91 76 55 55 70 74 72 90 77 67 70 54 23 30 33 34 35 39 42 53
77 63 70 72 91 58 53 53 52 51 47 44 42 43 44 44 51 47 52 44 43 43 48 47 77 87 81 67 57 67 55 72 68 71 82 78 53 29 34 33 33 38 41 50 54
73 86 72 72 55 59 55 52 55 57 52 43 43 42 44 47 40 50 55 50 45 46 49 44 55 76 85 73 71 79 62 57 66 92 66 61 44 35 35 36 41 46 50 53 56
63 77 67 90 70 69 58 58 52 59 55 46 49 46 44 47 43 48 53 58 50 59 46 55 90 74 58 52 70 69 64 61 76 69 78 47 42 36 36 36 42 42 53 54 56
75 80 68 71 59 64 65 54 58 56 55 52 52 43 40 44 40 44 47 50 52 55 52 56 93 84 84 55 56 72 64 58 60 61 61 56 50 32 27 28 38 42 55 57 58
50 60 74 65 58 62 68 66 64 61 55 51 52 44 46 57 52 47 37 37 43 56 58 63 91 93 83 57 61 83 68 62 57 55 56 67 48 36 39 42 44 44 59 60 61

GFSSW_925_rhum_045.txt.gz
RH
80 83 87 89 90 87 84 89 89 86 86 86 88 89 80 80 81 86 85 77 71 69 60 52 46 71 78 77 73 84 91 86 72 66 55 38 45 20 20 21 21 36 58 79 73
87 85 82 87 86 94 88 88 92 86 84 87 89 90 84 87 82 76 73 75 84 74 60 60 74 78 88 77 74 91 86 76 53 50 56 58 41 28 22 23 24 58 83 79 70
78 77 76 82 85 90 82 90 91 86 85 83 75 81 79 78 81 65 45 64 80 81 61 57 68 85 78 70 77 74 73 59 49 43 54 65 46 33 27 26 24 47 84 83 83
76 84 85 85 89 91 93 82 86 83 84 84 75 81 88 76 94 42 59 55 76 86 78 63 71 94 85 76 60 60 52 52 50 53 76 71 43 38 28 26 33 28 59 73 79
91 84 85 88 90 93 84 88 84 76 74 84 72 72 79 86 79 41 54 52 81 85 80 74 72 84 77 72 56 62 48 44 44 49 64 72 58 37 28 32 32 31 31 45 65
88 84 89 92 90 79 80 82 81 70 81 83 83 78 84 86 47 61 57 55 76 78 74 70 48 61 66 63 59 52 51 45 37 41 36 38 36 33 25 28 32 31 29 27 26
92 88 90 90 89 83 80 82 72 70 84 85 84 77 70 68 49 48 65 80 75 71 78 66 53 56 53 57 48 42 56 48 54 43 41 34 39 42 30 26 29 28 29 28 25
83 86 89 88 82 85 79 84 84 76 83 84 69 76 78 42 42 42 55 76 76 86 70 59 55 50 56 52 48 52 52 67 50 46 40 35 50 40 32 29 30 30 30 29 27
89 91 92 91 89 84 75 73 78 83 86 76 76 74 75 44 44 38 41 66 88 92 87 61 55 53 50 72 76 60 76 66 52 42 43 44 53 39 33 33 34 34 33 30 27
98 92 93 92 89 66 70 65 70 75 71 76 63 67 57 57 56 44 51 55 90 88 90 76 77 74 70 84 87 83 68 58 59 48 45 52 54 41 32 34 38 34 30 28 26
98 96 92 79 93 78 68 69 78 74 61 59 59 72 55 53 53 61 60 78 80 84 91 84 82 77 70 70 62 59 59 53 50 42 51 52 54 43 41 29 33 33 31 29 25
94 97 88 67 69 73 59 74 84 84 85 55 56 60 53 56 78 75 72 90 90 92 86 92 87 68 63 55 58 56 60 57 41 43 49 55 55 46 41 38 33 33 33 31 26
91 95 99 65 67 68 58 81 79 82 96 80 71 80 75 74 79 80 83 87 77 91 84 76 72 58 60 63 59 54 47 47 48 46 42 45 50 44 37 33 33 32 32 27 25
93 94 98 88 79 66 72 72 79 83 98 93 84 82 84 82 84 81 92 93 90 92 69 74 69 61 60 61 53 59 37 39 55 59 67 45 69 37 36 35 35 35 31 28 36
94 94 94 90 66 74 73 73 78 83 94 90 91 83 86 89 82 92 92 86 83 84 68 94 82 82 71 66 48 48 46 55 57 64 62 54 66 52 38 45 38 35 33 37 42
93 99 99 86 78 73 72 81 78 89 96 99 92 90 93 89 84 82 82 73 74 80 83 90 78 86 87 71 58 49 56 59 62 71 91 66 65 54 50 38 37 36 44 44 46
81 100 99 79 79 79 80 87 94 92 78 91 82 82 79 87 87 80 87 92 93 98 99 94 95 84 82 80 68 55 62 95 94 96 90 54 67 52 36 34 35 44 44 43 45
52 84 65 70 74 77 84 95 88 82 76 71 72 74 82 75 85 87 95 97 86 90 96 94 100 96 90 85 89 76 61 87 87 98 84 50 74 50 30 30 34 37 41 45 47
70 79 85 74 79 83 95 91 89 93 56 67 68 75 77 77 83 92 94 89 86 84 90 98 99 91 87 84 80 92 96 60 70 56 83 65 48 33 32 38 35 41 42 44 48
84 84 79 80 83 89 98 89 90 65 56 51 67 57 62 72 83 95 96 81 86 71 69 81 99 96 91 91 81 78 66 81 94 100 70 64 49 50 41 38 37 40 41 45 52
92 86 83 81 86 97 93 91 71 52 52 54 57 51 50 54 56 68 70 76 67 70 59 62 78 99 96 99 97 87 95 79 73 84 89 63 50 32 36 35 35 40 40 49 58
92 93 78 90 99 90 95 76 62 53 48 49 46 50 54 47 50 52 64 55 46 50 61 51 78 99 87 76 75 75 82 74 91 80 76 82 57 29 36 34 33 38 44 50 63
99 87 76 81 94 79 58 62 58 55 51 50 46 45 46 49 54 57 60 47 47 52 53 55 80 97 98 72 77 98 83 77 76 76 81 77 56 36 38 39 39 46 48 60 62
97 95 82 92 82 68 66 59 65 57 57 45 47 44 46 49 41 58 64 52 47 50 47 47 72 76 83 73 77 85 77 73 84 96 74 73 44 42 41 40 40 44 56 63 63
92 83 80 95 82 78 71 62 58 68 58 49 51 49 52 52 46 56 62 61 52 53 48 60 80 68 61 65 72 71 71 69 96 70 81 59 47 40 38 40 43 56 63 65 64
90 91 82 85 75 76 71 76 74 67 61 60 56 52 48 59 54 51 60 60 61 59 55 66 92 83 80 61 67 73 70 68 67 62 66 65 65 38 35 37 49 59 63 65 64
70 73 90 80 67 73 72 72 70 68 61 60 60 61 49 64 58 50 44 47 52 65 67 74 88 92 88 64 66 79 73 66 63 61 59 71 51 40 39 39 54 64 64 66 66

GFSSW_925_rhum_048.txt.gz
RH
81 74 78 77 76 84 87 90 85 91 81 85 87 88 89 90 87 90 95 74 74 66 68 68 59 55 78 80 82 71 88 81 71 70 63 58 62 45 27 33 49 69 73 74 78
76 79 80 80 82 84 87 82 90 92 87 87 90 91 80 88 83 82 80 75 75 75 66 57 64 72 93 87 90 85 80 70 53 48 58 65 62 52 42 34 67 95 87 82 76
84 80 78 84 86 89 87 77 90 90 86 86 78 76 80 89 77 71 69 71 68 86 68 56 54 72 79 84 85 90 73 54 51 46 72 81 68 51 48 34 48 87 93 86 85
88 84 85 87 88 92 81 85 82 79 85 87 66 80 82 78 96 53 63 64 67 83 80 61 85 84 72 90 75 81 60 53 58 54 82 72 62 70 50 33 30 66 88 89 86
90 85 84 89 91 94 86 86 81 83 76 78 74 74 80 80 72 55 62 68 66 80 74 68 87 83 87 76 72 63 57 51 62 79 80 70 80 72 72 51 36 67 76 87 87
82 82 84 83 88 91 90 84 82 79 84 84 90 75 76 96 63 60 58 54 65 85 77 74 75 76 68 70 75 63 51 60 64 64 66 76 77 83 60 37 35 34 42 53 76
87 89 90 87 82 88 89 86 84 74 86 85 84 85 73 77 67 65 67 71 65 89 74 72 58 70 65 67 56 52 66 60 53 48 46 50 72 90 60 37 35 34 32 30 29
96 90 93 92 90 87 87 89 79 75 78 82 83 79 84 46 57 45 54 70 90 91 73 72 59 67 61 53 56 55 58 72 55 49 42 39 56 56 52 35 34 35 34 32 28
93 96 93 93 89 87 81 73 74 75 84 79 77 75 80 47 50 44 45 70 87 95 84 71 65 62 54 76 74 63 83 68 60 47 46 42 50 38 33 38 37 38 35 32 30
93 98 94 93 94 91 74 68 74 72 68 78 76 71 58 56 51 59 56 70 84 91 98 87 84 82 77 82 82 78 77 58 63 54 50 50 55 43 40 40 40 40 39 34 29
86 94 98 92 90 77 63 67 75 74 66 67 60 66 60 50 60 66 64 78 80 89 97 92 87 88 74 66 62 64 60 61 53 48 50 52 54 47 42 43 43 44 38 31 27
91 90 96 92 70 63 61 84 88 79 82 62 60 69 62 54 78 73 65 76 90 94 89 97 88 70 65 63 61 61 65 62 46 44 50 55 53 49 46 48 41 38 36 33 28
96 91 91 99 78 69 56 78 76 80 91 76 71 78 78 74 82 83 78 86 92 95 95 84 72 64 64 66 69 63 66 61 51 50 45 48 53 50 46 44 38 38 35 33 33
94 92 93 94 89 69 74 61 75 82 97 92 88 85 80 80 91 77 88 95 91 94 88 79 69 69 70 71 58 68 46 43 55 63 77 44 77 44 42 42 43 39 39 36 30
94 93 97 99 76 82 71 69 78 83 93 82 90 76 76 84 80 94 94 80 86 94 90 98 80 76 76 65 52 57 44 57 59 68 64 56 63 51 40 48 40 41 41 37 44
94 95 94 93 99 76 71 80 78 83 94 99 85 92 94 85 88 84 88 85 84 83 84 90 79 85 82 70 55 53 58 66 72 74 86 68 66 65 46 40 40 39 37 42 53
89 76 97 93 83 77 82 84 88 92 72 95 95 92 88 85 84 75 88 92 96 97 98 95 94 84 86 72 62 54 65 93 89 94 84 66 72 44 42 38 38 42 49 54 56
51 77 81 83 79 76 81 91 86 81 97 78 77 87 93 76 84 86 93 93 84 83 95 97 99 94 86 83 76 66 65 88 88 97 83 59 79 49 40 33 34 38 46 49 54
70 78 80 76 80 79 92 94 86 88 64 77 79 91 85 80 82 89 96 84 82 86 85 94 98 87 86 81 78 85 95 63 74 66 88 70 59 41 36 40 44 46 47 49 53
82 85 80 77 83 85 94 88 87 68 58 54 74 71 95 90 94 88 92 70 80 81 71 84 97 95 91 82 80 85 68 85 92 96 72 64 66 54 45 51 44 46 48 50 57
91 88 89 83 84 97 95 93 78 58 54 54 58 54 53 67 79 83 92 82 69 76 72 72 80 99 95 99 97 95 99 94 74 80 90 80 61 41 41 45 45 44 44 53 65
88 95 87 86 99 98 96 81 58 55 50 55 48 53 56 50 55 63 72 61 68 64 70 57 86 94 93 81 79 81 84 71 90 88 82 83 63 36 36 37 39 41 43 51 62
96 90 92 92 99 88 65 62 61 58 55 55 49 48 48 53 62 64 61 52 52 53 65 58 84 98 93 78 78 97 93 75 76 78 84 80 57 38 37 36 35 41 51 64 66
92 93 82 96 82 81 80 64 66 58 57 47 49 46 48 52 46 64 64 57 50 50 49 55 74 76 82 70 82 99 93 82 86 98 73 81 53 40 40 39 42 48 54 69 67
93 92 85 94 74 75 76 74 66 75 59 50 53 51 53 56 50 65 66 61 55 53 52 57 80 72 64 65 72 74 81 83 93 73 81 59 59 40 40 40 42 46 63 70 69
90 92 90 91 82 74 77 78 82 68 62 64 58 63 50 67 56 59 64 64 61 59 57 70 89 80 79 60 69 74 72 81 77 78 77 64 67 47 34 35 44 58 70 69 68
80 80 93 82 56 70 62 59 65 69 70 68 71 65 67 67 60 54 52 52 54 65 70 74 89 89 85 71 66 76 72 71 71 68 75 77 54 43 43 40 51 64 69 69 68

GFSSW_925_rhum_054.txt.gz
RH
83 80 86 83 82 86 86 88 88 86 80 73 76 79 88 88 91 94 92 87 78 82 74 73 80 77 84 92 85 73 90 74 68 60 61 62 59 61 54 56 55 89 98 96 85
76 78 76 73 84 88 89 88 89 84 79 81 78 75 78 74 82 94 81 85 84 76 81 88 90 78 88 92 91 89 83 77 52 44 44 66 65 66 62 64 44 56 52 82 100
82 80 85 78 83 86 86 85 84 84 85 86 84 64 71 79 81 67 63 78 87 76 78 83 73 74 79 95 94 90 83 62 51 44 55 71 63 61 67 63 62 72 62 54 96
92 83 85 82 80 87 86 83 82 82 83 85 74 71 81 84 91 76 76 75 85 79 74 85 76 79 80 92 89 89 74 61 52 49 64 69 59 65 67 64 64 56 52 55 84
94 92 82 87 85 86 88 86 82 84 86 88 74 78 78 84 85 67 73 62 79 78 77 88 79 81 86 83 86 82 72 61 66 62 59 59 69 72 79 62 59 52 50 79 91
91 91 94 84 87 87 90 89 86 87 86 86 92 74 79 90 63 65 66 62 70 76 83 85 72 66 73 70 76 68 64 65 68 66 68 68 78 71 50 47 53 52 55 61 93
75 83 78 99 88 90 89 89 89 86 89 85 84 86 90 74 68 68 63 65 76 70 75 85 74 64 71 80 67 68 68 86 88 78 84 64 80 90 60 53 63 64 60 47 55
91 77 89 90 94 93 94 92 89 86 85 87 84 84 90 60 68 66 60 63 67 74 65 75 81 67 70 68 78 84 81 87 86 83 73 61 79 60 67 82 74 64 57 48 37
87 89 86 87 96 95 95 94 89 89 87 84 86 80 81 69 77 61 59 72 70 74 68 74 81 71 68 82 89 78 94 86 94 80 89 69 76 61 77 84 74 55 53 52 39
93 84 88 84 93 98 94 68 69 73 66 73 82 88 62 57 55 63 70 75 77 84 88 97 90 78 86 85 90 89 89 80 82 85 85 79 56 59 74 70 60 48 50 55 44
93 79 82 86 91 97 78 66 71 67 66 75 68 70 62 53 64 68 65 87 84 76 92 96 94 90 84 75 62 76 70 78 61 60 69 88 72 50 73 67 58 46 50 49 44
91 79 82 89 93 95 72 70 78 73 86 65 70 72 66 63 79 77 68 81 85 93 93 97 94 71 74 64 63 69 74 73 54 57 68 64 70 52 51 63 56 47 51 44 41
91 92 85 89 92 91 62 70 76 79 88 76 73 79 77 80 82 85 69 77 88 96 97 95 77 68 72 71 71 68 75 68 68 60 51 62 65 58 47 47 45 43 45 42 42
88 90 89 90 92 82 75 66 75 71 92 84 89 82 82 78 87 77 76 77 89 97 96 88 69 72 79 74 66 73 59 57 66 69 86 54 91 62 52 49 49 45 42 46 44
89 89 89 86 93 83 74 69 72 73 91 80 88 77 74 82 81 83 77 76 89 96 97 96 78 83 80 69 56 62 54 55 62 73 65 60 76 65 48 59 45 39 43 47 48
93 97 96 89 89 81 74 79 78 81 90 96 83 88 92 89 89 86 88 84 80 92 93 92 82 77 75 63 54 60 62 67 73 74 92 72 76 68 53 43 37 36 40 40 48
96 97 99 91 88 79 81 83 87 88 69 89 87 87 89 87 86 87 93 96 100 100 100 92 92 87 76 74 58 55 68 97 94 96 92 70 77 53 42 37 34 32 30 36 46
93 99 98 90 81 79 80 83 92 81 81 75 84 87 89 81 88 92 92 100 89 93 98 99 99 92 87 73 75 63 63 88 86 97 82 70 85 62 41 39 38 36 37 38 48
84 98 94 86 81 85 89 96 83 81 74 87 84 89 88 82 83 83 90 96 82 79 85 95 99 87 87 81 72 80 77 56 80 76 90 76 66 45 40 39 40 40 43 51 64
83 86 95 84 85 88 98 91 88 69 64 69 94 88 100 88 86 82 89 78 80 80 66 77 96 83 87 80 82 73 69 81 91 89 88 72 69 58 41 40 38 42 51 58 72
85 92 91 87 89 98 98 92 79 67 61 58 63 68 89 98 77 86 84 77 71 85 68 75 73 98 85 93 93 90 96 85 77 82 86 82 69 50 43 37 40 43 52 62 71
82 97 86 89 100 97 98 87 64 59 55 57 50 55 60 84 90 96 86 79 70 75 73 70 82 92 88 81 78 79 86 81 91 87 92 88 65 41 40 44 44 50 54 60 66
93 96 93 97 97 91 82 69 64 63 60 58 55 54 51 57 73 69 66 67 74 64 70 70 88 98 96 82 84 91 86 79 80 85 93 91 73 37 37 38 43 50 55 64 77
89 93 83 97 93 84 86 87 68 62 60 53 55 51 52 57 66 72 69 62 56 57 70 60 81 77 84 70 85 96 79 76 87 98 83 77 66 50 45 38 37 46 56 71 78
92 93 87 95 86 80 81 83 86 86 68 61 61 74 60 59 63 74 69 63 60 70 76 70 94 78 69 62 84 89 87 86 96 82 88 62 64 53 46 42 37 42 56 73 78
74 72 89 82 73 76 64 86 78 73 82 79 82 81 60 73 71 66 68 66 63 60 71 71 92 79 82 68 83 85 83 89 83 81 84 81 84 59 47 44 40 44 58 70 72
90 90 87 67 66 69 53 55 65 72 74 71 81 78 76 86 86 70 66 59 57 67 75 73 90 88 80 76 71 84 76 80 81 82 72 85 63 58 59 58 50 46 49 60 65

GFSSW_925_rhum_057.txt.gz
RH
83 76 88 79 74 83 82 83 87 88 84 76 77 77 74 67 76 80 91 82 83 78 75 74 83 80 92 82 80 80 86 74 70 61 59 59 54 58 52 50 51 61 67 77 99
92 85 76 82 79 84 82 80 83 84 87 87 77 85 64 67 76 90 70 77 85 75 79 90 92 83 88 92 84 78 88 71 52 48 62 64 58 62 53 48 49 56 49 48 91
92 92 82 82 85 77 83 82 82 82 84 90 88 86 65 79 82 71 82 74 76 78 82 86 80 77 88 94 95 93 76 58 53 52 59 63 61 59 56 56 63 64 55 50 58
88 94 90 81 86 79 86 84 82 84 85 90 86 90 75 81 83 74 82 82 76 78 81 88 83 78 88 94 87 83 81 61 53 49 62 58 56 59 62 51 58 56 51 54 64
73 84 90 95 78 86 84 88 85 87 85 88 83 69 76 81 80 64 69 63 74 88 81 88 85 77 81 85 88 81 75 68 62 60 58 54 66 61 62 59 56 50 53 53 58
84 80 83 93 98 81 87 88 88 86 87 86 86 82 79 88 60 66 65 59 68 88 86 85 74 66 72 83 76 76 68 70 71 62 64 62 66 66 50 51 52 55 56 54 48
90 87 85 84 92 95 90 90 88 88 87 87 83 85 91 80 57 66 66 63 63 82 80 83 87 68 66 82 67 72 74 84 82 72 74 62 72 69 59 58 64 61 58 53 49
89 87 83 86 87 94 95 92 91 90 85 85 86 84 92 60 58 64 64 59 58 76 76 72 92 73 74 70 69 79 78 86 83 82 78 58 62 54 66 61 59 66 59 51 45
83 83 83 80 84 92 98 94 92 87 92 86 83 78 85 68 64 60 66 72 69 76 72 79 98 76 75 82 87 85 90 84 95 79 79 73 71 53 65 62 53 45 56 49 45
93 81 76 81 83 85 95 74 77 82 68 78 84 83 70 58 63 60 74 63 74 82 81 79 94 84 89 80 84 92 92 82 90 89 84 78 61 66 71 63 54 49 52 47 45
84 78 75 85 87 84 93 63 67 67 69 72 62 68 64 57 68 67 67 74 76 83 89 84 98 93 80 67 65 70 79 75 65 81 83 82 72 58 73 71 63 58 56 48 46
83 79 80 87 88 86 92 69 63 59 76 64 70 71 66 66 77 73 73 83 94 88 91 96 100 77 72 63 65 67 76 78 58 76 76 82 82 64 63 70 55 54 44 44 44
85 80 80 88 89 88 76 66 67 82 89 75 72 78 75 80 84 82 73 90 78 90 99 99 88 64 72 71 70 71 70 74 67 70 58 70 70 63 57 63 58 55 47 42 40
85 82 87 86 89 85 76 63 75 84 89 90 91 82 78 76 82 78 74 80 88 95 96 90 72 70 79 76 65 75 61 61 71 72 87 59 79 66 54 55 54 53 48 46 45
85 86 87 89 92 85 75 67 77 74 91 74 90 79 74 80 75 77 77 69 87 94 91 94 81 77 85 76 57 66 58 62 67 71 67 64 77 65 54 58 50 45 42 41 41
88 92 91 89 86 81 72 80 75 84 95 94 83 93 91 87 86 79 85 80 76 82 87 91 72 75 73 70 52 61 62 66 72 70 81 68 75 67 54 46 44 43 38 39 38
93 97 93 86 87 82 80 80 89 88 70 83 89 90 96 94 87 85 86 91 97 95 100 96 93 86 74 73 58 56 66 93 87 88 83 70 76 55 45 36 35 33 31 32 39
88 98 93 95 84 79 80 80 93 79 93 75 82 88 93 91 95 90 95 90 94 94 100 99 99 90 84 72 76 61 60 83 86 91 81 70 79 52 47 40 39 38 37 38 36
93 94 89 89 84 83 89 96 87 81 77 77 78 77 91 82 91 94 97 96 86 90 100 99 100 88 83 78 67 72 74 56 78 78 79 68 60 44 40 34 32 35 39 38 42
83 89 96 87 87 87 95 92 86 65 71 79 92 89 89 86 85 96 99 80 85 88 72 76 98 87 87 77 79 68 64 78 86 87 83 68 63 48 36 32 34 33 34 40 51
79 93 91 88 88 97 99 88 78 65 68 60 64 86 98 98 86 88 88 80 72 82 67 71 75 95 77 88 92 81 89 84 72 74 78 75 57 47 43 34 37 39 40 48 63
85 94 86 89 99 98 99 83 66 61 57 56 52 57 84 86 92 89 85 77 69 72 73 70 77 97 97 82 77 74 79 74 82 84 88 81 70 40 40 39 43 41 50 55 67
94 90 92 95 97 91 80 74 68 68 63 58 56 54 52 64 84 84 72 74 73 63 72 69 85 95 91 78 73 85 84 80 83 85 94 86 65 40 40 36 37 48 51 60 74
90 95 88 98 91 84 88 87 76 64 62 57 62 54 54 62 69 74 73 69 63 72 68 62 80 76 82 71 83 98 77 76 80 88 69 75 61 50 48 48 44 38 49 60 70
89 88 86 96 91 79 78 81 88 88 78 73 64 79 65 61 68 78 70 65 64 71 76 73 91 79 67 68 86 85 86 80 83 72 85 62 66 53 50 50 46 39 44 63 72
74 85 90 78 67 76 65 78 79 73 82 80 80 81 74 82 82 72 70 66 65 64 78 70 92 78 81 69 78 85 82 88 78 71 73 71 75 54 54 60 55 47 43 59 66
92 92 72 72 64 71 55 57 100 85 74 78 84 75 89 94 90 87 74 64 61 70 79 75 87 87 79 77 68 68 69 78 84 83 78 86 65 54 58 61 62 60 54 47 56

GFSSW_925_rhum_060.txt.gz
RH
92 93 83 84 85 77 86 76 81 82 85 89 90 82 80 71 76 77 68 56 80 84 80 63 65 68 74 86 60 43 64 61 50 37 45 46 45 48 41 42 43 43 45 45 93
86 92 90 81 84 77 84 78 80 81 84 88 88 85 65 61 72 61 63 72 73 82 85 65 60 63 66 81 74 65 73 54 37 34 46 51 40 45 41 40 45 39 36 50 98
75 84 91 86 81 84 85 80 82 83 85 88 84 90 66 77 66 49 81 84 71 81 97 81 64 63 59 63 92 60 69 43 36 44 42 47 50 47 38 43 41 45 40 37 59
85 78 83 90 89 83 81 86 86 86 84 86 83 87 86 81 67 68 78 82 82 75 88 88 78 75 53 81 81 73 48 42 38 44 45 45 46 49 45 40 43 42 40 37 43
89 87 85 84 95 87 81 84 89 85 87 85 87 82 74 63 53 65 70 65 72 72 88 92 81 62 49 52 63 80 53 50 38 45 43 41 48 45 44 35 42 40 40 37 37
93 90 86 86 86 95 86 91 87 86 86 88 84 74 66 64 58 59 67 65 64 86 80 97 74 51 42 46 64 56 59 57 51 56 45 48 43 54 34 36 41 41 39 38 38
92 88 87 90 84 88 96 91 90 89 86 86 84 81 69 48 54 63 71 67 65 73 77 92 86 55 41 50 41 47 62 62 72 59 58 47 56 55 32 34 42 39 36 39 37
95 93 90 91 83 84 94 99 92 93 90 85 86 78 62 60 61 66 64 67 68 78 82 94 92 65 43 44 51 51 54 72 61 62 55 65 56 40 34 44 40 35 34 37 36
95 91 85 89 79 84 92 98 95 92 91 90 80 71 57 69 57 59 62 63 66 74 87 95 90 64 60 53 59 58 49 52 61 52 58 57 45 41 43 48 39 34 29 29 31
94 86 77 89 82 84 88 89 73 80 77 79 74 77 54 50 59 65 63 72 59 78 76 83 89 73 57 53 61 54 45 42 51 66 58 62 56 43 46 44 32 30 28 27 31
90 80 78 88 78 85 89 69 62 64 68 54 52 56 51 60 73 64 63 58 68 80 94 90 100 90 52 42 33 35 43 48 43 59 65 63 61 53 42 52 43 33 29 28 31
78 83 80 85 83 90 90 56 57 62 66 57 56 59 59 64 79 61 72 65 85 97 80 91 98 85 50 48 47 44 44 46 52 60 60 56 60 50 43 48 49 38 29 28 30
80 80 78 84 86 90 83 64 70 77 72 72 71 69 64 73 70 77 81 76 89 93 69 78 85 83 57 50 52 46 46 55 49 70 58 57 58 52 47 42 42 40 31 25 28
80 79 84 83 89 89 71 65 74 70 90 79 84 75 72 69 74 76 91 82 89 88 73 88 83 88 63 50 45 64 44 51 64 55 51 48 36 34 36 44 44 40 38 34 35
81 86 90 85 88 76 80 69 75 75 84 77 88 76 67 68 69 81 85 69 75 86 90 92 96 89 65 53 40 55 48 47 51 41 45 51 47 27 35 36 34 34 33 35 34
89 90 88 88 88 83 70 79 76 91 92 95 82 87 79 74 71 65 76 61 58 70 90 89 75 59 54 57 48 48 50 49 47 45 64 40 45 32 31 30 26 29 30 31 30
91 95 89 90 73 80 78 75 94 84 72 76 85 95 94 86 73 72 69 76 81 92 99 92 75 69 61 59 50 45 47 72 69 78 57 52 54 30 31 29 27 26 24 25 26
95 93 92 93 83 81 84 72 90 78 82 66 69 86 87 89 83 82 78 83 83 78 80 98 100 75 63 49 59 54 40 53 60 55 45 54 52 31 29 29 27 26 24 24 25
98 94 94 90 85 84 77 88 91 78 72 65 66 67 97 94 92 94 86 80 79 82 76 100 97 82 69 61 48 59 65 42 57 55 56 38 41 31 26 28 24 22 22 22 24
90 88 88 86 87 88 83 89 92 61 67 76 77 90 80 97 98 92 89 78 79 73 65 68 99 79 72 62 58 52 45 60 70 75 56 42 40 25 28 26 24 23 24 25 26
86 74 86 89 89 92 93 96 79 57 60 57 76 97 81 88 76 83 92 84 75 80 65 58 64 97 68 74 78 63 63 60 49 54 56 43 29 26 27 26 27 26 28 33 34
82 84 90 89 94 93 92 79 68 58 54 53 64 66 81 76 76 74 83 87 74 66 76 58 66 97 99 72 62 54 53 48 57 70 60 55 42 27 27 28 29 30 31 35 43
78 82 90 96 86 82 74 70 66 62 57 53 59 52 49 64 78 78 66 65 72 58 60 53 67 94 97 71 65 74 62 51 54 63 72 62 40 31 29 29 30 34 32 32 46
71 91 87 94 82 76 79 76 68 63 60 54 55 49 50 57 57 69 76 63 62 64 65 52 60 65 58 64 56 68 61 63 61 82 60 54 45 33 31 32 31 32 32 30 36
61 69 73 91 71 70 74 70 78 74 64 58 58 60 53 57 60 68 71 70 64 64 62 57 88 76 56 64 71 70 62 59 76 61 70 52 48 38 35 37 38 36 36 36 35
51 61 65 57 58 68 68 71 76 72 73 66 66 68 56 63 68 63 61 62 78 63 68 60 88 71 77 61 64 70 61 61 60 57 55 53 56 41 39 38 39 37 36 38 38
88 83 47 61 61 62 58 68 94 81 70 73 78 66 71 77 71 71 62 53 52 66 71 68 78 81 75 62 59 64 54 54 56 58 56 63 48 39 44 43 44 42 40 40 39

GFSSW_925_rhum_063.txt.gz
RH
78 88 97 85 82 85 81 78 79 81 83 87 87 86 86 75 66 68 59 54 69 63 83 74 58 64 55 68 61 42 77 58 42 32 32 34 40 41 35 36 39 38 40 43 85
84 79 80 93 85 81 79 81 82 82 83 87 86 88 90 75 61 56 55 65 70 70 81 68 53 58 54 68 69 76 83 63 37 27 36 38 32 40 38 40 38 36 39 72 90
85 88 82 81 94 82 82 86 87 84 84 84 82 88 89 70 58 47 72 73 82 72 78 97 62 55 54 52 79 62 64 49 36 39 36 41 39 35 36 43 37 40 36 46 82
89 90 85 85 83 96 80 80 88 86 88 84 85 82 67 65 70 59 77 76 75 77 82 86 74 71 58 59 66 76 46 40 50 44 39 42 39 39 35 38 36 34 33 34 55
90 94 88 89 86 86 96 80 88 86 86 87 85 85 63 49 42 56 60 60 60 92 84 80 85 79 59 42 62 68 56 39 43 43 38 40 43 38 38 34 36 36 34 32 38
89 93 90 89 86 85 86 98 88 88 86 85 85 70 53 53 44 46 53 56 54 73 80 86 82 58 43 33 54 55 74 57 48 52 42 47 45 41 34 30 34 35 34 32 33
90 92 94 90 92 86 85 87 96 88 90 85 84 68 54 48 42 49 56 57 51 66 69 86 86 97 45 33 30 46 76 78 52 62 40 43 56 56 35 26 34 34 31 33 31
90 96 95 88 88 91 82 88 95 94 91 88 82 60 55 46 50 51 52 54 58 68 69 93 95 93 80 28 36 51 62 97 56 57 48 48 52 43 36 34 32 32 30 28 30
93 91 92 86 92 90 81 90 96 94 91 90 75 57 49 55 51 49 53 50 55 73 86 94 87 90 51 47 55 56 58 91 78 48 47 51 48 37 45 38 38 32 29 26 26
87 89 89 83 92 81 80 92 81 80 74 64 56 66 49 41 46 61 57 62 57 69 91 94 90 95 57 55 66 50 42 40 65 55 51 54 46 42 36 36 35 31 28 26 24
82 78 80 85 87 82 84 75 67 66 58 50 44 46 41 49 58 58 53 55 63 79 96 92 100 93 50 39 26 28 31 27 34 43 54 62 60 51 33 37 38 29 26 25 23
92 82 80 90 79 81 86 61 47 63 60 47 50 49 49 62 69 55 62 66 84 96 89 94 100 66 43 32 32 27 33 35 31 52 50 49 54 40 35 36 35 33 30 25 22
81 82 79 75 92 84 80 54 69 67 65 59 60 60 55 65 75 69 67 70 92 97 79 83 92 72 56 43 38 30 35 41 46 44 49 42 42 40 37 35 32 34 32 26 22
81 84 80 81 86 74 63 65 77 69 91 71 77 66 60 63 84 84 82 75 95 91 62 68 77 75 83 42 35 42 29 30 37 54 54 41 40 34 31 34 38 35 33 32 28
87 91 85 78 77 66 71 75 77 66 90 71 81 63 57 64 81 83 71 72 70 74 57 82 79 96 89 41 31 40 32 39 48 48 34 47 44 24 21 29 31 32 31 30 31
89 90 84 79 83 74 79 80 73 90 88 81 70 72 59 61 71 74 69 53 54 74 77 82 67 85 66 41 37 40 46 46 44 38 60 38 35 24 24 24 19 20 22 24 25
89 91 88 78 64 82 79 70 97 85 62 68 95 91 86 61 60 62 63 66 78 95 99 96 95 86 62 54 45 37 45 64 62 70 57 37 34 26 24 23 22 22 22 21 21
92 88 86 88 88 85 76 76 90 71 64 53 71 88 87 80 75 61 66 74 71 59 100 100 100 60 49 44 52 41 34 48 54 51 41 41 45 27 21 20 22 21 20 20 20
90 87 82 88 91 86 84 99 88 68 63 56 57 93 100 94 72 83 76 64 53 63 91 100 95 67 56 48 43 52 61 38 47 37 40 36 28 25 24 24 22 20 19 19 18
76 71 73 90 92 82 96 78 77 59 63 62 67 88 99 94 89 96 77 71 69 61 55 80 100 74 62 52 48 48 37 50 59 65 42 36 30 23 24 24 22 23 26 26 26
74 68 86 90 88 84 92 92 69 52 54 53 69 86 84 98 76 70 85 81 66 65 54 52 71 97 60 65 61 56 58 50 43 48 53 34 26 22 22 24 25 26 28 29 30
68 80 87 90 89 79 78 72 68 52 48 49 57 59 70 67 69 64 90 85 61 57 59 51 70 94 95 65 56 45 44 41 51 63 45 49 38 21 22 24 25 27 28 26 28
63 67 87 86 82 72 65 64 60 54 50 48 54 50 44 55 71 61 69 66 66 59 64 53 78 93 93 65 58 62 49 45 41 56 64 55 34 24 26 26 26 29 26 27 27
62 83 77 78 66 65 62 62 62 56 51 47 47 44 45 49 49 61 72 74 62 56 61 50 54 62 64 57 48 63 50 47 49 76 54 46 37 29 26 26 25 25 29 29 29
54 51 58 85 62 53 62 56 60 60 52 47 47 49 46 52 52 62 67 69 62 61 56 52 80 74 50 56 61 59 50 47 66 59 64 44 40 33 31 32 33 31 29 30 31
43 51 57 55 52 55 65 59 60 65 60 55 53 51 45 53 59 57 62 60 59 56 58 51 86 68 81 54 56 63 52 50 49 48 50 46 46 32 31 30 32 32 33 35 33
57 54 42 55 52 52 49 59 68 69 65 62 60 51 61 68 57 54 49 44 48 59 58 60 71 86 73 52 51 55 44 45 47 45 47 54 39 34 41 42 45 44 42 39 37

GFSSW_925_rhum_066.txt.gz
RH
89 88 80 78 93 86 79 82 80 81 83 85 86 85 87 87 59 72 64 53 55 58 69 72 68 60 67 68 70 60 80 67 56 45 35 38 44 41 37 42 41 41 53 78 93
88 85 87 86 82 90 86 82 86 84 83 82 83 82 88 81 70 51 46 51 70 68 74 71 70 56 79 66 77 81 82 67 45 38 44 39 39 43 42 45 45 55 70 82 94
90 89 92 85 86 83 93 84 81 91 85 85 83 81 80 68 60 52 67 65 70 73 73 82 78 62 80 66 77 73 73 62 49 52 40 40 39 36 44 48 42 46 62 80 94
89 90 95 90 85 85 85 93 77 84 87 85 84 85 77 75 70 61 70 68 67 71 83 88 73 85 79 80 66 86 59 48 54 55 45 42 38 40 43 47 38 37 39 68 86
90 88 93 93 91 90 84 84 96 86 85 85 84 84 69 54 44 57 48 52 57 65 87 85 84 81 79 65 58 84 56 49 50 65 45 40 45 43 46 43 39 36 34 42 64
94 90 95 95 91 91 90 81 86 98 87 88 83 82 69 61 38 40 49 52 50 70 90 86 77 72 62 60 58 65 63 51 65 70 68 46 46 43 38 35 38 38 36 36 42
93 91 95 94 92 86 92 78 86 91 91 89 84 75 60 54 38 40 46 50 51 51 76 86 74 89 83 58 40 58 75 77 74 77 55 43 51 54 40 34 36 40 37 36 36
94 93 93 94 91 91 82 78 85 92 97 90 86 73 64 41 45 45 43 47 53 61 68 87 84 90 93 53 40 59 70 90 64 77 77 54 72 48 37 38 43 38 37 35 36
96 94 91 87 86 81 80 79 86 94 91 89 84 71 57 49 49 43 49 49 47 66 82 82 93 85 83 89 54 63 89 83 77 69 84 74 62 45 41 52 47 41 35 34 32
94 87 80 86 87 82 78 83 90 79 78 68 57 60 52 43 47 55 56 55 53 70 84 83 92 92 91 84 77 65 79 81 77 73 91 80 57 51 49 49 49 40 35 34 33
91 83 74 82 88 76 72 88 77 75 63 57 49 48 40 42 52 57 53 59 65 71 96 92 100 98 92 72 42 48 53 92 79 71 88 75 59 44 46 50 50 41 37 35 33
93 82 80 78 78 83 75 79 54 63 71 49 45 48 45 69 70 50 58 67 78 89 93 99 99 83 86 68 39 39 44 48 66 62 67 58 63 53 46 47 41 42 38 32 30
87 82 87 78 80 79 79 74 63 64 75 58 55 58 52 66 77 68 60 70 84 96 94 93 93 86 84 56 40 33 35 48 76 68 85 59 64 54 46 44 36 37 37 33 32
87 88 79 76 86 76 65 61 71 67 99 78 73 64 57 66 85 76 75 79 92 98 94 85 86 87 76 76 39 43 31 44 54 62 75 50 59 51 41 41 40 42 40 39 36
90 87 84 79 82 67 70 70 74 69 99 65 78 58 57 66 73 83 67 82 97 90 76 94 96 85 69 39 29 39 31 43 51 54 46 58 61 37 34 40 44 43 40 39 38
90 87 86 81 79 75 75 75 74 98 84 80 65 68 60 59 68 70 74 86 57 70 75 85 80 84 88 46 40 40 45 50 52 57 82 49 53 41 35 32 29 39 40 36 37
84 88 88 72 79 78 75 76 100 96 58 72 81 78 71 83 68 58 63 77 78 93 98 92 95 76 79 57 48 48 55 86 87 88 76 42 48 38 29 24 25 27 28 26 28
84 86 80 79 82 79 75 95 89 62 64 55 70 82 80 72 58 54 60 76 63 77 100 100 97 88 60 49 57 59 48 77 63 81 65 40 52 37 28 25 25 24 21 21 22
83 86 80 84 84 82 92 100 91 70 56 55 94 100 94 76 64 74 67 71 58 63 100 94 100 85 59 49 54 52 70 43 60 37 73 54 35 28 29 28 26 24 28 34 32
86 76 71 86 86 84 99 85 72 58 61 57 69 82 97 81 77 82 68 65 62 55 56 74 96 72 61 54 50 61 44 62 84 70 50 43 37 39 36 29 29 34 38 37 36
86 78 86 87 87 93 100 93 66 50 51 58 66 76 95 94 81 67 76 76 58 59 58 68 69 91 67 66 62 62 82 55 53 69 84 57 44 27 30 31 35 38 34 34 37
70 89 84 84 98 81 93 66 62 50 47 50 54 62 74 74 68 72 83 78 58 55 59 56 82 98 90 68 56 63 48 48 76 73 64 68 54 23 32 31 26 34 29 32 34
73 80 80 82 84 77 63 62 57 50 49 47 54 49 44 58 72 70 74 68 55 57 61 53 84 97 98 71 57 71 56 48 48 69 82 81 50 30 31 30 29 31 33 36 34
72 85 84 81 68 75 59 59 62 55 50 45 46 44 46 52 49 67 74 70 62 56 58 55 69 80 90 71 66 74 58 52 59 91 68 64 47 35 32 33 34 37 37 35 35
71 71 64 87 73 63 58 53 53 60 50 45 48 48 46 54 58 70 67 74 68 66 61 60 79 74 54 58 68 60 58 55 69 66 72 59 53 41 39 39 38 38 38 40 40
63 64 64 55 51 58 63 61 52 63 64 52 53 48 45 60 61 62 62 64 68 62 61 58 93 74 82 53 55 64 56 54 52 56 54 52 55 41 40 46 47 49 50 50 47
52 49 55 60 58 57 57 57 61 62 63 59 57 56 67 67 58 53 49 45 51 61 65 64 82 90 82 53 53 69 58 55 53 49 49 62 48 45 54 55 57 57 52 49 48

GFSSW_925_rhum_069.txt.gz
RH
92 88 89 87 84 82 87 89 84 86 84 83 82 82 83 87 82 65 77 57 60 63 66 64 68 69 60 79 73 75 89 78 68 62 51 41 44 43 38 48 57 58 70 81 75
89 91 90 94 87 82 84 88 85 81 91 86 85 83 82 83 79 78 55 54 58 67 65 72 78 80 80 84 82 92 84 72 50 55 56 45 44 45 49 52 77 94 90 96 92
92 88 89 94 93 86 80 84 92 80 84 88 85 84 85 80 80 61 71 56 68 60 70 69 72 82 83 80 84 82 79 65 56 59 54 51 44 42 54 55 51 94 94 93 96
95 94 90 96 96 92 90 83 81 93 87 86 86 84 82 68 92 64 63 59 66 70 66 75 86 90 81 88 78 96 68 53 64 58 61 50 44 44 53 49 45 70 85 89 92
95 96 92 96 96 91 89 90 81 85 95 89 88 84 75 74 70 54 53 51 53 63 72 81 90 83 77 73 74 83 73 58 50 61 70 62 48 52 55 47 41 41 77 88 85
94 95 94 96 96 93 88 89 77 83 90 92 92 84 84 90 44 45 47 50 51 59 83 94 76 83 84 78 75 68 70 66 68 66 78 79 57 50 53 48 45 40 50 73 81
93 96 96 95 95 89 86 87 80 81 90 97 88 85 76 83 41 44 43 44 51 53 74 87 78 90 84 74 57 61 83 77 80 72 75 84 75 57 53 45 47 43 42 46 49
94 97 95 90 85 80 72 78 81 80 91 95 89 84 87 45 46 42 41 47 49 54 67 79 88 85 87 77 64 70 72 91 86 87 81 76 80 61 56 45 47 48 45 43 43
96 93 80 81 82 79 76 82 83 86 94 91 85 83 78 47 49 47 47 49 50 60 78 82 87 91 92 92 86 80 85 83 90 82 83 88 83 55 54 46 49 50 45 42 42
95 90 78 76 74 75 74 79 84 92 72 80 78 79 57 49 51 53 55 56 58 76 85 85 88 96 97 95 96 83 85 74 89 84 81 83 84 64 47 56 54 51 47 43 38
95 90 79 77 76 80 77 74 84 88 78 71 66 64 50 58 51 56 55 60 70 78 87 88 99 98 97 90 83 56 64 84 68 71 75 87 83 67 59 60 63 60 50 45 38
95 90 80 78 83 77 77 91 65 66 87 65 57 52 48 72 76 56 59 78 84 89 90 99 96 81 76 79 79 57 84 86 77 75 70 80 82 73 58 58 62 60 55 45 40
96 92 82 75 77 77 79 78 67 66 88 62 55 61 59 70 77 79 73 72 86 96 94 98 84 78 87 88 86 63 71 79 76 74 75 81 90 88 59 51 48 48 45 42 38
92 92 85 76 83 74 79 66 65 68 96 78 78 67 62 77 83 71 74 78 87 95 100 98 86 84 84 85 66 62 43 55 73 89 100 83 91 71 54 53 51 47 48 46 42
91 90 86 76 81 76 71 67 70 72 88 69 79 59 59 73 71 82 84 85 90 93 96 97 96 89 86 70 58 50 48 63 76 87 65 75 71 48 53 59 54 50 49 48 42
91 82 85 81 75 79 71 68 75 92 83 83 69 73 69 71 79 76 87 90 85 78 81 88 90 89 84 76 42 55 56 62 66 65 85 63 61 52 55 50 48 47 49 46 44
82 83 80 75 82 77 73 82 98 93 60 80 75 81 81 84 74 74 80 81 85 90 99 97 93 78 81 63 56 53 63 95 88 84 76 45 54 53 33 33 35 47 36 37 40
81 81 76 76 79 75 77 98 80 58 70 69 76 79 78 74 61 57 65 81 70 82 94 97 92 93 73 58 61 54 52 79 82 92 70 46 53 38 31 32 28 28 30 32 32
83 85 83 83 77 80 95 89 86 78 58 78 95 95 87 78 73 76 71 74 64 77 95 99 100 82 71 60 54 57 74 46 61 53 81 59 42 32 32 32 37 39 42 44 43
87 84 81 80 80 84 98 88 76 60 63 66 88 90 89 68 82 92 78 72 69 65 74 79 97 83 64 54 54 58 48 63 83 65 59 62 46 45 38 41 43 45 45 43 43
83 93 85 78 87 97 93 85 69 53 56 61 72 88 77 85 85 78 81 74 62 60 62 72 75 82 69 84 76 70 73 61 64 77 83 60 50 32 38 43 48 43 40 42 42
86 96 86 86 98 94 96 65 57 56 49 53 58 65 91 81 74 79 85 82 62 58 63 62 87 94 90 75 62 66 62 58 78 73 74 76 56 38 38 42 42 39 40 38 38
88 98 85 86 98 90 70 71 63 57 53 51 58 50 58 64 78 75 80 70 60 64 68 62 88 94 90 70 60 73 63 58 66 73 84 71 54 36 34 32 31 40 42 40 37
80 97 98 96 87 84 79 77 75 57 52 48 49 48 50 58 59 76 71 72 65 62 56 60 78 79 88 73 70 81 67 60 68 90 72 71 46 39 38 35 41 43 41 41 42
83 87 81 98 95 87 67 67 70 71 55 48 51 51 50 65 64 75 66 79 70 63 62 67 80 73 62 62 66 64 66 67 74 68 74 58 54 48 50 51 46 48 52 53 51
84 86 76 84 73 87 71 68 62 71 68 56 56 60 68 75 75 67 68 71 77 67 66 66 88 74 83 56 58 65 61 59 62 62 64 59 61 44 49 57 62 64 57 55 54
59 55 68 74 79 80 80 63 70 73 67 64 67 71 78 72 64 59 53 56 62 72 73 73 82 91 85 56 54 68 62 61 57 51 56 68 54 57 66 64 67 71 70 68 62

GFSSW_925_rhum_072.txt.gz
RH
92 91 92 94 95 88 82 83 89 85 85 90 87 84 83 83 83 70 78 44 68 66 66 67 66 66 65 77 76 78 93 79 72 61 49 38 44 45 44 58 84 84 78 66 67
94 93 89 89 97 94 86 78 83 89 82 89 89 85 84 85 76 84 46 63 61 67 67 69 74 68 85 84 82 95 90 79 54 57 55 53 48 45 54 73 93 97 92 72 75
92 95 95 94 97 97 92 77 80 83 93 86 88 86 85 81 84 72 72 70 68 58 58 65 68 74 94 80 88 77 86 63 52 60 57 62 53 45 59 60 84 89 88 85 92
93 93 97 93 96 95 93 90 84 83 85 94 91 88 84 73 59 62 72 63 62 72 64 70 77 84 81 90 78 92 69 63 61 55 57 71 64 58 54 51 62 83 87 85 89
94 94 97 95 96 94 92 90 86 80 84 93 92 90 68 81 76 52 60 52 46 60 69 76 85 76 94 83 80 88 76 68 57 61 70 67 74 66 56 49 70 86 87 94 91
96 96 97 89 95 96 95 90 83 82 82 93 92 89 82 90 42 53 50 46 49 60 75 78 82 69 84 86 80 76 72 72 70 63 77 76 74 68 56 49 61 84 90 93 90
95 96 86 83 82 88 91 75 82 78 82 91 92 90 82 79 39 49 49 45 46 51 80 80 86 94 86 80 68 67 83 79 77 73 71 81 84 70 63 51 49 62 76 83 87
100 96 86 80 81 81 78 72 76 84 80 90 88 87 93 45 48 46 45 44 48 51 61 68 81 86 88 81 73 75 77 87 72 76 78 85 85 69 63 58 58 51 55 60 71
97 97 87 78 81 74 76 80 84 87 89 96 88 87 87 50 55 49 47 49 46 58 64 81 86 86 93 92 86 87 85 84 89 76 95 73 86 67 64 56 54 53 50 48 49
94 93 86 78 77 76 80 79 75 93 84 84 84 89 67 52 51 52 52 57 62 76 84 84 89 97 98 92 98 80 89 75 94 93 87 87 86 84 68 60 58 54 53 49 43
95 93 81 80 79 83 79 73 84 88 78 80 72 70 56 54 54 57 57 61 76 78 85 84 99 99 98 80 86 84 79 77 89 84 81 89 80 80 75 63 62 60 53 49 47
98 92 85 81 82 80 83 87 66 65 80 67 69 62 53 64 74 59 60 74 85 93 89 95 99 79 85 85 86 85 74 88 72 86 80 89 83 80 83 70 63 58 60 53 47
92 91 82 80 81 80 83 76 67 68 91 69 66 63 63 66 84 75 70 73 83 82 85 96 82 69 80 83 95 93 73 87 90 79 81 80 87 85 71 61 60 56 59 56 51
93 95 88 79 80 77 82 66 67 70 90 81 81 68 71 70 84 68 75 78 89 94 96 99 85 79 82 92 87 98 69 68 88 94 96 72 91 83 64 63 58 55 56 56 52
94 95 88 82 80 80 69 67 71 69 91 70 77 59 66 78 74 83 86 86 96 98 98 98 92 89 93 92 76 56 62 64 76 98 97 96 86 56 60 67 58 55 54 52 54
96 95 88 84 83 78 72 68 73 85 83 85 71 73 76 76 82 84 89 91 82 96 88 94 82 80 82 71 64 55 73 77 74 85 98 79 82 51 60 56 50 51 50 50 51
80 85 86 72 78 74 73 80 88 84 55 89 80 79 82 79 81 86 87 90 92 97 98 99 97 90 86 79 67 61 75 98 98 97 86 60 65 49 36 36 49 51 50 52 46
79 78 81 75 75 74 78 90 78 64 80 73 79 79 83 78 68 68 68 79 75 82 100 99 99 96 74 65 86 63 54 81 88 92 74 50 61 39 32 35 38 40 39 37 36
85 87 85 82 78 78 86 94 79 77 63 89 88 86 87 77 76 75 74 79 72 80 93 95 100 82 70 60 54 61 77 49 66 64 72 56 41 34 37 45 45 47 48 49 48
88 89 84 78 81 84 84 91 79 63 68 90 96 92 88 73 82 85 83 75 71 67 72 80 95 85 74 54 57 56 48 63 82 73 66 65 48 49 44 51 49 49 50 47 45
86 94 86 76 84 98 98 91 69 57 57 64 79 80 80 81 82 83 83 71 67 62 65 68 76 82 72 88 86 68 65 66 68 77 74 66 52 36 44 48 51 49 47 45 43
88 97 91 83 98 95 97 71 58 60 53 56 60 74 82 85 87 84 90 86 75 62 72 78 83 96 89 74 68 68 66 63 74 69 80 72 52 43 40 48 48 49 46 41 39
96 98 94 86 98 89 74 66 64 62 59 56 63 55 68 86 85 82 79 74 70 69 74 64 87 94 78 64 60 72 62 60 68 77 81 68 56 39 40 40 46 49 46 46 46
90 98 100 99 86 86 82 80 76 58 54 49 52 49 55 60 69 81 74 71 71 65 58 63 81 74 86 73 70 79 71 63 67 86 75 72 50 43 47 50 50 56 57 57 55
84 89 80 93 96 90 76 78 76 71 58 51 53 53 56 72 70 76 76 77 69 66 63 70 81 74 65 64 68 68 69 71 76 66 67 55 53 55 52 54 59 61 57 55 56
95 92 83 89 85 90 82 82 73 77 64 60 61 69 62 73 68 73 73 75 76 70 68 71 91 73 82 59 61 64 62 65 71 64 63 60 60 54 58 67 69 68 69 70 67
74 65 73 84 92 85 80 74 71 77 71 68 70 76 79 71 64 61 59 63 64 74 78 75 83 89 88 68 58 68 57 62 60 58 61 73 62 67 70 72 73 69 66 66 64

GFSSW_925_rhum_075.txt.gz
RH
96 94 92 90 90 96 93 86 81 84 90 85 93 89 84 84 84 67 78 38 56 67 68 67 69 64 63 81 76 78 96 83 80 71 58 39 43 44 49 64 84 74 80 70 74
96 94 94 94 93 97 96 94 84 79 85 89 86 90 85 87 80 80 29 62 68 67 68 70 75 70 83 83 81 88 86 67 67 64 51 50 48 52 60 86 95 94 88 85 89
96 96 93 97 96 95 94 95 94 79 83 85 93 90 88 84 80 72 76 73 68 58 61 69 71 74 85 78 84 82 85 56 58 58 60 61 56 48 60 77 81 83 82 93 92
99 97 94 99 95 95 92 92 92 85 84 84 94 94 91 69 37 59 72 65 62 71 67 70 78 81 89 89 71 90 68 68 59 57 62 68 68 56 59 54 62 77 68 78 88
99 98 93 95 96 97 94 94 89 85 89 83 94 94 71 82 79 41 68 60 48 55 69 74 87 83 83 87 79 83 80 64 69 60 73 68 72 76 67 59 84 87 75 76 84
99 98 93 91 86 86 91 91 89 87 87 82 94 94 77 93 40 49 64 49 49 62 73 76 83 82 77 70 88 74 73 72 67 73 69 64 81 77 61 55 94 89 88 82 82
100 97 94 90 88 90 89 90 86 85 82 81 90 95 83 81 38 57 57 50 47 51 82 75 78 87 77 76 63 78 92 73 72 81 73 73 74 76 72 73 88 91 92 87 92
100 99 96 91 87 82 89 89 82 81 83 82 92 90 88 42 54 52 48 48 49 49 60 70 77 78 91 78 87 92 86 83 64 81 73 71 73 76 75 81 70 79 82 90 92
100 98 97 88 87 79 88 81 89 86 86 87 95 85 86 54 60 48 49 50 48 55 62 81 82 92 93 99 98 85 99 83 81 76 85 85 82 85 79 75 75 70 60 57 76
100 99 99 90 83 80 79 83 75 92 92 90 87 91 75 54 52 51 53 58 66 68 81 85 89 99 98 100 94 84 90 74 79 82 77 90 78 85 90 71 69 62 68 57 49
100 100 96 91 82 81 80 77 86 89 82 83 75 74 58 54 56 58 60 70 76 81 88 85 100 99 97 95 84 70 82 77 88 82 86 88 73 72 86 86 74 70 59 54 51
100 100 90 93 81 89 82 84 70 64 79 73 75 72 61 62 79 64 62 74 88 96 84 91 97 80 83 93 93 72 89 84 86 87 88 86 87 82 88 84 69 70 68 56 48
100 100 95 89 88 94 86 73 67 70 87 68 72 70 67 68 82 79 71 77 87 80 76 94 77 69 86 88 95 90 82 90 85 86 77 89 95 88 83 88 67 66 63 60 56
100 98 95 89 83 82 83 63 71 71 88 77 83 70 72 71 85 69 76 74 94 93 84 99 85 77 81 89 77 86 74 78 88 95 100 84 95 90 73 82 73 65 65 62 61
100 96 90 80 82 84 68 68 69 64 82 62 78 60 70 79 76 84 91 83 89 93 98 98 98 88 77 78 72 73 68 86 84 97 99 94 84 58 66 74 76 64 62 59 54
100 96 91 96 90 79 70 71 72 84 75 86 74 77 84 77 80 89 87 90 84 98 100 98 81 72 70 74 78 75 77 83 88 100 98 100 81 52 67 57 54 52 55 52 51
99 90 93 85 81 78 70 79 90 88 53 92 82 77 80 79 79 84 85 92 98 99 99 97 92 87 77 95 79 79 90 99 98 98 94 75 88 61 38 40 47 50 54 51 52
95 88 94 78 77 74 75 90 82 64 81 76 79 79 86 80 70 77 71 100 80 96 99 92 99 90 76 72 82 70 60 93 92 92 78 58 79 46 41 45 46 50 48 44 43
92 100 95 83 78 72 87 94 78 72 76 86 80 87 87 74 81 79 85 87 80 85 97 98 99 85 78 65 59 64 77 50 68 63 84 63 44 36 42 50 49 52 52 54 52
99 99 92 86 76 80 90 87 87 67 90 79 84 77 84 76 80 82 84 75 81 68 72 79 93 76 71 57 58 56 50 63 83 85 68 64 52 53 46 50 52 53 55 54 53
93 96 91 85 81 97 91 93 73 61 64 84 85 91 82 80 81 84 85 67 76 70 72 69 76 78 71 89 89 67 63 69 70 76 80 68 52 36 44 49 52 54 53 53 53
96 99 93 84 98 95 98 85 61 64 58 58 70 70 77 84 72 86 89 90 78 69 82 77 83 95 85 71 73 72 68 63 74 68 82 73 56 48 44 51 53 53 52 50 54
96 98 98 88 99 98 77 64 64 63 59 61 67 69 73 82 86 82 81 75 75 71 72 63 85 91 78 64 58 71 64 67 71 76 81 75 59 45 52 56 52 52 55 61 59
97 100 100 99 92 77 78 73 76 58 55 50 56 50 71 73 74 86 77 75 74 68 65 66 82 71 86 68 70 76 71 65 67 84 76 67 54 55 48 55 58 64 63 61 62
97 96 80 97 96 92 76 70 74 70 59 52 55 55 58 78 77 82 76 77 70 70 65 67 84 78 71 69 70 70 69 72 77 64 64 55 53 53 57 64 67 64 66 70 70
95 93 83 90 85 90 84 80 70 78 67 61 64 66 60 68 65 74 76 75 76 70 70 74 92 74 83 66 62 66 64 72 72 68 62 62 63 56 69 72 79 81 73 67 66
96 82 80 83 94 87 82 81 74 76 70 68 69 74 75 70 65 65 63 72 67 73 79 76 85 86 84 70 56 69 57 65 67 66 66 79 65 75 75 79 72 65 60 61 63

GFSSW_925_rhum_078.txt.gz
RH
94 95 96 94 95 92 96 95 92 84 80 94 86 91 91 86 85 69 70 33 53 74 72 70 67 67 64 80 75 75 92 82 69 76 67 45 46 38 48 57 67 72 71 70 77
99 98 95 96 96 97 97 93 94 91 82 81 89 89 91 88 82 78 22 48 60 70 57 74 75 70 81 82 78 90 95 70 53 55 63 52 52 41 57 80 83 87 82 70 83
100 99 97 96 95 99 96 92 91 95 87 84 85 93 95 86 70 50 78 72 67 68 50 64 73 72 86 80 86 85 88 61 56 60 63 67 62 60 59 79 81 82 90 76 82
99 99 99 96 88 98 93 94 92 93 85 90 85 92 95 65 54 55 73 69 65 67 67 70 79 83 91 91 79 92 73 68 66 58 58 64 66 70 74 62 59 71 80 77 86
97 99 100 100 90 92 92 94 91 88 88 89 82 91 80 81 75 42 68 64 55 55 69 72 86 84 91 84 81 90 76 72 63 60 65 50 61 73 75 64 74 75 82 73 83
98 95 100 99 94 91 97 93 88 91 90 84 82 95 78 92 49 43 49 61 50 58 70 78 82 81 91 85 76 74 76 70 69 68 63 67 59 86 61 78 75 85 90 76 82
98 92 100 98 96 92 96 91 89 90 85 77 84 95 84 80 42 58 65 58 49 55 77 72 75 77 81 82 66 68 86 82 68 64 78 63 76 83 80 79 76 94 80 88 86
99 95 100 98 97 91 96 86 91 80 86 82 85 92 90 52 50 50 60 53 47 50 58 65 75 75 83 72 81 89 76 95 73 65 78 76 74 64 87 80 83 82 88 81 88
86 93 100 100 96 92 91 81 88 88 86 83 94 81 79 59 67 49 54 53 50 52 58 73 76 82 86 98 99 87 96 92 78 64 71 80 88 86 80 78 79 81 81 73 88
90 83 100 100 94 89 86 81 83 90 96 89 88 91 77 59 52 53 54 56 64 65 72 84 93 100 100 100 95 86 97 99 78 79 76 86 88 94 86 84 87 81 76 74 67
88 98 100 100 89 89 87 82 87 89 86 78 75 75 60 55 56 59 62 70 70 76 97 88 99 98 91 96 91 98 80 84 75 84 83 85 88 83 91 89 90 81 73 67 62
93 86 100 99 91 91 86 82 76 63 84 80 78 77 68 62 75 67 65 76 91 94 85 95 98 78 78 94 98 100 81 96 92 76 82 82 88 86 85 80 89 84 75 70 62
96 97 100 97 92 98 89 76 70 71 76 69 75 74 67 70 74 82 72 77 90 96 87 92 75 73 80 96 100 92 82 93 87 86 83 82 83 91 80 82 80 83 72 68 64
96 94 100 96 93 89 93 67 72 70 88 79 84 73 74 70 84 71 75 78 85 94 85 92 71 86 93 100 84 88 87 83 87 92 98 83 98 93 82 88 82 76 71 69 68
87 91 98 83 82 87 77 71 73 63 79 61 86 63 70 88 79 85 86 83 89 91 96 95 88 91 95 82 77 92 78 82 86 97 97 99 100 72 77 86 82 79 64 65 65
89 84 100 91 94 86 75 70 71 80 76 90 82 87 95 86 80 82 88 88 85 99 100 99 85 76 62 75 85 82 82 84 94 94 94 100 92 60 88 73 66 66 70 66 67
95 96 98 92 93 86 73 76 90 88 53 94 87 81 84 81 80 88 91 99 100 100 99 98 91 83 80 86 82 78 77 98 96 97 98 95 99 68 45 39 49 54 55 58 57
97 95 100 91 86 85 77 83 87 65 84 78 79 81 87 79 72 78 94 100 97 97 100 97 96 89 85 90 95 80 84 92 93 93 93 65 83 54 44 52 50 46 57 56 54
94 99 100 91 92 82 88 95 77 72 79 89 78 87 84 74 82 79 87 95 85 86 91 99 100 92 90 72 62 68 84 57 73 63 90 67 47 40 47 54 53 54 53 58 56
97 96 97 90 91 79 94 84 80 67 82 72 80 74 77 76 79 81 85 75 84 83 84 87 98 79 66 61 56 51 52 64 83 85 78 64 56 55 50 59 57 61 64 64 62
92 96 92 95 90 96 97 90 80 66 77 80 88 87 80 80 82 85 86 68 83 78 72 68 77 80 71 90 90 65 65 71 70 76 74 69 52 40 46 51 62 63 62 64 67
92 100 98 94 99 93 98 82 65 69 60 66 71 73 79 82 69 87 90 91 81 76 81 77 83 96 84 71 75 76 70 60 74 70 81 72 55 55 50 55 56 60 61 65 67
97 98 100 91 100 98 86 72 70 64 64 65 74 65 69 82 87 83 83 75 79 76 77 66 82 89 75 64 60 72 67 71 70 73 80 75 63 51 62 59 54 65 69 66 68
96 99 99 99 89 85 79 73 80 59 58 54 59 67 74 79 77 84 78 78 76 74 70 67 80 71 83 66 71 77 72 64 64 81 78 65 63 53 56 61 70 72 71 74 77
95 100 95 99 97 93 83 71 75 72 58 54 58 60 66 84 80 82 78 77 70 73 68 67 84 80 76 73 72 71 72 70 76 64 60 62 64 62 59 68 74 72 77 70 66
97 97 92 88 82 91 85 72 73 80 66 63 66 70 62 68 63 80 76 75 78 70 73 74 92 74 82 67 62 69 69 74 71 65 62 62 58 55 69 79 84 78 65 64 61
97 84 74 80 91 92 83 72 72 72 72 74 65 72 72 69 65 67 68 77 71 74 80 77 84 86 85 72 61 66 57 67 70 68 67 73 59 78 77 82 75 63 59 61 65

GFSSW_925_rhum_081.txt.gz
RH
95 99 99 99 97 97 97 97 95 94 91 84 82 92 88 90 87 69 73 28 36 69 78 68 71 65 65 76 74 72 90 79 68 70 56 50 51 47 44 40 56 55 42 65 88
95 94 97 99 98 96 97 99 93 90 96 91 84 86 92 93 78 73 42 49 62 63 65 68 76 71 75 79 74 84 89 69 52 50 55 52 52 46 53 46 48 64 70 78 100
99 92 97 100 99 95 96 98 94 90 94 88 87 88 90 86 52 36 80 76 66 75 53 66 73 72 83 79 80 79 82 59 55 56 56 61 62 49 54 55 40 49 79 85 92
98 98 97 97 99 98 95 93 96 92 93 88 90 85 91 70 73 50 73 70 74 60 54 70 78 83 90 88 78 84 68 68 63 57 62 65 54 59 72 46 34 45 70 78 83
99 99 98 96 100 98 94 92 94 89 91 92 87 75 86 77 67 47 72 66 62 46 57 70 83 84 89 82 80 85 69 62 63 64 62 56 64 59 61 65 64 54 76 77 74
97 96 98 88 100 97 93 91 92 88 92 91 80 84 78 92 56 39 41 67 57 54 69 74 77 78 88 87 81 69 70 65 60 59 62 68 61 67 55 74 70 65 71 74 71
88 89 96 92 100 99 94 96 91 93 92 88 79 91 82 76 52 50 55 64 52 52 72 71 69 75 78 71 74 70 79 66 62 72 60 64 70 70 55 72 75 74 74 72 72
85 89 96 99 100 100 95 85 78 92 85 89 84 90 88 63 46 50 51 64 56 52 56 63 68 78 79 70 69 76 81 86 51 62 58 68 72 52 75 70 79 78 75 70 80
94 91 94 94 100 98 90 76 80 90 89 85 88 85 82 60 69 50 54 58 53 53 58 60 76 80 80 90 85 79 83 83 65 62 56 72 70 56 79 74 78 76 77 78 80
89 90 88 94 100 98 83 83 84 91 92 85 87 86 68 61 53 54 56 56 61 66 71 79 87 99 96 100 94 76 92 77 74 63 66 68 75 92 84 74 80 80 76 73 76
85 93 83 99 100 92 84 95 86 89 92 82 78 74 60 56 57 60 63 67 68 75 80 85 100 95 94 87 91 99 99 80 66 59 70 73 79 78 81 90 95 91 79 71 66
87 94 93 99 99 90 81 86 82 75 91 80 77 77 69 63 72 67 66 78 91 92 91 90 96 71 71 94 98 97 93 90 88 54 68 75 75 86 85 83 93 87 80 75 62
87 95 90 98 97 95 88 85 84 74 78 72 79 79 70 68 75 81 71 76 93 96 93 95 71 70 77 97 100 100 96 84 96 80 80 77 83 83 69 69 80 78 81 74 65
87 92 92 98 98 98 96 75 77 69 87 78 87 75 76 69 85 71 68 76 86 91 90 90 74 81 81 99 100 91 75 70 78 84 100 84 94 86 77 70 75 70 69 70 75
86 90 94 93 91 91 83 71 81 65 96 72 90 65 76 82 79 85 80 81 84 88 98 85 96 88 96 99 88 94 78 83 84 90 86 90 82 77 77 84 78 72 65 70 66
87 90 98 99 86 89 80 84 69 85 94 92 90 95 98 91 82 86 91 85 91 99 100 99 81 90 77 76 88 82 75 82 87 86 94 95 78 68 80 72 63 68 63 66 75
90 94 99 88 95 90 89 78 94 96 60 97 94 88 86 88 88 92 92 100 100 100 98 96 89 82 81 80 79 86 72 94 92 93 95 98 96 67 47 41 48 61 64 67 68
92 92 95 96 96 88 85 95 97 67 79 78 81 85 88 80 78 83 90 100 98 89 99 96 91 89 83 90 90 85 93 83 89 90 93 83 89 56 50 54 52 47 57 64 64
98 100 100 100 88 91 94 98 84 72 77 90 74 83 84 76 80 77 87 98 85 85 99 98 95 83 86 83 84 87 91 60 74 70 80 68 54 44 49 58 55 56 54 53 52
100 94 98 90 94 93 99 89 78 64 77 67 79 72 76 77 77 82 82 96 97 85 82 95 100 79 73 79 77 69 55 64 82 82 95 73 55 60 57 63 59 61 64 67 65
89 96 99 93 96 97 100 87 78 68 72 71 86 88 75 79 81 86 90 74 85 82 81 72 78 94 71 89 92 66 65 66 67 76 80 75 54 49 49 58 66 65 65 66 66
94 99 98 100 99 99 96 78 64 74 67 72 70 79 74 78 81 88 96 92 82 81 79 75 77 96 84 70 75 80 68 56 68 70 75 67 55 58 51 57 60 66 66 66 69
98 98 100 97 100 100 78 83 70 66 66 69 77 64 70 82 85 86 85 74 81 78 79 67 81 87 75 63 61 74 70 70 67 69 75 65 60 59 63 60 65 69 70 71 70
96 99 98 96 94 82 81 73 76 62 59 60 74 72 74 82 80 84 81 75 76 78 70 63 81 70 79 68 74 74 73 66 61 73 70 61 68 63 63 70 74 71 75 71 63
97 99 98 100 99 90 86 76 74 73 59 61 62 68 72 83 80 82 78 73 64 73 70 67 86 81 74 70 72 74 74 71 75 62 59 56 66 63 62 74 74 77 72 63 58
98 97 90 92 83 86 83 72 76 79 69 64 71 70 62 72 62 75 74 75 82 72 75 74 93 74 80 67 62 73 74 76 70 63 64 63 55 57 72 79 82 72 62 61 62
95 79 77 85 91 82 79 72 74 72 75 77 68 71 78 70 65 67 74 81 77 76 78 75 82 85 84 71 61 65 64 66 71 71 66 65 63 75 80 84 72 62 63 66 70

GFSSW_925_rhum_084.txt.gz
RH
95 98 95 99 96 98 96 96 99 96 92 95 87 85 86 94 93 78 60 36 43 69 78 67 60 55 53 54 53 50 67 52 39 34 30 22 25 28 28 33 27 26 27 24 50
94 94 98 99 98 99 99 92 97 95 91 94 91 86 89 85 85 64 56 57 61 62 63 46 40 51 44 51 53 63 60 44 29 28 30 30 28 29 34 36 34 31 30 45 80
98 99 99 100 99 98 99 97 96 90 92 94 88 90 84 87 60 33 78 76 62 74 58 52 50 46 48 47 49 50 62 38 37 39 40 44 38 32 38 42 32 33 31 40 62
93 97 93 98 98 97 100 93 94 95 90 91 88 85 78 73 59 45 73 73 82 60 56 54 50 51 54 52 40 55 39 37 38 42 48 50 44 49 40 34 28 54 30 42 55
77 84 86 91 98 84 100 98 94 90 89 94 83 76 76 70 62 50 72 69 67 53 47 45 44 46 48 48 53 54 38 32 32 42 45 42 48 48 46 35 36 45 50 40 44
90 89 88 97 87 88 100 98 96 89 87 93 82 73 70 74 57 43 39 67 62 49 54 48 44 50 52 53 55 37 48 48 44 41 42 48 45 42 39 34 40 50 53 38 36
86 91 93 95 100 99 100 95 93 74 90 92 86 82 70 57 57 45 53 58 61 50 48 56 50 53 48 50 41 52 60 44 43 44 47 37 47 49 36 37 48 49 49 45 33
89 82 88 89 97 99 99 100 82 93 94 87 83 78 70 66 63 56 52 58 60 57 54 56 58 55 59 45 50 52 47 72 32 33 43 46 41 25 26 34 45 45 52 49 46
85 82 89 95 88 99 100 88 87 83 91 87 82 67 66 61 64 55 53 49 56 57 61 62 59 62 63 79 71 60 58 50 47 36 39 50 40 26 28 34 45 50 54 56 60
78 85 90 96 84 100 92 86 92 86 89 80 80 73 66 53 55 57 61 53 51 57 64 64 66 78 75 86 85 64 83 57 49 36 44 46 41 29 43 48 50 54 57 60 64
78 86 84 98 99 99 78 92 90 87 82 67 68 58 55 55 57 56 60 59 58 66 76 64 87 90 78 70 70 72 86 88 62 39 45 47 40 36 72 64 62 61 68 62 68
74 84 87 93 99 92 81 83 72 72 84 72 65 64 64 61 62 59 62 60 63 74 65 86 91 58 53 58 81 97 89 71 57 51 51 44 42 38 61 66 62 65 65 63 55
73 86 90 90 99 96 83 85 79 72 65 72 69 65 59 61 61 62 61 62 67 82 75 78 52 53 59 67 99 97 97 79 82 60 54 49 55 68 60 58 61 60 69 73 62
84 90 90 88 100 96 86 75 82 74 84 77 80 68 70 61 71 62 61 58 71 74 72 82 60 71 77 87 97 98 87 92 95 96 79 54 70 63 51 59 57 55 68 78 78
91 91 92 80 99 95 81 69 82 70 90 74 85 67 63 72 71 78 66 75 76 74 96 69 80 96 100 99 97 76 64 94 96 86 70 65 64 60 63 62 60 56 72 91 89
88 76 89 85 96 84 75 72 86 90 79 93 83 82 86 75 71 86 86 82 88 99 100 92 63 81 85 63 73 60 67 93 74 68 91 81 79 62 59 59 50 54 61 64 66
85 86 90 97 93 86 76 88 97 93 66 95 84 81 73 76 78 84 94 100 100 97 95 77 83 70 72 81 72 77 77 89 87 76 83 89 70 61 44 42 41 36 47 54 70
88 97 94 88 84 100 92 98 95 75 68 69 68 73 72 69 69 77 95 98 97 89 87 93 85 75 70 73 90 77 76 77 72 83 92 73 74 53 46 45 42 37 51 60 74
90 94 99 93 83 100 93 96 84 73 65 71 71 78 79 68 67 69 94 97 82 88 99 97 84 66 72 73 80 73 80 49 64 60 61 64 59 42 44 49 48 56 56 65 69
97 91 96 97 96 93 99 93 82 62 66 55 57 57 61 63 66 66 93 96 96 89 82 97 98 76 90 81 78 82 53 66 66 73 81 51 50 55 53 58 58 55 58 65 66
88 95 100 100 92 96 100 86 72 61 62 57 65 62 56 66 63 68 93 88 72 71 68 62 67 90 66 75 77 59 54 51 52 54 50 47 50 43 50 54 59 58 57 58 59
92 99 100 88 99 98 97 78 69 72 68 61 59 60 56 64 67 70 78 77 64 67 62 57 59 80 69 54 57 67 60 48 49 52 48 40 47 43 46 50 51 54 55 61 62
97 98 90 96 99 100 72 70 83 73 62 62 62 55 61 68 69 69 72 61 63 65 67 54 60 77 67 55 54 58 54 49 46 47 57 43 50 45 46 51 51 54 56 50 48
93 100 97 94 90 70 79 96 91 60 54 57 64 58 61 63 60 68 65 64 62 63 68 52 57 64 57 68 66 62 58 52 46 58 41 46 54 53 51 56 54 57 49 44 43
92 99 89 100 86 66 77 92 68 69 53 50 57 58 58 60 61 64 63 56 58 62 56 50 78 72 58 57 63 64 62 55 60 50 48 48 46 50 48 51 53 56 49 44 45
84 83 88 78 73 62 67 83 68 71 65 57 60 61 52 55 54 59 58 59 66 54 59 55 82 65 73 49 54 62 59 60 56 53 48 44 51 41 46 53 58 53 48 48 51
93 78 53 78 72 62 71 75 68 63 66 66 58 56 60 65 59 60 57 59 61 62 58 57 68 77 72 54 49 51 50 56 61 59 53 48 54 51 58 61 58 51 49 53 55

GFSSW_925_rhum_087.txt.gz
RH
99 100 99 98 99 99 99 98 97 99 94 93 93 88 86 88 87 78 55 46 40 56 67 47 44 39 36 40 39 39 55 45 36 31 24 17 17 16 17 22 21 19 20 19 46
96 99 100 99 99 98 95 99 93 100 92 89 95 88 88 76 72 56 52 59 52 65 49 39 32 36 33 35 39 50 51 39 25 21 21 18 19 18 17 21 24 25 22 22 50
86 83 88 92 97 99 98 99 97 99 92 93 90 87 73 76 57 31 70 76 57 64 53 41 34 33 35 32 38 40 51 33 27 23 28 32 33 28 23 27 21 24 22 22 35
89 89 86 86 88 93 100 98 99 97 88 94 90 80 67 66 50 47 74 71 77 58 47 41 36 41 39 36 33 41 32 31 29 28 30 39 33 36 31 29 21 27 35 37 31
86 85 90 91 87 95 99 98 100 98 91 92 90 71 71 55 46 51 68 72 59 46 38 34 34 33 39 29 32 37 36 28 23 24 27 30 36 38 34 29 26 25 34 38 32
77 85 84 92 85 96 98 81 99 99 84 96 88 68 62 57 49 45 41 62 52 46 40 37 33 34 41 34 36 29 30 34 34 33 30 32 33 31 30 27 28 31 31 35 36
73 79 85 87 88 98 96 100 100 97 93 92 85 73 57 46 47 48 46 43 51 44 38 42 41 44 35 39 30 33 44 40 32 29 35 34 42 38 24 23 28 27 30 38 40
77 74 86 84 88 95 81 100 99 88 90 92 86 64 53 57 54 57 48 46 50 46 45 47 48 48 50 41 44 45 40 47 28 23 24 34 47 27 19 18 25 29 31 35 40
66 71 80 85 89 89 88 100 91 94 93 89 78 60 50 63 57 48 43 43 48 48 50 48 52 53 53 68 74 56 68 43 33 24 26 31 41 26 18 16 20 25 27 32 42
70 69 77 86 96 90 100 84 94 93 90 82 68 65 51 48 48 48 47 44 46 45 54 57 63 68 63 82 75 50 57 49 44 31 27 36 37 29 20 18 24 23 26 33 42
79 73 77 83 92 100 99 88 85 88 74 65 58 49 48 46 48 48 51 48 48 54 64 56 92 84 62 51 53 58 59 55 42 35 52 44 33 27 22 42 32 31 33 37 44
83 80 81 85 90 98 92 78 69 74 85 62 52 53 48 48 58 52 54 60 60 66 53 78 88 54 44 44 53 65 77 70 53 43 46 62 34 28 24 44 49 46 54 57 47
88 83 89 91 95 100 97 87 71 68 70 69 60 54 52 53 54 60 54 54 60 61 63 81 53 47 50 57 70 78 94 79 86 54 55 47 43 32 25 43 53 48 51 58 56
91 87 91 83 96 98 97 84 85 83 95 74 72 59 59 53 62 48 54 54 57 66 61 70 56 60 68 86 91 97 67 90 96 86 71 43 54 32 36 46 50 46 48 60 65
94 81 89 74 85 97 92 88 82 71 97 69 70 56 56 61 65 70 55 62 76 89 85 65 60 69 85 95 94 83 84 84 79 72 89 54 61 38 38 46 45 43 46 57 67
79 80 78 80 84 80 80 84 75 98 96 92 74 81 73 62 65 77 82 80 89 98 98 93 61 65 67 68 74 77 98 96 81 94 93 77 83 63 55 51 46 47 45 64 86
91 83 83 93 76 92 77 86 100 98 64 88 77 72 59 68 68 82 96 100 100 100 100 65 64 60 60 94 69 78 98 93 97 98 71 63 96 60 47 43 39 36 53 81 90
89 85 94 84 88 97 83 99 99 74 88 58 59 60 59 59 67 91 97 99 89 90 83 86 81 63 55 67 83 74 77 96 84 79 82 81 99 93 49 38 38 39 77 87 90
91 99 97 90 97 95 95 100 98 82 58 58 57 64 67 57 71 70 77 84 80 72 99 92 90 59 67 71 78 76 98 72 95 67 81 92 73 53 72 50 62 67 80 84 91
98 90 87 91 93 92 99 97 80 60 50 43 48 42 56 55 76 69 75 95 90 81 76 87 94 82 84 72 69 84 63 70 66 84 74 52 57 71 84 73 66 76 74 74 79
79 92 99 98 88 95 100 100 93 58 45 48 46 46 46 57 56 59 74 84 80 74 68 62 70 84 89 85 69 64 53 47 47 46 70 46 62 44 56 76 68 68 74 80 83
72 98 98 83 99 97 100 93 80 71 54 49 45 42 44 50 57 56 66 60 54 56 56 47 55 68 59 46 49 56 47 40 48 45 40 39 62 43 48 63 56 62 67 64 63
96 98 88 95 83 99 70 90 90 74 56 52 49 45 49 53 58 55 58 52 52 56 57 47 51 72 58 52 50 48 42 37 37 42 41 47 58 41 46 50 51 54 50 48 45
79 100 96 89 77 62 68 98 92 55 49 48 52 47 47 48 46 58 54 53 50 52 63 52 48 60 64 69 60 58 47 36 41 56 38 43 57 48 48 51 50 44 41 40 41
70 87 74 92 67 51 68 85 57 58 46 43 47 47 45 48 46 49 48 45 44 52 47 46 69 69 49 48 54 54 52 45 54 37 42 40 43 45 43 45 47 43 40 41 43
60 68 61 59 52 48 69 52 51 58 55 49 50 44 38 49 43 46 43 43 47 42 47 44 76 60 75 44 48 51 46 46 49 44 38 39 45 35 37 42 48 44 43 44 45
72 61 40 60 50 48 64 60 58 53 55 53 48 45 55 62 52 48 46 45 47 50 47 50 62 76 68 46 45 49 46 48 51 49 51 42 47 40 47 50 51 46 44 46 48

GFSSW_925_rhum_090.txt.gz
RH
91 97 98 99 98 98 99 97 99 99 99 92 95 91 90 87 86 89 75 47 45 38 33 44 43 36 34 37 42 43 66 66 49 41 33 23 21 17 14 19 20 19 21 20 53
86 88 91 94 95 93 97 99 98 100 100 93 90 94 88 70 78 59 58 44 53 57 52 39 33 33 40 36 42 57 68 58 36 28 28 22 22 25 27 21 21 23 21 20 62
73 87 89 89 89 88 94 97 98 99 99 93 86 88 71 73 69 47 51 73 52 58 52 40 33 31 39 36 40 45 63 46 36 30 29 32 32 30 34 40 32 22 23 22 26
84 76 82 83 90 85 86 99 98 100 100 92 87 72 62 77 63 66 75 68 69 56 45 38 35 42 42 40 32 45 36 34 34 30 31 34 33 40 35 35 29 27 32 37 41
78 84 84 88 83 87 87 97 98 98 100 93 92 66 67 60 50 70 78 79 59 45 37 33 36 34 41 34 32 37 35 31 31 31 27 24 31 35 36 30 27 27 29 35 39
68 81 78 78 87 83 88 97 97 100 94 94 92 67 75 59 46 52 54 69 49 41 39 35 35 36 42 41 39 31 35 34 33 35 36 36 33 31 29 29 28 28 31 31 35
69 67 68 73 84 82 86 95 98 100 98 95 88 74 60 48 44 42 39 52 49 42 37 40 41 45 44 48 34 36 47 42 39 37 38 33 44 42 30 27 28 25 28 29 32
79 72 70 74 78 87 98 95 100 98 96 94 84 67 58 52 46 49 43 41 48 43 42 46 46 48 52 46 48 54 51 63 39 34 32 35 47 33 29 30 30 26 24 29 37
81 78 78 75 83 90 78 97 100 95 99 87 79 68 55 58 53 45 41 42 46 45 48 44 48 54 54 70 80 65 78 60 45 30 31 33 40 30 26 25 26 25 21 26 35
85 83 81 77 84 97 99 96 99 96 90 78 68 67 52 49 48 44 41 42 47 46 52 54 63 76 68 89 91 69 65 58 53 38 37 43 37 30 27 25 26 21 19 25 30
87 85 85 82 86 91 98 94 90 95 87 71 63 48 44 43 45 45 45 45 44 48 62 59 90 90 68 66 69 71 77 69 55 40 42 51 48 45 34 28 30 31 25 25 31
88 89 87 87 89 92 98 98 82 76 95 60 50 45 44 44 54 49 48 57 59 75 57 70 86 60 50 52 58 62 74 80 61 51 52 56 62 46 40 31 32 50 44 55 52
96 92 90 86 91 99 92 99 89 74 78 76 65 56 52 51 49 56 54 53 63 59 55 69 57 48 56 64 78 82 86 87 86 71 65 70 81 58 43 28 47 56 56 54 58
96 94 93 59 87 98 97 89 90 79 98 88 79 55 54 50 58 49 52 53 59 65 55 67 58 60 63 84 87 97 68 84 95 98 92 56 88 53 36 31 47 56 61 65 74
80 96 88 65 81 88 90 88 86 80 94 73 63 49 49 62 64 66 52 58 69 66 88 71 60 72 84 82 80 97 85 94 90 95 91 79 87 43 40 59 48 53 60 71 81
80 80 66 77 82 82 87 86 89 96 97 97 74 79 69 67 65 67 73 74 85 98 90 91 67 76 72 57 65 89 96 79 76 94 97 87 88 55 48 42 50 45 50 82 89
84 84 84 79 86 90 77 83 98 96 74 85 77 66 60 66 70 74 86 92 99 99 98 79 69 60 62 76 65 83 100 98 97 97 98 99 97 100 60 48 46 52 72 87 91
84 86 85 88 77 88 78 97 97 99 90 60 62 64 90 57 63 78 88 98 92 89 98 86 90 63 54 72 85 82 92 99 96 96 96 94 99 100 84 44 38 66 90 88 92
81 84 90 87 81 86 90 98 100 100 63 59 59 72 67 58 60 72 79 74 72 77 100 96 96 60 68 72 75 82 99 92 100 96 99 100 100 88 81 87 92 94 92 94 91
80 83 84 90 87 80 97 98 99 73 46 47 52 44 64 57 69 85 79 86 75 73 72 81 95 75 75 69 74 89 73 82 93 97 94 96 92 100 96 96 88 89 94 93 89
71 92 99 90 80 95 100 100 88 53 49 52 41 43 51 56 65 69 78 82 75 75 72 76 88 85 83 81 71 76 65 62 51 61 96 70 97 94 96 95 94 93 90 91 87
77 97 96 82 96 98 99 84 80 69 47 45 42 41 46 51 56 60 62 61 52 55 68 57 66 84 62 50 49 57 53 45 76 67 63 77 97 79 74 81 86 88 87 89 88
96 98 85 89 94 97 85 92 85 57 49 44 47 46 48 48 59 56 53 51 50 55 63 60 70 88 70 59 51 52 47 44 42 60 61 79 83 54 79 62 70 85 79 78 77
83 99 88 90 81 69 86 90 72 50 46 45 48 44 44 47 45 58 53 51 48 51 63 62 56 73 84 70 63 68 55 47 60 82 66 71 72 64 63 62 57 56 52 50 49
65 82 70 92 67 60 66 71 55 56 44 41 46 46 46 49 47 48 44 44 49 58 57 54 74 72 50 47 54 56 55 54 61 48 64 64 63 58 59 61 54 50 48 50 52
69 76 73 55 45 54 62 53 55 56 60 49 50 45 46 60 61 53 51 52 53 47 45 47 84 66 82 44 47 52 51 54 58 56 46 50 59 45 46 56 52 50 49 52 54
58 52 59 55 50 53 61 58 58 54 56 54 57 50 62 67 59 50 44 44 45 52 53 55 74 87 86 54 48 64 52 53 53 57 60 69 58 51 57 56 55 53 51 55 55

GFSSW_925_rhum_093.txt.gz
RH
84 81 93 95 97 95 95 98 96 99 99 98 96 96 89 79 76 82 85 61 50 36 22 44 43 40 36 37 40 47 78 85 68 56 47 32 30 24 26 26 24 21 21 49 55
85 80 80 87 91 93 89 92 98 96 100 98 83 93 88 70 76 78 68 55 60 38 54 50 40 40 46 41 44 62 85 72 52 46 43 34 37 37 37 39 37 36 30 40 64
76 86 83 91 86 85 92 86 96 98 100 94 85 80 76 67 82 69 67 56 58 50 54 40 34 34 39 37 44 48 74 56 51 45 40 38 34 32 44 45 38 41 34 30 42
75 75 86 84 90 87 86 85 91 97 99 100 94 68 68 77 75 73 73 55 58 56 47 39 38 44 45 44 35 48 39 39 39 35 36 39 31 31 37 42 35 33 32 33 37
77 71 76 80 78 85 85 83 95 97 94 98 94 63 70 74 65 75 73 72 58 48 41 39 38 38 44 45 44 41 40 38 37 39 37 34 41 36 33 30 30 29 30 33 34
83 74 70 71 71 74 81 82 90 98 93 100 82 64 73 67 67 66 67 60 46 41 39 38 45 40 44 45 45 39 42 41 39 40 39 40 41 42 35 29 28 28 30 28 30
90 85 79 76 75 76 86 92 91 97 100 98 76 66 64 55 46 49 65 61 51 42 42 44 46 51 54 58 48 49 59 56 48 43 44 39 47 44 36 34 32 29 28 29 29
84 87 83 80 78 86 96 95 91 86 100 90 86 73 67 47 45 42 40 44 48 42 46 46 47 51 54 51 58 64 61 76 48 46 44 48 58 37 30 33 35 32 30 29 29
88 87 85 83 83 85 96 60 82 99 99 92 86 81 72 53 50 50 42 48 47 45 47 45 49 59 57 75 88 75 86 74 61 42 44 48 48 36 29 31 34 33 34 30 29
94 90 88 86 85 92 100 97 100 99 93 84 68 74 61 58 51 42 40 44 50 55 56 55 70 89 83 93 88 75 81 68 71 50 49 54 51 41 36 32 31 28 29 28 28
95 90 91 85 88 92 100 85 86 90 95 74 73 56 50 47 44 43 42 46 46 50 63 65 90 98 83 77 78 82 87 90 72 59 59 59 56 50 48 46 46 33 30 31 24
92 95 89 87 88 90 84 94 99 96 94 77 54 50 46 46 60 55 46 60 54 72 66 74 89 67 64 62 71 77 88 86 69 57 65 78 76 64 58 50 46 39 40 55 35
95 95 68 60 90 93 92 100 95 90 93 85 60 53 53 52 55 66 56 55 64 66 58 69 65 52 59 72 83 85 92 86 87 77 79 91 88 70 55 53 48 40 53 69 80
96 87 60 56 74 95 97 89 86 90 97 98 82 62 53 54 60 55 54 56 63 68 64 68 60 67 72 80 87 97 69 74 99 100 96 74 94 65 59 57 45 44 61 77 79
90 69 62 68 81 86 87 84 89 96 96 84 73 51 56 68 73 69 61 61 75 75 80 75 82 77 86 88 76 88 80 97 100 90 90 76 97 75 44 47 39 58 67 72 92
78 74 66 80 84 85 80 88 90 91 99 98 76 80 78 68 77 69 77 72 82 86 82 85 73 81 81 64 63 71 98 100 91 92 99 79 84 76 62 55 47 52 70 98 97
75 78 73 77 82 88 85 91 95 94 93 91 90 77 71 77 84 74 85 94 94 91 91 79 86 72 69 84 70 80 100 98 97 97 93 95 91 88 90 88 67 58 90 97 97
79 81 85 77 79 83 84 98 90 96 88 63 72 67 92 68 81 80 90 85 86 82 90 97 84 68 63 71 88 89 99 99 96 97 98 100 98 100 89 92 95 90 94 94 97
80 82 86 84 81 83 89 97 100 96 68 68 72 95 80 68 73 77 80 71 77 87 93 100 84 64 71 70 78 80 99 88 100 100 97 98 100 96 85 88 94 94 95 97 97
73 84 100 86 80 77 91 99 98 94 65 59 69 63 80 71 67 92 81 82 71 73 76 85 98 73 75 72 77 88 79 89 94 97 96 97 97 100 100 100 94 95 96 96 95
76 95 91 86 80 93 97 100 85 66 54 74 48 56 64 72 77 86 82 82 73 75 74 79 98 79 82 82 74 79 87 80 70 76 92 88 98 98 100 99 96 96 96 92 91
82 98 78 82 95 98 98 85 79 74 57 47 50 54 55 56 59 64 65 67 70 59 81 76 82 98 74 52 54 58 70 55 78 71 76 82 98 91 95 93 89 94 95 93 90
95 96 75 84 99 92 82 84 84 72 57 48 51 52 49 54 64 58 62 56 56 61 68 64 78 91 69 58 59 66 57 54 57 68 80 88 92 84 83 87 90 93 92 90 87
92 96 90 91 90 85 80 87 82 56 49 49 50 47 53 52 50 62 59 57 52 55 61 62 68 76 90 77 67 75 64 61 62 81 81 86 88 82 77 74 79 82 77 63 58
87 89 78 92 78 78 73 68 68 70 60 46 50 54 52 56 52 53 47 50 53 54 62 64 73 70 64 52 54 57 61 67 73 63 74 75 78 76 74 69 62 59 57 57 58
85 83 83 86 59 61 66 69 69 65 65 65 71 65 72 80 74 74 64 62 60 57 49 58 80 70 89 48 49 53 56 60 65 66 63 64 70 60 66 61 58 60 58 62 62
69 63 67 65 66 68 72 60 65 60 57 59 64 62 75 71 68 65 64 57 49 52 60 61 80 90 90 71 60 70 53 56 60 64 62 72 60 61 66 62 60 61 60 63 62

GFSSW_925_rhum_099.txt.gz
RH
84 76 81 86 92 95 89 96 96 97 99 100 98 99 82 74 60 64 73 59 55 42 34 44 41 39 36 40 43 54 84 90 73 68 59 46 52 38 32 37 35 35 34 31 27
86 84 80 76 72 92 92 90 90 95 94 98 99 98 90 73 59 74 68 64 58 51 45 39 38 41 52 44 50 71 88 78 62 55 58 54 44 40 35 35 36 38 33 27 25
94 88 76 76 83 73 92 91 88 88 94 88 100 100 86 63 76 68 74 63 61 48 42 37 35 36 44 39 44 62 81 66 57 49 46 47 44 33 37 42 38 36 39 32 31
91 83 85 79 74 78 75 87 86 86 86 84 100 98 78 71 65 65 72 62 58 49 40 39 42 45 48 46 45 49 45 46 44 43 44 45 39 41 39 37 31 36 34 36 35
86 76 78 74 79 78 75 82 82 85 87 85 99 91 72 72 73 73 62 64 52 37 36 39 45 43 54 48 43 44 46 50 48 50 46 41 46 45 42 36 36 36 36 36 36
86 85 79 79 81 82 79 77 89 83 88 93 99 77 77 65 72 70 68 52 40 38 46 48 49 43 56 52 48 56 59 60 54 52 50 49 42 40 39 36 34 34 35 37 36
87 83 90 90 88 86 84 89 93 92 96 96 95 78 63 75 77 70 44 46 42 42 56 50 46 53 54 54 58 59 65 62 55 50 49 46 51 53 33 34 35 33 31 30 36
85 89 93 93 90 88 86 95 95 88 85 100 84 83 77 70 75 59 58 47 45 46 46 46 44 56 55 54 65 71 63 72 43 46 48 47 54 42 39 38 39 36 35 32 33
92 92 86 89 88 90 89 96 94 89 91 100 86 81 67 59 48 62 52 50 47 46 48 48 52 66 64 77 69 71 73 74 67 52 54 56 64 52 42 44 43 38 37 35 36
86 93 83 90 90 92 92 95 94 97 99 90 85 78 62 60 47 44 50 46 53 55 60 65 81 87 88 84 67 61 80 78 81 58 57 65 64 49 48 51 49 45 41 39 36
79 92 91 91 86 83 82 94 88 96 87 86 78 72 64 53 49 47 49 52 52 55 80 71 88 90 70 79 62 67 86 93 75 61 72 75 71 62 57 58 57 51 51 44 44
69 91 91 80 84 74 84 92 99 93 94 78 64 74 51 47 61 55 49 59 59 73 70 77 94 68 66 70 79 87 96 89 75 65 68 72 77 68 63 63 62 59 56 55 53
84 81 89 80 78 81 94 100 98 87 96 91 68 62 57 50 67 62 51 58 58 66 67 76 63 59 70 74 87 90 96 87 87 69 68 81 88 65 50 56 62 63 58 60 59
59 81 78 81 80 86 95 99 97 79 98 99 84 59 56 57 76 56 53 62 63 68 75 75 63 67 72 84 84 94 74 75 83 96 99 71 94 70 59 59 72 68 65 67 64
69 76 87 74 85 93 93 90 92 81 93 98 83 56 57 74 76 74 63 64 75 73 74 72 76 84 90 86 80 81 73 85 86 99 99 87 98 76 77 85 79 87 53 72 94
82 71 72 82 93 99 92 92 94 80 96 99 76 76 78 76 77 76 73 70 77 77 72 82 72 82 86 73 76 65 85 90 94 97 96 90 83 78 88 97 88 82 97 92 89
76 76 81 88 99 91 92 90 85 95 92 94 91 78 79 75 87 78 80 88 78 87 88 78 89 82 79 87 75 82 97 96 90 92 89 95 95 83 87 87 94 96 96 96 96
68 72 88 91 83 84 80 78 89 89 91 73 74 73 77 79 77 81 86 92 85 77 92 89 77 81 78 80 82 90 95 99 97 100 95 96 94 91 80 78 85 89 96 96 97
67 64 75 76 75 75 83 94 96 81 71 76 75 78 90 73 79 84 86 78 76 76 94 88 89 60 74 70 74 83 98 90 100 92 98 93 96 94 80 86 88 94 95 97 97
68 78 67 67 72 75 90 95 96 84 68 72 78 77 68 80 86 90 88 72 66 71 71 86 97 69 70 73 74 81 84 96 98 96 94 95 98 98 98 99 93 94 97 96 94
69 82 53 62 63 88 96 94 84 76 61 72 65 74 71 80 77 91 82 75 74 74 74 81 91 75 71 77 70 81 84 87 90 86 97 96 98 99 100 100 99 96 96 96 96
75 86 52 60 90 94 99 94 78 70 66 64 57 55 69 70 83 89 82 78 72 78 88 80 87 93 75 60 61 65 72 75 90 74 84 84 97 91 96 96 95 96 94 96 94
90 89 50 64 93 96 80 75 81 67 59 53 56 52 52 66 69 62 66 58 76 77 75 78 85 92 61 51 54 66 67 65 75 76 89 90 86 71 85 93 94 95 93 93 92
82 84 85 91 91 83 87 80 72 59 55 54 64 52 52 60 58 64 62 59 74 69 62 62 80 74 81 63 68 76 71 62 71 88 83 86 77 73 75 82 85 88 87 81 72
87 86 82 90 78 75 76 73 70 76 65 63 60 72 71 62 58 65 64 59 60 56 66 68 84 80 76 72 71 70 67 62 77 70 71 71 82 69 77 80 78 72 65 65 65
82 81 88 80 76 67 75 74 78 70 72 65 69 69 74 65 65 66 70 63 62 55 63 71 83 76 85 69 66 68 62 59 68 67 67 75 76 62 68 67 68 68 68 67 66
84 76 67 69 74 73 76 69 69 68 60 64 67 69 64 67 66 66 65 69 68 66 64 68 82 88 80 67 73 75 65 58 64 67 65 79 64 72 69 66 66 68 69 68 67

GFSSW_925_rhum_102.txt.gz
RH
86 86 82 82 85 91 94 92 90 93 94 98 99 96 92 76 61 63 70 61 56 49 44 41 37 37 37 43 50 58 81 85 70 75 59 51 55 43 34 41 33 33 35 32 25
90 84 84 84 72 66 77 94 90 89 83 94 97 95 89 66 58 67 69 62 60 53 40 37 44 40 52 45 55 74 76 70 64 59 60 56 47 41 39 39 36 36 33 27 26
87 89 86 80 81 74 66 69 86 90 88 85 92 100 85 57 68 70 78 64 61 47 37 36 36 39 46 42 47 68 77 69 60 53 47 48 47 37 38 45 40 38 38 34 31
88 84 82 81 77 77 78 78 83 86 82 93 90 100 77 65 68 69 72 62 59 46 38 38 43 45 49 50 45 47 48 49 45 46 49 46 41 42 43 40 34 36 37 36 37
88 90 79 80 80 79 80 76 80 86 71 87 100 92 65 67 76 73 65 61 39 37 37 41 46 46 55 49 43 47 55 55 53 55 51 46 51 48 44 37 35 37 39 40 39
87 88 75 76 76 84 85 81 81 85 54 93 99 75 80 85 78 68 64 41 38 37 48 47 46 45 53 56 50 61 61 63 56 54 52 52 47 43 41 39 39 36 35 40 38
85 87 82 78 78 90 89 85 89 95 71 94 96 87 79 93 76 56 43 43 42 40 54 49 44 52 53 54 60 61 57 56 47 51 46 48 49 59 40 37 38 37 35 35 38
89 90 87 72 91 90 88 90 82 95 76 94 94 82 96 86 64 50 44 47 46 45 45 47 44 57 57 55 58 69 60 53 36 52 47 40 46 37 36 39 40 39 37 38 40
88 95 81 86 91 77 91 87 79 95 90 98 88 87 96 83 61 50 46 50 47 49 50 47 54 70 65 66 59 68 59 67 64 51 53 52 56 48 44 46 48 43 41 39 38
95 94 92 86 71 69 95 84 96 95 99 89 84 77 65 62 48 50 48 47 55 53 63 67 78 86 87 76 56 56 69 75 78 58 57 68 66 52 47 49 50 50 50 48 43
92 91 88 87 78 69 92 89 87 97 86 88 88 82 59 52 45 53 49 49 51 59 82 72 80 72 60 69 55 65 80 89 77 63 75 77 73 64 56 58 64 64 60 54 46
90 90 86 80 94 83 74 92 99 92 97 81 64 61 50 48 61 56 49 59 59 75 69 75 86 63 64 69 74 82 94 92 78 67 70 74 76 66 62 68 66 62 64 66 56
91 94 83 88 64 88 99 100 94 91 95 91 77 71 62 52 66 62 51 58 59 66 69 76 60 61 66 74 85 93 97 89 88 68 67 79 89 69 51 55 55 72 70 66 66
96 93 79 79 81 92 98 97 93 90 95 100 89 64 58 60 80 58 56 63 62 69 80 75 63 67 72 81 83 100 75 77 79 92 96 81 94 72 66 82 77 72 80 75 76
78 86 79 80 90 93 94 86 84 90 92 94 80 56 64 74 73 70 62 63 70 77 70 70 75 82 90 85 77 79 69 81 84 98 98 87 97 79 78 78 85 84 94 89 88
69 70 79 81 93 100 97 91 90 78 98 96 78 76 76 80 81 75 70 67 73 68 68 77 71 79 81 77 77 66 86 88 90 87 97 82 92 78 94 93 84 85 86 86 93
73 72 72 82 94 83 85 78 83 94 90 94 88 78 72 81 82 77 79 74 78 84 90 76 82 80 78 88 80 82 99 97 89 94 86 95 96 81 88 82 89 92 90 94 96
69 59 63 69 73 73 78 78 90 87 87 77 78 71 65 78 78 83 86 94 80 75 95 97 76 81 82 78 80 86 90 99 98 98 93 94 95 95 85 78 81 88 92 93 96
56 63 64 69 73 72 83 92 94 81 73 76 76 78 90 75 81 81 85 81 76 72 89 85 87 62 79 70 76 85 95 84 92 83 99 92 96 91 83 88 87 89 90 95 96
65 69 62 65 67 68 90 91 91 81 68 71 75 75 74 85 82 82 84 70 69 68 70 82 98 70 70 76 77 84 81 90 85 99 94 90 97 98 97 100 96 96 96 93 92
64 77 47 54 63 88 96 95 84 75 60 66 67 75 71 78 76 91 84 73 70 72 71 80 92 74 68 84 73 82 81 80 88 94 98 97 96 97 99 99 100 96 96 96 94
68 85 44 46 88 94 98 95 77 69 66 67 59 59 71 71 77 85 88 74 72 78 89 80 84 90 78 60 61 67 72 76 94 79 87 91 90 84 92 93 96 97 96 94 90
82 80 44 47 92 95 78 75 76 68 62 57 58 55 55 69 73 82 71 59 77 82 79 80 89 94 55 46 53 65 68 65 77 81 86 93 80 74 87 93 96 96 91 89 91
80 82 83 91 88 81 83 80 70 61 60 60 67 55 54 61 65 66 64 61 79 76 67 69 83 78 77 54 65 74 68 62 76 92 81 89 74 76 81 84 89 89 86 88 85
88 86 81 86 78 75 75 73 71 76 67 66 60 73 75 65 61 62 64 61 68 61 71 71 87 86 80 77 74 74 73 71 80 74 78 62 80 68 80 86 86 83 74 67 66
78 84 88 79 76 68 77 77 75 71 68 65 68 71 70 70 67 71 71 66 64 57 69 76 85 82 90 71 79 79 72 71 66 71 76 76 81 68 68 70 75 76 71 71 68
83 74 67 72 74 74 77 70 68 72 61 63 66 71 64 64 68 70 70 68 66 68 68 73 85 89 86 72 72 74 69 70 63 69 67 82 66 73 75 73 70 72 73 71 71

GFSSW_925_rhum_105.txt.gz
RH
83 87 85 86 88 88 94 93 91 91 89 94 94 100 89 70 54 60 67 64 54 51 45 39 39 40 40 50 55 58 55 62 61 71 51 51 50 41 34 36 33 29 36 32 28
78 84 76 80 86 73 82 91 90 85 93 87 93 100 82 57 60 69 75 65 62 47 41 37 44 39 48 49 58 65 52 50 59 59 59 54 49 41 37 39 36 32 30 29 26
88 89 78 83 88 76 78 81 81 66 86 90 94 100 76 48 67 72 80 67 60 40 35 37 36 40 47 48 52 69 56 65 60 54 44 45 44 38 40 41 36 32 32 30 31
89 91 76 81 80 81 77 77 87 85 62 91 89 95 70 67 78 73 72 62 58 40 35 37 42 45 52 50 46 46 52 50 46 44 49 46 39 40 41 32 28 32 32 35 33
86 89 80 72 66 85 82 81 77 84 68 88 100 92 80 80 84 75 68 44 39 38 38 41 44 49 53 51 47 48 55 52 50 54 53 47 51 45 40 34 32 33 35 36 35
85 89 83 74 74 92 88 86 85 86 67 62 99 91 80 93 81 61 45 38 37 36 46 43 43 47 54 58 50 61 60 59 56 51 52 52 48 42 32 35 37 37 36 34 34
87 89 78 79 78 90 90 84 87 86 86 98 90 82 81 93 63 46 39 42 39 38 53 48 43 49 50 60 61 61 45 47 42 50 49 49 50 55 35 37 37 34 31 32 32
89 90 76 80 84 79 75 83 86 83 80 96 85 83 99 70 51 44 44 47 44 44 45 46 42 61 61 56 50 60 50 36 38 51 49 39 44 35 35 39 41 39 38 38 36
93 80 88 80 65 72 88 97 90 79 95 92 79 73 99 67 51 48 44 52 49 48 48 43 53 70 58 54 50 56 40 56 53 51 53 49 53 43 40 43 47 45 43 41 41
90 92 82 94 79 82 80 79 97 94 99 76 74 70 85 77 50 49 51 47 53 51 62 64 73 75 75 68 44 44 58 65 69 54 59 64 65 54 48 51 53 51 49 47 47
88 94 86 91 79 91 86 82 80 89 91 91 84 79 82 53 51 54 50 47 50 63 75 73 74 64 59 58 52 64 75 80 71 60 71 73 70 61 56 58 58 50 49 51 54
94 91 75 84 91 77 80 92 98 90 97 81 62 55 51 48 63 57 50 57 60 77 66 70 78 61 66 71 72 80 91 89 70 67 68 69 72 61 63 64 58 55 60 69 61
92 74 74 81 89 83 89 99 100 93 96 92 71 66 63 54 68 63 54 57 62 69 72 72 64 63 65 75 83 89 96 84 78 68 68 79 81 64 50 55 63 68 78 82 83
84 72 78 75 80 88 94 93 90 88 95 99 82 64 62 59 78 62 60 61 62 77 80 76 64 66 73 80 80 98 76 76 80 90 91 71 88 70 56 67 71 71 79 79 78
74 95 88 78 88 97 97 92 87 91 90 93 81 56 66 71 70 63 64 63 76 75 68 65 75 81 89 84 77 70 69 76 78 96 97 88 96 68 70 76 74 71 79 81 87
72 70 77 78 81 94 86 74 72 78 97 94 78 78 79 80 81 72 69 65 71 68 68 72 69 78 75 76 75 72 86 87 86 89 92 82 88 74 87 94 83 80 79 82 91
67 62 60 66 81 67 65 64 83 92 92 90 87 76 65 84 76 75 78 75 80 75 86 74 77 78 77 87 83 81 96 91 85 91 83 87 94 80 85 87 83 90 90 91 91
64 59 59 66 68 60 58 76 89 95 89 77 74 63 79 79 80 84 88 96 78 75 92 94 72 81 83 76 79 82 88 96 95 97 90 91 97 78 89 88 87 84 85 87 90
56 59 60 68 66 63 83 90 93 81 73 78 79 79 91 70 78 82 86 82 73 73 86 88 86 60 82 72 71 87 86 84 98 87 94 85 82 86 77 84 93 94 94 92 91
61 64 61 64 66 62 90 92 93 79 69 70 75 73 84 86 86 87 85 68 73 68 69 88 93 67 70 76 76 86 80 83 90 92 96 82 91 92 95 98 96 98 98 95 90
59 77 59 57 64 89 98 95 80 74 62 66 70 74 69 77 77 88 82 68 68 76 67 80 86 73 68 91 79 95 90 88 82 89 96 96 80 88 99 98 98 97 97 97 93
64 84 46 61 87 93 98 90 76 65 66 70 61 61 68 73 76 82 83 73 68 75 79 76 89 87 81 62 63 68 72 74 86 80 85 90 84 83 90 93 95 96 96 95 90
77 76 44 49 87 96 73 74 72 68 66 63 62 59 57 68 69 78 71 63 78 76 77 81 86 95 52 46 59 70 74 67 79 82 92 91 71 81 91 92 95 96 92 87 87
78 75 80 90 86 77 72 74 66 61 63 64 68 59 57 64 67 69 67 62 79 77 70 74 86 83 80 52 58 70 75 69 76 89 81 86 73 80 91 86 84 84 81 81 88
89 86 82 84 77 78 74 72 69 69 65 65 61 72 73 65 64 64 64 63 77 67 77 74 91 91 86 80 78 76 73 75 82 73 82 66 80 66 75 83 83 83 87 75 68
78 79 84 83 78 67 70 76 72 71 66 63 64 68 69 69 63 66 70 69 64 61 76 81 91 83 94 75 78 89 80 80 74 72 81 80 77 65 64 77 82 79 77 71 70
83 76 66 78 77 72 72 71 67 71 62 62 63 69 70 65 71 70 69 68 65 71 73 78 88 90 89 72 75 64 59 76 70 69 68 80 66 72 76 76 74 74 73 69 69

GFSSW_925_rhum_108.txt.gz
RH
77 71 76 83 88 76 81 87 89 92 90 89 87 99 96 64 52 66 48 59 50 53 40 39 41 40 40 42 44 42 21 26 33 34 34 38 36 34 28 28 23 21 23 22 20
91 92 82 80 87 77 78 88 84 90 84 93 95 100 79 53 55 56 77 65 61 46 37 32 40 36 36 43 44 33 23 24 33 35 37 39 36 31 26 21 19 18 16 18 20
90 90 80 73 82 82 80 85 80 76 87 91 97 96 75 66 49 63 78 66 53 38 37 37 34 29 38 38 43 44 29 39 44 44 39 36 27 27 25 19 15 14 12 14 18
88 88 72 78 79 73 82 78 87 84 66 80 94 91 69 66 70 70 71 63 50 35 38 33 26 28 37 35 36 34 43 40 39 37 36 33 29 26 24 17 14 15 17 20 20
87 86 72 75 78 82 75 83 79 70 73 75 95 84 62 69 76 72 63 44 42 36 36 32 27 30 31 34 34 32 36 36 35 38 35 32 34 29 22 17 15 17 21 22 21
87 90 78 72 68 77 82 85 89 54 63 94 99 92 82 90 76 49 43 37 40 40 40 33 29 30 34 37 32 38 40 34 36 33 35 36 29 35 18 21 22 23 23 23 24
88 91 76 74 75 85 91 78 87 65 83 98 86 98 82 92 67 48 37 40 40 40 39 43 35 30 31 39 43 38 28 29 32 34 34 36 32 38 22 24 27 29 31 30 29
90 87 75 82 74 88 87 74 74 79 93 98 84 96 95 69 64 47 47 50 42 46 47 48 39 42 38 36 30 29 27 17 28 37 40 37 25 23 21 29 32 34 30 28 27
86 73 80 90 89 85 87 65 78 71 97 99 84 76 92 68 50 50 47 47 49 49 47 45 44 43 37 30 27 24 16 23 26 40 42 41 38 30 28 32 37 34 30 29 28
93 94 96 91 95 88 82 96 82 91 97 85 88 79 86 71 54 54 52 49 44 46 45 46 44 42 38 42 43 22 26 33 36 36 43 47 44 36 35 38 40 34 31 31 36
94 95 95 90 87 85 96 94 74 91 79 88 82 81 76 61 52 50 52 43 42 44 47 52 68 56 51 39 41 47 50 50 36 42 56 48 48 42 40 40 37 38 39 42 45
68 75 91 90 76 75 81 82 97 90 96 65 64 63 50 49 52 48 47 44 46 54 52 52 66 53 53 55 56 57 59 48 46 49 55 52 54 45 45 46 47 49 51 56 55
70 71 84 83 76 71 97 99 96 93 95 88 59 56 55 48 59 56 49 48 50 57 54 47 55 53 53 62 67 62 71 60 69 58 47 58 50 46 39 40 47 44 51 57 59
93 70 78 78 73 79 96 97 90 86 92 98 71 53 52 51 57 56 56 54 52 65 62 59 56 56 59 62 63 76 55 60 71 80 78 55 73 41 41 42 46 49 59 66 64
82 80 66 69 86 88 89 82 80 92 84 94 70 55 56 55 54 51 60 50 56 59 58 68 62 65 69 75 57 61 58 64 72 87 84 66 85 46 44 52 61 55 67 75 82
69 71 71 71 79 77 75 71 78 87 92 86 69 64 59 61 63 56 55 52 59 59 59 61 60 62 59 62 59 57 73 77 76 79 89 70 74 49 55 77 82 69 78 81 83
62 57 59 65 70 69 64 58 92 88 82 77 67 64 61 65 66 61 64 64 71 90 97 60 60 64 63 70 69 75 80 82 84 90 69 72 90 67 55 85 82 91 86 82 83
54 56 57 56 57 56 63 59 85 81 76 68 62 62 68 66 65 67 64 64 60 59 75 81 76 62 66 65 63 61 65 81 92 76 66 74 93 62 70 69 74 84 88 84 84
50 54 60 65 63 58 53 91 90 68 65 66 65 66 75 64 61 61 63 60 58 56 77 88 85 53 62 57 62 68 77 74 92 79 84 64 77 56 63 67 77 81 94 95 87
56 61 68 63 59 66 73 92 76 64 59 61 60 59 62 66 62 62 67 57 61 57 56 70 94 58 63 65 64 68 72 75 80 84 76 56 62 72 81 95 87 92 96 96 84
56 59 57 57 61 62 98 79 62 60 57 56 59 58 57 62 62 66 64 59 56 61 55 61 65 59 58 65 61 82 76 75 62 64 72 57 52 74 83 84 89 95 95 96 88
65 78 49 59 74 79 85 62 68 54 61 60 51 54 55 60 64 65 62 60 52 55 59 63 66 74 58 53 52 55 54 52 54 61 61 64 58 63 74 77 79 94 95 90 86
66 70 49 58 78 79 68 67 64 60 59 57 56 53 51 57 59 63 60 55 59 57 59 64 68 79 43 50 54 59 56 54 54 61 68 61 40 61 70 73 78 90 88 83 78
51 80 58 65 69 55 58 63 62 59 58 58 54 52 53 57 58 58 58 59 62 60 68 64 66 64 45 34 42 52 48 56 56 68 46 52 37 42 64 69 70 71 66 64 61
59 74 69 74 60 63 61 59 60 60 56 56 58 55 52 53 55 55 53 54 66 66 68 64 80 71 65 56 56 60 59 54 65 59 56 38 48 35 40 52 55 56 57 62 60
56 58 64 60 61 56 62 62 60 60 59 53 54 58 57 52 46 45 50 53 46 63 68 68 80 71 83 49 54 66 56 56 56 54 53 48 48 32 34 39 50 54 57 62 51
81 70 48 67 61 52 56 62 61 64 58 59 59 56 57 54 55 52 51 54 55 55 60 65 74 79 68 53 54 50 41 46 52 52 51 57 39 31 52 55 53 53 55 55 47

GFSSW_925_rhum_111.txt.gz
RH
80 72 79 82 87 75 82 88 94 86 87 89 92 94 87 58 47 60 37 49 48 39 38 38 34 34 35 39 35 29 22 20 22 20 28 28 26 25 22 22 16 15 17 16 16
75 85 77 77 85 86 86 87 84 87 76 82 91 99 70 46 43 51 74 64 60 38 30 30 29 28 29 36 33 25 22 19 24 26 26 28 26 22 20 15 14 12 10 11 13
88 76 78 77 80 71 78 75 83 62 73 83 99 98 70 62 44 54 69 63 51 38 30 28 29 24 29 27 32 27 25 26 31 34 30 27 21 20 18 15 10 11 12 12 14
90 88 90 81 93 79 74 78 76 71 74 97 97 85 70 69 62 63 75 65 47 37 28 27 24 22 28 27 28 30 31 27 32 32 28 24 22 20 16 15 12 13 13 15 16
88 86 85 90 92 76 67 82 74 73 83 95 95 88 70 67 73 60 50 44 40 35 27 21 19 20 25 25 24 22 24 26 27 29 25 21 23 21 19 14 13 16 18 20 19
82 86 93 83 70 94 81 77 84 69 80 99 90 79 84 87 69 44 41 38 38 32 31 23 19 20 23 24 24 24 28 24 26 24 25 29 23 27 15 17 19 21 23 23 24
90 91 94 73 83 86 89 77 82 63 84 99 91 76 78 92 59 41 42 42 39 31 32 28 24 23 22 28 27 24 24 24 26 27 28 31 31 29 19 18 23 21 24 26 24
90 91 93 76 69 67 87 72 86 90 93 98 81 65 89 81 74 39 37 38 40 40 39 33 29 31 26 23 22 23 20 20 25 29 33 35 22 18 17 20 24 25 26 24 22
92 93 96 79 74 87 86 71 88 92 99 82 79 74 83 63 46 42 38 37 38 37 35 34 32 29 30 25 23 18 18 16 29 31 34 36 29 20 21 25 28 28 26 23 23
95 94 82 80 89 76 89 88 90 89 97 79 85 75 88 71 50 45 42 40 36 36 34 33 32 32 26 41 56 22 17 20 21 31 36 38 35 27 26 28 31 29 26 26 30
88 92 82 96 70 86 97 82 80 88 86 85 83 82 80 62 48 42 44 36 34 34 34 37 62 59 38 30 32 31 30 30 24 34 48 38 37 32 30 35 30 32 32 34 41
81 93 75 87 93 88 79 81 91 86 97 80 78 74 58 45 44 42 39 37 37 40 39 44 60 42 42 45 44 43 42 35 37 41 47 45 46 35 37 36 35 37 39 47 51
70 82 83 70 72 82 81 94 99 94 92 86 66 58 50 41 51 52 41 39 39 43 37 42 44 44 44 50 54 48 56 52 63 52 42 48 41 41 34 32 33 33 40 56 64
69 75 70 75 84 91 87 82 98 92 89 85 62 52 46 45 51 45 48 47 45 49 47 50 45 46 47 52 53 62 46 54 61 70 70 47 61 33 31 33 33 43 47 72 71
75 72 64 70 74 80 83 96 89 84 88 72 58 50 43 47 48 45 47 39 48 49 50 59 53 54 57 70 48 58 53 59 64 74 73 57 73 35 35 37 37 54 60 71 72
69 72 74 72 73 76 71 84 78 91 93 70 54 54 48 46 50 44 45 42 45 48 48 51 50 52 52 52 51 52 64 69 63 64 87 65 62 38 39 50 61 63 70 73 76
61 62 63 65 62 66 80 62 94 89 65 62 57 48 48 53 50 49 50 55 62 92 99 51 52 54 54 61 59 63 70 81 80 85 71 59 81 62 39 56 64 76 79 79 78
53 57 60 71 68 61 65 52 87 76 65 52 51 48 57 53 52 52 50 55 50 46 64 78 80 54 55 57 62 52 56 77 84 69 62 67 86 56 49 50 60 66 76 81 83
49 66 66 72 60 69 49 93 83 59 52 52 53 51 62 51 49 50 51 51 50 48 67 84 85 48 52 48 56 57 65 58 84 58 76 59 70 47 47 46 61 68 79 91 84
60 57 59 55 55 71 64 79 64 49 49 49 45 45 49 51 51 49 53 50 53 49 47 56 83 49 56 56 56 62 55 67 78 74 68 47 49 56 61 88 63 69 82 88 81
58 44 54 48 66 48 91 62 54 47 47 47 47 45 46 52 48 51 50 48 46 47 45 48 57 56 51 59 55 74 65 64 49 49 62 44 42 63 73 68 69 69 79 92 84
54 67 48 51 64 56 69 50 52 51 51 49 43 44 44 48 48 48 46 46 41 45 50 48 50 62 46 40 45 49 47 43 49 43 48 46 48 49 55 61 66 71 78 82 82
40 47 56 67 72 65 58 57 52 52 49 50 47 45 43 46 47 47 46 43 47 50 48 48 55 63 47 41 43 53 44 45 43 45 55 46 33 48 54 60 60 65 71 76 77
39 76 42 41 47 41 47 52 54 52 49 48 46 44 46 47 45 46 46 50 49 51 65 58 54 57 49 35 38 42 40 44 47 63 48 39 33 29 40 51 52 60 60 61 57
47 58 58 59 47 46 46 46 50 52 49 47 47 47 44 43 43 43 41 42 53 63 59 58 66 58 53 47 46 47 46 43 48 51 61 43 31 24 22 27 36 43 49 51 50
44 44 46 45 48 44 53 47 46 50 48 46 52 45 44 46 42 45 43 41 37 54 59 56 72 57 79 46 39 46 42 41 43 44 44 42 42 28 25 23 28 30 43 47 48
61 53 43 57 43 40 35 43 46 50 49 46 45 44 43 40 39 38 38 37 39 42 53 56 65 73 66 39 46 48 35 36 38 37 39 46 33 25 30 35 40 37 40 43 44

GFSSW_925_rhum_114.txt.gz
RH
85 84 87 92 86 91 94 92 89 93 88 86 83 99 80 46 36 50 58 62 55 32 37 35 33 36 36 42 34 28 41 31 25 23 36 27 26 25 21 24 17 14 16 14 12
75 69 65 70 88 90 90 85 82 75 83 81 92 99 60 37 48 64 69 64 61 36 39 31 30 30 36 37 35 35 39 36 30 34 32 29 25 22 21 18 16 16 13 11 12
86 82 80 82 87 80 61 58 67 66 80 80 84 94 84 61 50 66 73 64 45 37 31 27 24 25 32 32 32 27 38 27 33 36 30 27 22 19 21 22 14 16 16 15 15
88 90 89 92 79 74 74 60 64 61 73 93 99 96 65 68 82 68 68 54 36 35 28 29 26 27 35 32 27 32 30 27 32 33 28 27 23 22 21 21 15 14 16 17 20
86 90 94 94 80 69 74 70 75 65 85 98 81 87 87 70 67 45 40 39 38 34 25 24 25 23 30 27 23 23 24 24 28 28 25 22 26 25 24 20 16 17 21 24 25
86 90 92 91 85 71 77 85 66 67 94 96 84 84 82 88 68 39 38 36 34 30 28 22 20 21 23 24 27 25 25 24 25 23 24 31 28 26 19 17 18 21 25 26 29
86 89 72 75 94 87 87 86 76 62 98 85 83 63 78 85 70 42 39 38 34 29 30 31 26 26 24 29 25 25 28 27 28 26 28 35 38 35 24 18 21 24 23 28 28
90 91 86 87 76 87 87 92 90 72 92 98 82 65 88 60 53 44 35 36 37 37 37 33 27 32 28 24 22 26 20 31 29 29 36 36 35 26 19 19 26 27 28 29 27
92 93 66 67 75 76 76 96 70 100 86 74 65 64 84 60 43 39 34 34 34 33 29 30 29 30 27 29 35 22 30 22 38 30 34 39 42 30 25 26 30 31 31 28 29
97 89 81 77 62 80 90 81 94 80 73 61 68 68 73 62 49 39 38 36 33 33 36 32 35 45 37 78 80 41 21 20 23 41 36 44 44 34 30 29 36 35 31 36 46
84 90 78 80 67 91 79 71 80 86 86 90 78 73 72 62 49 39 41 33 31 36 38 38 86 78 43 40 36 36 33 33 29 41 49 50 46 41 36 35 37 35 39 53 56
71 88 95 92 82 77 75 75 85 80 95 80 75 76 74 57 44 44 38 37 40 47 36 57 71 44 42 44 47 47 44 50 49 41 50 54 55 45 39 36 34 37 56 66 68
77 74 75 78 78 78 88 97 94 94 94 92 77 71 60 43 51 52 45 40 43 42 43 60 49 41 41 47 56 50 63 61 65 57 53 56 62 47 40 34 36 39 64 70 76
76 75 70 67 71 87 90 85 90 90 96 94 79 54 44 46 52 42 48 49 46 52 52 54 42 43 45 63 56 67 49 55 64 80 92 57 87 43 45 42 37 55 66 77 80
67 63 67 69 67 79 80 93 86 88 91 69 57 46 40 49 48 47 41 40 50 48 51 59 54 53 57 78 47 64 55 63 65 71 77 61 86 51 38 39 57 62 69 76 79
64 73 71 71 72 79 81 79 80 97 95 65 48 48 48 46 47 43 44 41 44 48 52 54 49 52 56 50 51 50 68 68 60 67 87 83 74 62 49 52 60 66 72 78 77
63 67 67 65 73 74 67 67 96 92 59 62 55 44 46 48 48 46 51 56 73 92 97 60 56 54 52 66 61 66 92 96 92 92 94 67 91 80 47 62 62 71 75 78 79
51 53 57 60 59 62 72 82 88 74 62 48 48 46 54 47 50 51 53 72 48 46 86 93 83 60 58 61 64 54 59 92 91 93 88 79 92 80 55 56 63 62 71 75 77
58 64 65 67 60 73 78 92 87 62 47 51 50 55 57 49 51 48 51 53 50 48 67 97 90 49 53 47 56 58 68 56 86 74 86 84 76 60 52 53 60 63 66 77 81
62 57 57 49 56 76 82 80 68 44 41 45 45 45 52 51 53 52 51 50 52 47 48 54 87 53 57 57 58 68 55 81 81 93 87 73 67 81 71 68 68 65 74 78 79
63 61 53 46 68 67 98 70 55 44 47 49 42 42 48 52 46 49 50 49 45 47 45 48 61 65 53 70 76 81 80 69 57 60 88 75 71 72 71 83 73 67 77 79 85
62 83 43 47 79 65 86 50 48 51 48 48 46 44 43 45 45 45 46 48 41 44 53 56 59 78 61 46 47 52 59 60 80 55 63 63 71 53 59 64 71 70 75 82 75
55 54 47 53 90 84 55 58 51 53 49 49 46 46 43 44 49 44 44 46 44 50 61 51 66 85 59 49 46 56 52 55 52 57 73 76 53 56 59 64 65 70 80 80 83
56 90 60 54 50 47 50 51 56 53 48 46 46 43 45 46 44 48 46 55 48 52 58 59 61 68 74 47 52 56 50 47 56 84 68 59 48 38 48 63 61 70 70 78 76
59 65 62 82 53 45 45 44 50 54 50 46 48 48 45 46 42 46 40 51 56 65 60 64 78 67 66 56 57 59 56 52 56 59 70 52 51 41 38 36 35 55 62 66 66
66 60 54 48 46 48 54 48 47 49 47 48 53 42 43 50 43 46 41 41 42 65 64 64 87 68 79 58 57 64 54 51 51 49 49 47 49 35 34 34 37 41 45 59 59
52 48 53 57 44 44 45 43 45 47 45 46 46 46 47 46 46 42 44 44 45 47 69 64 84 82 86 65 65 75 48 48 45 43 46 57 44 36 38 39 41 45 46 50 53

GFSSW_925_rhum_117.txt.gz
RH
84 94 93 87 87 88 94 91 92 88 85 87 89 91 58 44 44 64 73 66 61 39 41 38 36 38 36 44 36 32 41 41 41 38 40 29 31 27 22 24 22 16 15 16 15
79 91 81 83 79 90 86 85 86 88 85 86 90 92 69 54 68 76 72 65 51 36 38 38 35 38 43 40 39 46 53 39 39 37 36 30 26 23 22 23 18 16 14 13 14
83 73 87 77 79 85 82 61 79 80 81 79 95 88 81 60 68 73 74 67 50 33 31 31 30 29 36 34 36 29 41 37 45 36 31 26 23 23 23 20 18 16 17 18 17
92 87 95 87 90 82 79 76 73 74 94 83 100 73 65 66 89 51 50 43 33 30 28 29 25 30 38 37 28 37 32 34 36 33 31 29 26 25 23 23 19 18 20 20 22
89 96 87 95 90 85 85 86 83 73 98 95 83 75 72 66 68 52 41 36 34 32 28 27 27 26 36 30 23 32 29 28 33 29 27 24 27 27 26 23 21 18 19 25 28
88 89 81 92 89 73 88 93 88 97 99 80 85 76 66 80 64 49 39 36 34 31 30 31 24 24 27 27 31 28 29 31 28 25 24 31 33 33 23 20 19 19 25 30 29
89 88 96 96 94 89 90 91 88 93 95 95 76 65 73 74 53 47 39 38 34 30 35 33 29 29 26 32 26 26 29 27 29 27 31 37 33 40 26 22 22 23 26 30 29
87 78 93 92 92 87 91 98 85 96 94 80 74 60 86 55 48 40 36 35 34 31 30 28 27 32 29 27 22 27 24 36 30 29 35 29 18 27 27 25 24 27 30 29 46
68 62 76 70 61 81 85 95 98 95 94 81 70 68 82 53 48 38 36 35 33 28 26 27 26 32 29 38 48 29 33 30 36 30 36 35 34 32 32 30 34 34 32 46 58
82 66 70 53 64 89 86 88 92 79 74 67 65 74 72 61 59 42 38 34 34 36 37 36 52 60 59 82 70 43 30 27 32 39 39 45 51 40 38 38 39 36 53 63 63
90 77 69 83 80 77 72 75 82 89 75 80 72 72 68 56 53 43 38 38 34 40 41 43 74 70 53 47 39 40 39 40 43 41 52 55 56 48 45 44 40 47 68 76 74
94 88 92 79 73 68 74 85 87 78 89 76 68 74 64 56 53 50 46 42 41 46 41 67 74 49 45 46 51 51 50 68 53 47 57 64 62 51 50 49 43 62 80 81 79
75 77 76 74 68 66 82 92 86 80 92 82 86 72 61 46 58 57 54 47 47 58 57 69 56 42 44 56 69 61 65 65 70 67 62 65 71 50 42 38 44 73 76 78 80
71 77 70 65 66 82 87 86 87 90 92 88 66 51 50 49 57 43 45 51 51 62 62 58 44 47 49 62 68 65 55 60 72 83 86 63 79 66 51 46 47 71 84 82 82
64 68 67 68 73 81 71 82 85 90 92 76 62 44 50 54 46 49 41 46 54 51 58 64 57 56 64 62 51 68 58 67 69 78 84 74 90 71 51 53 64 72 76 80 79
62 69 68 70 75 79 71 77 82 83 95 70 54 55 55 49 50 46 46 46 46 64 60 58 50 55 59 52 51 55 71 74 60 65 94 81 84 68 57 49 65 69 76 79 82
65 62 60 64 78 77 68 79 83 94 60 66 58 49 49 54 52 51 56 61 77 57 89 74 60 57 53 69 62 68 92 96 91 98 91 74 87 76 54 64 64 70 76 79 82
56 56 55 56 61 62 68 75 90 76 73 52 51 50 60 58 53 53 62 80 50 58 97 88 56 66 62 68 68 77 71 89 62 95 90 83 90 67 58 65 70 68 77 75 78
49 53 58 60 57 64 79 94 86 73 53 58 52 63 60 52 54 54 55 61 54 54 74 94 86 54 60 52 60 69 79 65 88 84 93 88 73 64 65 73 72 72 77 77 79
63 64 60 53 53 71 86 83 68 48 45 49 55 47 60 57 60 59 62 52 57 50 52 62 88 60 58 58 59 69 66 83 89 88 89 82 71 76 76 73 71 75 81 82 78
58 78 58 57 70 80 89 72 57 49 58 59 52 47 57 56 52 53 57 51 48 54 47 53 70 68 63 81 84 84 85 78 73 80 89 88 77 66 72 70 68 75 78 86 83
71 73 50 62 82 89 90 56 48 53 50 59 51 51 50 49 50 50 54 53 46 49 60 56 69 85 73 54 62 72 76 72 86 66 76 78 81 54 66 66 74 71 78 85 85
67 67 61 60 86 91 61 61 55 58 57 52 50 46 45 48 53 47 50 50 50 53 61 58 73 86 69 56 52 59 61 64 63 68 81 80 55 59 64 66 72 74 80 83 87
73 76 80 69 67 60 56 56 61 52 52 49 50 46 48 51 46 52 52 56 52 54 57 60 75 67 48 44 58 66 60 59 69 89 66 61 47 42 55 62 68 74 76 82 82
76 68 68 82 64 50 50 50 56 60 54 48 51 51 52 55 50 54 46 61 58 66 60 70 88 77 74 72 69 68 68 64 66 60 76 47 56 42 43 44 43 54 65 76 84
72 71 70 62 52 48 54 53 50 52 52 52 57 50 46 54 51 56 48 45 50 76 73 75 87 80 89 70 71 77 65 63 63 60 56 53 54 38 36 42 43 45 49 72 71
56 55 65 63 55 53 55 48 49 48 46 49 52 53 53 52 55 54 52 50 52 72 84 77 88 84 89 72 73 77 57 53 55 56 55 66 48 40 43 41 42 43 50 54 67

GFSSW_925_rhum_120.txt.gz
RH
86 95 94 86 84 80 90 93 96 93 89 78 98 87 67 47 66 69 75 69 63 58 40 38 36 39 41 42 36 34 48 47 40 41 41 30 32 24 23 23 23 18 18 17 16
76 88 92 98 99 93 88 88 88 94 84 84 88 89 57 71 53 67 77 70 59 52 36 37 37 38 45 41 38 46 53 43 42 37 36 29 26 24 20 23 18 16 15 16 17
85 78 84 88 86 92 84 88 60 79 79 83 95 68 67 70 66 67 71 54 54 43 32 32 32 30 39 36 38 35 44 45 44 34 30 26 24 25 23 18 18 17 17 18 20
96 84 94 93 90 84 81 83 57 78 76 94 95 53 58 64 76 53 60 51 39 32 28 30 27 33 39 37 29 40 33 38 40 31 28 28 25 23 24 19 20 19 20 20 26
93 97 97 91 90 88 90 86 74 99 95 96 68 61 48 62 65 48 40 37 32 29 30 29 26 32 36 29 26 34 30 35 34 29 26 25 24 24 26 24 23 22 21 24 27
90 92 92 90 89 87 93 76 94 98 99 95 75 59 54 71 55 48 40 34 30 29 32 32 29 26 30 31 32 30 35 34 27 26 25 32 31 33 21 22 21 21 23 27 33
90 94 97 94 91 93 68 90 99 99 96 80 65 52 63 66 50 41 38 36 31 28 35 33 32 27 28 32 26 29 30 28 29 28 31 37 26 40 28 22 22 24 26 36 54
91 92 93 62 72 82 71 96 99 92 75 64 55 47 65 50 42 37 33 32 31 27 28 27 23 29 30 27 24 27 29 31 30 30 35 25 16 23 30 26 26 26 30 60 62
79 72 70 68 85 95 83 91 93 82 72 59 53 57 69 43 44 40 36 34 25 26 27 26 25 33 40 42 49 40 33 29 33 32 36 34 24 27 31 35 38 38 47 64 68
64 56 52 99 99 93 98 88 75 70 70 64 67 60 54 54 51 42 36 34 35 36 34 45 64 60 61 75 49 41 27 29 33 40 40 45 50 42 39 41 44 42 66 69 72
74 52 74 83 86 84 74 74 77 83 75 82 81 70 62 52 54 47 46 38 35 37 45 55 72 69 52 48 40 40 38 39 47 44 59 61 57 47 47 50 50 58 77 75 74
68 76 76 75 76 76 72 87 88 72 79 79 74 68 61 57 54 52 43 41 40 45 48 64 74 50 45 48 50 48 49 62 55 50 63 66 68 55 56 56 51 66 82 77 78
83 81 78 75 70 70 77 88 85 77 81 70 76 73 59 50 59 58 53 49 53 62 62 61 54 44 48 61 62 64 63 65 70 71 61 68 56 53 44 59 73 78 78 78 79
78 77 76 75 70 85 80 81 84 85 91 81 70 52 52 49 48 44 44 49 54 63 59 58 45 48 58 55 70 61 57 64 75 81 71 63 66 59 54 51 72 77 80 79 79
65 69 68 70 76 82 70 76 84 82 92 72 66 42 48 50 41 46 43 47 55 59 51 58 56 57 63 58 57 68 59 67 71 78 84 73 90 70 55 58 64 79 80 81 78
59 62 66 69 73 75 75 79 82 81 96 72 60 54 55 51 51 47 50 47 48 62 63 61 52 56 60 54 53 60 74 76 66 79 91 80 85 77 59 52 61 70 75 81 80
63 66 62 60 70 71 72 81 82 95 63 66 58 51 54 58 56 54 58 62 72 57 82 71 63 58 55 69 64 73 78 83 68 94 87 78 88 80 52 59 60 67 75 82 82
57 57 54 57 60 72 77 73 91 78 74 54 52 52 63 56 55 55 64 79 56 69 94 71 51 63 60 67 70 78 72 82 48 85 90 81 94 66 56 58 65 70 75 82 79
50 55 62 59 63 68 70 94 84 76 56 59 55 67 63 53 55 56 59 67 57 58 68 94 74 60 61 54 60 70 83 66 85 90 96 89 72 59 67 74 77 79 85 85 84
54 65 63 57 61 69 86 83 69 53 48 52 56 51 63 59 60 60 62 54 57 52 56 68 85 63 58 57 60 68 66 81 90 71 80 79 74 70 78 80 77 78 83 83 84
54 76 59 59 70 76 89 73 58 52 57 56 61 54 57 59 57 59 60 52 54 54 50 56 71 71 65 79 80 84 88 81 77 83 90 84 72 63 66 72 71 73 74 80 85
76 67 60 69 81 90 89 60 49 53 52 61 54 51 55 54 53 55 59 54 49 51 62 57 74 88 76 57 65 71 79 79 83 59 85 80 81 46 69 66 68 62 71 78 83
70 71 71 74 80 92 63 61 56 57 59 56 55 49 47 51 54 50 55 51 54 55 64 60 72 85 51 58 56 72 74 72 67 74 81 83 53 49 63 64 70 73 73 78 83
74 70 72 74 72 68 62 62 60 54 55 51 54 48 50 53 49 52 55 56 53 57 61 58 77 66 38 30 60 70 67 70 74 95 75 65 48 42 57 71 68 72 77 78 80
75 68 71 80 63 55 54 57 61 62 55 51 54 53 54 59 54 57 51 63 60 61 65 69 86 84 80 74 73 71 70 66 72 69 78 43 53 36 39 42 44 44 49 64 81
67 68 73 68 57 50 59 55 56 54 56 55 58 52 53 57 50 56 49 56 59 78 74 79 82 84 94 77 77 82 70 72 69 66 63 59 60 41 38 38 48 46 48 51 64
62 63 65 68 60 53 57 51 50 48 48 50 53 55 56 54 53 53 53 52 50 80 84 85 93 86 89 74 78 77 56 54 63 68 63 71 51 41 47 46 46 44 45 52 57

GFSSW_925_rhum_123.txt.gz
RH
88 90 90 87 86 86 91 98 90 90 90 97 95 86 63 61 70 67 78 73 63 60 42 38 38 43 41 43 37 37 50 48 44 44 40 31 32 23 23 23 22 20 21 18 18
92 81 100 94 84 94 92 92 83 84 87 86 97 59 66 59 50 63 77 61 62 58 36 37 46 37 45 39 40 46 51 44 42 38 38 28 26 25 21 21 18 17 17 17 18
96 94 86 99 95 86 85 65 70 77 86 98 81 69 66 61 50 61 71 74 54 43 33 33 34 32 40 37 37 36 45 45 42 32 29 26 25 26 22 16 18 17 17 18 24
97 98 97 80 76 89 79 60 74 76 85 95 74 72 68 54 58 51 49 36 39 30 29 32 29 37 38 38 31 38 39 38 38 31 26 26 25 22 25 17 20 20 20 22 27
94 93 91 92 90 80 84 70 90 80 89 71 62 56 43 60 60 49 38 32 30 26 30 27 27 34 36 29 29 35 33 35 33 29 27 24 22 23 27 23 24 24 22 24 31
91 90 91 92 94 92 80 96 92 94 82 90 67 60 48 67 52 46 36 30 28 27 33 33 30 28 33 33 33 32 38 32 28 26 28 30 30 33 18 22 24 24 24 32 45
90 95 93 95 96 94 80 97 99 98 89 84 76 68 56 63 47 37 35 32 28 27 33 32 31 27 30 32 29 29 28 28 31 29 32 37 21 37 23 22 24 24 32 60 66
89 88 88 82 91 87 82 88 94 88 84 60 48 43 56 44 40 37 32 29 26 26 27 25 20 30 30 27 29 26 29 25 29 31 36 22 17 17 28 27 25 28 30 68 69
89 87 84 98 90 93 97 90 77 72 67 56 46 47 59 41 43 41 38 33 28 26 27 27 28 41 49 40 45 38 31 28 31 33 37 36 26 22 31 32 37 40 44 74 75
66 100 100 93 94 92 94 68 66 66 60 47 54 55 48 58 51 44 38 33 36 30 38 48 55 57 63 68 45 32 26 29 31 46 46 47 51 44 37 37 42 44 72 78 76
86 90 84 85 76 83 68 68 77 84 75 86 76 64 62 52 48 47 46 37 34 44 51 58 70 68 54 50 40 40 40 37 44 53 61 62 64 51 49 49 52 55 80 82 76
78 81 77 76 69 68 63 84 94 86 80 65 66 64 59 57 53 52 42 40 38 57 44 60 72 51 48 54 52 48 45 51 54 52 65 67 70 53 55 60 59 61 85 80 75
74 74 71 65 68 65 81 93 87 78 85 75 73 67 57 49 59 58 52 47 55 62 61 56 53 46 50 63 60 64 55 62 67 74 62 73 52 38 48 65 76 78 79 78 77
70 70 65 61 54 73 78 80 78 81 91 84 66 53 50 50 50 43 45 47 56 59 58 58 47 49 53 59 67 50 60 66 75 78 65 68 55 51 53 58 72 83 82 80 77
68 62 65 59 73 73 73 71 67 64 91 70 65 42 49 47 43 46 44 50 59 63 42 52 56 60 60 58 61 65 61 68 73 80 85 74 91 64 57 60 62 79 80 82 82
62 60 61 62 66 68 69 71 68 78 95 72 60 54 54 55 54 48 50 50 51 60 66 65 53 58 60 56 57 63 74 74 78 84 84 77 87 73 61 55 54 64 77 81 84
63 67 65 58 67 72 67 69 82 94 62 65 59 54 60 61 58 55 59 63 68 52 77 67 64 59 56 72 67 73 69 72 62 82 69 81 93 78 56 54 56 65 76 80 83
62 65 64 58 64 69 73 73 94 84 76 55 53 56 63 57 56 58 63 78 59 69 92 68 52 64 58 68 70 76 67 73 43 67 83 81 89 64 55 64 60 62 66 75 83
53 54 57 69 70 71 74 91 82 77 57 60 57 63 63 54 58 58 62 69 59 62 58 87 69 60 62 57 61 73 85 65 84 92 95 88 69 52 61 64 73 74 77 82 86
50 67 67 68 72 73 85 84 72 61 51 53 55 54 63 61 62 62 64 55 57 54 58 68 75 65 59 57 64 68 66 75 89 57 68 74 69 69 53 74 78 80 83 83 83
51 72 70 70 78 78 90 76 60 54 55 56 61 59 58 62 59 64 63 54 56 57 53 64 68 71 68 78 80 84 87 82 77 81 85 78 62 63 59 60 70 71 74 76 78
76 68 71 74 77 89 89 60 51 55 57 61 55 52 55 55 56 58 57 56 53 55 64 60 74 86 76 59 64 72 80 81 80 62 89 80 79 46 53 68 70 69 69 71 76
73 75 73 72 77 93 66 64 56 58 59 57 57 53 49 53 54 52 55 54 55 55 62 60 70 78 41 55 69 79 80 76 69 75 83 78 45 44 65 65 68 73 68 70 73
68 69 69 79 75 69 66 64 63 56 56 53 55 49 51 54 51 53 56 56 54 59 64 60 76 63 39 26 60 79 72 81 75 96 81 63 43 34 37 47 60 70 76 77 75
74 72 72 78 67 61 56 61 62 61 56 53 56 53 54 59 56 58 54 64 61 63 67 70 81 85 80 77 71 65 64 71 88 76 83 42 57 38 36 41 42 43 46 50 53
66 67 75 71 60 52 62 58 57 56 55 55 58 54 57 59 56 59 52 61 58 79 74 81 84 86 98 80 82 86 78 77 71 65 67 64 63 42 40 40 51 53 53 50 49
69 68 64 72 63 50 58 53 51 49 49 50 55 56 57 58 52 53 52 52 51 78 84 89 94 87 88 76 79 72 61 64 72 75 69 77 54 41 48 49 51 48 47 48 48